[[{"header":{"parameterUnit":"m.s-1","parameterCategory":1,"la1":30.6,"la2":29.2853,"lo1":-89.7004,"lo2":-87.6739,"dy":0.0162,"dx":0.0183,"nx":112,"ny":82,"refTime":"2023-10-22T12:00:00:Z","depth":0,"parameterNumber":2,"parameterNumberName":"U-component_of_WINDS"},"data":[0.0,0.0,0.0,0.0,0.0,0.0,0.0,0.0,0.0,0.0,0.0,0.0,0.0,0.0,0.0,0.0,0.0,0.0,0.0,0.0,0.0,0.0,0.0,0.0,0.0,0.0,0.0,0.0,0.0,0.0,0.0,0.0,0.0,0.0,0.0,0.0,0.0,0.0,0.0,0.0,0.0,0.0,0.0,0.0,0.0,0.0,0.0,0.0,0.0,0.0,0.0,0.0,0.0,0.0,0.0,0.0,0.0,0.0,0.0,0.0,0.0,0.0,0.0,0.0,0.0,0.0,0.0,0.0,0.0,0.0,0.0,0.0,0.0,0.0,0.0,0.0,0.0,0.0,0.0,0.0,0.0,0.0,0.0,0.0,0.0,0.0,0.0,0.0,0.0,0.0,0.1092,0.1314,0.1483,0.1585,0.1511,0.1449,0.1365,0.1312,0.0,0.0,0.0,0.0,0.0,0.0,0.0,0.0,0.0,0.0,0.0,0.0,0.0,0.0,0.0,0.0,0.0,0.0,0.0,0.0,0.0,0.0,0.0,0.0,0.0,0.0,0.0,0.0,0.0,0.0,0.0,0.0,0.0,0.0,0.0,0.0,0.0,0.0,0.0,0.0,0.0,0.0,0.0,0.0,0.0,0.0,0.0,0.0,0.0,0.0,0.0,0.0,0.0,0.0,0.0,0.0,0.0,0.0,0.0,0.0,0.0,0.0,0.0,0.0,0.0,0.0,0.0,0.0,0.0,0.0,0.0,0.0,0.0,0.0,0.0,0.0,0.0,0.0,0.0,0.0,0.0,0.0,0.0,0.0,0.0,0.0,0.0,0.0,0.0,0.0,0.0,0.0,0.0,0.0,0.0,0.0,0.0,0.0,0.0,0.0,0.0,0.0,0.0,0.0,0.1176,0.1444,0.1545,0.1594,0.1589,0.1461,0.1374,0.1302,0.0,0.0,0.0,0.0,0.0,0.0,0.0,0.0,0.0,0.0,0.0,0.0,0.0,0.0,0.0,0.0,0.0,0.0,0.0,0.0,0.0,0.0,0.0,0.0,0.0,0.0,0.0,0.0,0.0,0.0,0.0,0.0,0.0,0.0,0.0,0.0,0.0,0.0,0.0,0.0,0.0,0.0,0.0,0.0,0.0,0.0,0.0,0.0,0.0,0.0,0.0,0.0,0.0,0.0,0.0,0.0,0.0,0.0,0.0,0.0,0.0,0.0,0.0,0.0,0.0,0.0,0.0,0.0,0.0,0.0,0.0,0.0,0.0,0.0,0.0,0.0,0.0,0.0,0.0,0.0,0.0,0.0,0.0,0.0,0.0,0.0,0.0,0.0,0.0,0.0,0.0,0.0,0.0,0.0,0.0,0.0,0.0,0.0,0.0,0.0,0.0,0.0,0.0,0.1143,0.1287,0.1484,0.152,0.154,0.1548,0.1417,0.1322,0.1254,0.1118,0.0,0.0,0.0,0.0,0.0,0.0,0.0,0.0,0.0,0.0,0.0,0.0,0.0,0.0,0.0,0.0,0.0,0.0,0.0,0.0,0.0,0.0,0.0,0.0,0.0,0.0,0.0,0.0,0.0,0.0,0.0,0.0,0.0,0.0,0.0,0.0,0.0,0.0,0.0,0.0,0.0,0.0,0.0,0.0,0.0,0.0,0.0,0.0,0.0,0.0,0.0,0.0,0.0,0.0,0.0,0.0,0.0,0.0,0.0,0.0,0.0,0.0,0.0,0.0,0.0,0.0,0.0,0.0,0.0,0.0,0.0,0.0,0.0,0.0,0.0,0.0,0.0,0.0,0.0,0.0,0.0,0.0,0.0,0.0,0.0,0.0,0.0,0.0,0.0,0.0,0.0,0.0,0.0,0.0,0.0,0.0,0.0,0.0,0.0,0.0,0.0,0.0,0.1214,0.1354,0.1459,0.148,0.1487,0.1472,0.1373,0.1276,0.121,0.1066,0.0,0.0,0.0,0.0,0.0,0.0,0.0,0.0,0.0,0.0,0.0,0.0,0.0,0.0,0.0,0.0,0.0,0.0,0.0,0.0,0.0,0.0,0.0,0.0,0.0,0.0,0.0,0.0,0.0,0.0,0.0,0.0,0.0,0.0,0.0,0.0,0.0,0.0,0.0,0.0,0.0,0.0,0.0,0.0,0.0,0.0,0.0,0.0,0.0,0.0,0.0,0.0,0.0,0.0,0.0,0.0,0.0,0.0,0.0,0.0,0.0,0.0,0.0,0.0,0.0,0.0,0.0,0.0,0.0,0.0,0.0,0.0,0.0,0.0,0.0,0.0,0.0,0.0,0.0,0.0,0.0,0.0,0.0,0.0,0.0,0.0,0.0,0.0,0.0,0.0,0.0,0.0,0.0,0.0,0.0,0.0,0.0,0.0,0.0,0.0,0.0,0.0,0.1212,0.1326,0.1409,0.1468,0.1479,0.1421,0.1339,0.1276,0.121,0.1066,0.0,0.0,0.0,0.0,0.0,0.0,0.0,0.0,0.0,0.0,0.0,0.0,0.0,0.0,0.0,0.0,0.0,0.0,0.0,0.0,0.0,0.0,0.0,0.0,0.0,0.0,0.0,0.0,0.0,0.0,0.0,0.0,0.0,0.0,0.0,0.0,0.0,0.0,0.0,0.0,0.0,0.0,0.0,0.0,0.0,0.0,0.0,0.0,0.0,0.0,0.0,0.0,0.0,0.0,0.0,0.0,0.0,0.0,0.0,0.0,0.0,0.0,0.0,0.0,0.0,0.0,0.0,0.0,0.0,0.0,0.0,0.0,0.0,0.0,0.0,0.0,0.0,0.0,0.0,0.0,0.0,0.0,0.0,0.0,0.0,0.0,0.0,0.0,0.0,0.0,0.0,0.0,0.0,0.0,0.0,0.0,0.0,0.0,0.0,0.0,0.0,0.0,0.1175,0.1328,0.1402,0.1416,0.1431,0.141,0.1298,0.1208,0.1144,0.0,0.0,0.0,0.0,0.0,0.0,0.0,0.0,0.0,0.0,0.0,0.0,0.0,0.0,0.0,0.0,0.0,0.0,0.0,0.0,0.0,0.0,0.0,0.0,0.0,0.0,0.0,0.0,0.0,0.0,0.0,0.0,0.0,0.0,0.0,0.0,0.0,0.0,0.0,0.0,0.0,0.0,0.0,0.0,0.0,0.0,0.0,0.0,0.0,0.0,0.0,0.0,0.0,0.0,0.0,0.0,0.0,0.0,0.0,0.0,0.0,0.0,0.0,0.0,0.0,0.0,0.0,0.0,0.0,0.0,0.0,0.0,0.0,0.0,0.0,0.0,0.0,0.0,0.0,0.0,0.0,0.0,0.0,0.0,0.0,0.0,0.0,0.0,0.0,0.0,0.0,0.0,0.0,0.0,0.0,0.0,0.0,0.0,0.0,0.0,0.0,0.0,0.0746,0.1017,0.1221,0.1361,0.1362,0.1369,0.1371,0.1264,0.1163,0.1111,0.0,0.0,0.0,0.0,0.0,0.0,0.0,0.0,0.0,0.0,0.0,0.0,0.0,0.0,0.0,0.0,0.0,0.0,0.0,0.0,0.0,0.0,0.0,0.0,0.0,0.0,0.0,0.0,0.0,0.0,0.0,0.0,0.0,0.0,0.0,0.0,0.0,0.0,0.0,0.0,0.0,0.0,0.0,0.0,0.0,0.0,0.0,0.0,0.0,0.0,0.0,0.0,0.0,0.0,0.0,0.0,0.0,0.0,0.0,0.0,0.0,0.0,0.0,0.0,0.0,0.0,0.0,0.0,0.0,0.0,0.0,0.0,0.0,0.0,0.0,0.0,0.0,0.0,0.0,0.0,0.0,0.0,0.0,0.0,0.0,0.0,0.0,0.0,0.0,0.0,0.0,0.0,0.0,0.0,0.0,0.0,0.0,0.0,0.0,0.0,0.0,0.0,0.0503,0.077,0.1004,0.1276,0.1308,0.1302,0.1302,0.1228,0.1172,0.0,0.0,0.0,0.0,0.0,0.0,0.0,0.0,0.0,0.0,0.0,0.0,0.0,0.0,0.0,0.0,0.0,0.0,0.0,0.0,0.0,0.0,0.0,0.0,0.0,0.0,0.0,0.0,0.0,0.0,0.0,0.0,0.0,0.0,0.0,0.0,0.0,0.0,0.0,0.0,0.0,0.0,0.0,0.0,0.0,0.0,0.0,0.0,0.0,0.0,0.0,0.0,0.0,0.0,0.0,0.0,0.0,0.0,0.0,0.0,0.0,0.0,0.0,0.0,0.0,0.0,0.0,0.0,0.0,0.0,0.0,0.0,0.0,0.0,0.0,0.0,0.0,0.0,0.0,0.0,0.0,0.0,0.0,0.0,0.0,0.0,0.0,0.0,0.0,0.0,0.0,0.0,0.0,0.0,0.0,0.0,0.0,0.0,0.0,0.0,0.0,0.0,0.0,0.0357,0.0724,0.1004,0.1276,0.1291,0.1297,0.1298,0.119,0.1119,0.111,0.0,0.0,0.0,0.0,0.0,0.0,0.0,0.0,0.0,0.0,0.0,0.0,0.0,0.0,0.0,0.0,0.0,0.0,0.0,0.0,0.0,0.0,0.0,0.0,0.0,0.0,0.0,0.0,0.0,0.0,0.0,0.0,0.0,0.0,0.0,0.0,0.0,0.0,0.0,0.0,0.0,0.0,0.0,0.0,0.0,0.0,0.0,0.0,0.0,0.0,0.0,0.0,0.0,0.0,0.0,0.0,0.0,0.0,0.0,0.0,0.0,0.0,0.0,0.0,0.0,0.0,0.0,0.0,0.0,0.0,0.0,0.0,0.0,0.0,0.0,0.0,0.0,0.0,0.0,0.0,0.0,0.0,0.0,0.0,0.0,0.0,0.0,0.0,0.0,0.0,0.0,0.0,0.0,0.0,0.0,0.0,0.0,0.0,0.0,0.0,0.0,0.0,0.0162,0.0573,0.0909,0.1222,0.127,0.1249,0.1224,0.1152,0.1098,0.1103,0.0,0.0,0.0,0.0,0.0,0.0,0.0,0.0,0.0,0.0,0.0,0.0,0.0,0.0,0.0,0.0,0.0,0.0,0.0,0.0,0.0,0.0,0.0,0.0,0.0,0.0,0.0,0.0,0.0,0.0,0.0,0.0,0.0,0.0,0.0,0.0,0.0,0.0,0.0,0.0,0.0,0.0,0.0,0.0,0.0,0.0,0.0,0.0,0.0,0.0,0.0,0.0,0.0,0.0,0.0,0.0,0.0,0.0,0.0,0.0,0.0,0.0,0.0,0.0,0.0,0.0,0.0,0.0,0.0,0.0,0.0,0.0,0.0,0.0,0.0,0.0,0.0,0.0,0.0,0.0,0.0,0.0,0.0,0.0,0.0,0.0,0.0,0.0,0.0,0.0,0.0,0.0,0.0,0.0,0.0,0.0,0.0,0.0,0.0,0.0,0.0,0.0,-0.009,0.0328,0.0699,0.1095,0.1153,0.1129,0.1056,0.1065,0.1071,0.1077,0.0,0.0,0.0,0.0,0.0,0.0,0.0,0.0,0.0,0.0,0.0,0.0,0.0,0.0,0.0,0.0,0.0,0.0,0.0,0.0,0.0,0.0,0.0,0.0,0.0,0.0,0.0,0.0,0.0,0.0,0.0,0.0,0.0,0.0,0.0,0.0,0.0,0.0,0.0,0.0,0.0,0.0,0.0,0.0,0.0,0.0,0.0,0.0,0.0,0.0,0.0,0.0,0.0,0.0,0.0,0.0,0.0,0.0,0.0,0.0,-0.4979,-0.4345,0.0,0.0,0.0,0.0,0.0,0.0,0.0,0.0,0.0,0.0,0.0,0.0,0.0,0.0,0.0,0.0,0.0,0.0,0.0,0.0,0.0,0.0,0.0,0.0,0.0,0.0,0.0,0.0,0.0,0.0,0.0,0.0,0.0,0.0,0.0,0.0,0.0,0.0,0.0,0.0,-0.0488,-0.0073,0.0276,0.068,0.0725,0.0725,0.0702,0.0808,0.0865,0.0859,0.1005,0.0,0.0,0.0,0.0,0.0,0.0,0.0,0.0,0.0,0.0,0.0,0.0,0.0,0.0,0.0,0.0,0.0,0.0,0.0,0.0,0.0,0.0,0.0,0.0,0.0,0.0,0.0,0.0,0.0,0.0,0.0,0.0,0.0,0.0,0.0,0.0,0.0,0.0,0.0,0.0,0.0,0.0,0.0,0.0,0.0,0.0,0.0,0.0,0.0,0.0,0.0,0.0,0.0,0.0,0.0,0.0,0.0,0.0,0.0,-0.6081,-0.5319,0.0,0.0,0.0,0.0,0.0,0.0,0.0,0.0,0.0,0.0,0.0,0.0,0.0,0.0,0.0,0.0,0.0,0.0,0.0,0.0,0.0,0.0,0.0,0.0,0.0,0.0,0.0,0.0,0.0,0.0,0.0,0.0,0.0,0.0,0.0,0.0,0.0,0.0,0.0,0.0,-0.0765,-0.0416,-0.0091,0.0274,0.031,0.0305,0.031,0.0458,0.0556,0.0556,0.0809,0.0,0.0,0.0,0.0,0.0,0.0,0.0,0.0,0.0,0.0,0.0,0.0,0.0,0.0,0.0,0.0,0.0,0.0,0.0,0.0,0.0,0.0,0.0,0.0,0.0,0.0,0.0,0.0,0.0,0.0,0.0,0.0,0.0,0.0,0.0,0.0,0.0,0.0,0.0,0.0,0.0,0.0,0.0,0.0,0.0,0.0,0.0,0.0,0.0,0.0,0.0,0.0,0.0,-1.1461,-1.1208,-1.0532,-1.0525,-1.0127,-0.9391,-0.7851,-0.6937,-0.6481,-0.6,0.0,0.0,0.0,0.0,0.0,0.0,0.0,0.0,0.0,0.0,0.0,0.0,0.0,0.0,0.0,0.0,0.0,0.0,0.0,0.0,0.0,0.0,-0.4314,-0.443,-0.4594,-0.4669,-0.4432,0.0,0.0,0.0,0.0,0.0,0.0,0.0,0.0,0.0,0.0,0.0,-0.1158,-0.0881,-0.065,-0.0336,-0.0288,-0.0285,-0.0236,-0.005,0.0084,0.0152,0.0472,0.0674,0.0,0.0,0.0,0.0,0.0,0.0,0.0,0.0,0.0,0.0,0.0,0.0,0.0,0.0,0.0,0.0,0.0,0.0,0.0,0.0,0.0,0.0,0.0,0.0,0.0,0.0,0.0,0.0,0.0,0.0,0.0,0.0,-0.9119,-0.9393,0.0,0.0,0.0,0.0,0.0,0.0,0.0,0.0,0.0,0.0,0.0,0.0,0.0,-1.1943,-1.2406,-1.2651,-1.2874,-1.3132,-1.3333,-1.3286,-1.3039,-1.3027,-1.2733,-1.2151,-1.1756,0.0,-0.8158,-0.7845,0.0,0.0,0.0,0.0,0.0,0.0,0.0,0.0,0.0,0.0,0.0,0.0,0.0,0.0,0.0,0.0,0.0,0.0,0.0,0.0,0.0,0.0,-0.5458,-0.5427,-0.5567,-0.5685,-0.5534,-0.4975,-0.4582,-0.4697,-0.4257,-0.3878,0.0,0.0,0.0,0.0,0.0,0.0,-0.2141,-0.1923,-0.1726,-0.1503,-0.147,-0.1389,-0.1149,-0.0992,-0.0773,-0.042,-0.0084,0.0185,0.0354,0.0487,0.0,0.0,0.0,0.0,0.0,0.0,0.0,0.0,0.0,0.0,0.0,0.0,0.0,0.0,0.0,0.0,0.0,0.0,0.0,0.0,0.0,0.0,0.0,0.0,0.0,0.0,0.0,0.0,0.0,-0.9823,-1.0256,-1.0367,-1.0265,-1.0031,0.0,0.0,0.0,0.0,0.0,0.0,0.0,0.0,0.0,-1.2619,-1.3054,-1.343,-1.375,-1.41,-1.4336,-1.4454,-1.4708,-1.4675,-1.4459,-1.4468,-1.4225,-1.3814,-1.3725,-1.2981,-1.1707,-1.0263,-0.9464,-0.9076,0.0,0.0,0.0,0.0,-0.7891,-0.8122,-0.8353,-0.8568,-0.8763,-0.8871,0.0,0.0,0.0,0.0,0.0,0.0,0.0,-0.6535,-0.6485,-0.6621,-0.6733,-0.6555,-0.669,-0.6766,-0.6446,-0.5998,-0.552,-0.5012,-0.4605,-0.4275,-0.4045,-0.3754,0.0,0.0,0.0,-0.2875,-0.2557,-0.2452,-0.231,-0.2112,-0.2055,-0.199,-0.1865,-0.1663,-0.1479,-0.1294,-0.0874,-0.0572,-0.0488,-0.0219,-0.0067,0.0,0.0,0.0,0.0,0.0,0.0,0.0,0.0,0.0,0.0,0.0,0.0,0.0,0.0,0.0,0.0,0.0,0.0,0.0,0.0,0.0,0.0,0.0,0.0,0.0,0.0,0.0,0.0,-1.0981,-1.1474,-1.1752,-1.1717,-1.1511,0.0,0.0,0.0,0.0,0.0,0.0,-1.3634,-1.387,-1.4181,-1.4608,-1.4939,-1.5174,-1.5332,-1.5664,-1.585,-1.585,-1.6025,-1.6022,-1.584,-1.5894,-1.5743,-1.5467,-1.5467,-1.5341,-1.4976,-1.2611,-1.154,-1.1317,-1.0496,-1.0127,-1.0005,-1.0023,-1.0172,-1.0415,-1.0599,-1.0765,-1.0923,-1.1054,-1.0809,-1.0366,-1.0091,0.0,0.0,0.0,0.0,-0.8259,-0.8155,-0.812,-0.8045,-0.781,-0.7833,-0.7769,-0.7299,-0.7014,-0.6537,-0.5434,-0.5004,-0.4697,-0.4324,-0.4077,0.0,-0.3481,-0.3423,-0.3358,-0.314,-0.3101,-0.3059,-0.2908,-0.2847,-0.2784,-0.2715,-0.2466,-0.2259,-0.216,-0.1682,-0.1372,-0.1311,-0.0975,-0.0826,-0.0899,0.0,0.0,0.0,0.0,0.0,0.0,0.0,0.0,0.0,0.0,0.0,0.0,0.0,0.0,0.0,0.0,0.0,0.0,0.0,0.0,0.0,0.0,0.0,0.0,0.0,0.0,0.0,0.0,0.0,-1.3744,-1.3614,0.0,0.0,0.0,0.0,-1.3553,-1.4061,-1.4685,-1.5421,-1.5901,-1.6264,-1.6552,-1.7257,-1.7616,-1.7628,-1.7588,-1.7568,-1.7568,-1.7579,-1.7591,-1.7591,-1.7755,-1.7744,-1.7548,-1.7548,-1.7411,-1.6959,-1.4621,-1.3268,-1.266,-1.2218,-1.1786,-1.1453,-1.1826,-1.198,-1.2032,-1.2368,-1.2343,-1.22,-1.2209,-1.1831,-1.1293,-1.1099,-1.0781,0.0,0.0,-1.0375,-1.0151,-1.0077,-0.9797,-0.9475,-0.9323,-0.8967,-0.8541,-0.8131,-0.7924,-0.7447,-0.6115,-0.5432,-0.4982,-0.4721,0.0,-0.4231,-0.4076,-0.4057,-0.4095,-0.4194,-0.4213,-0.4218,-0.4209,-0.4209,-0.4092,-0.384,-0.3569,-0.3263,-0.2868,-0.2461,-0.2124,-0.1869,-0.1665,-0.1701,-0.2005,-0.2025,0.0,0.0,0.0,0.0,0.0,0.0,0.0,0.0,0.0,0.0,0.0,0.0,0.0,0.0,0.0,0.0,0.0,0.0,0.0,0.0,0.0,0.0,0.0,0.0,0.0,0.0,0.0,0.0,-1.4866,-1.5035,0.0,-1.4881,-1.4903,-1.5142,-1.5589,-1.6295,-1.6963,-1.7565,-1.7873,-1.8066,-1.8171,-1.8344,-1.8432,-1.8432,-1.8432,-1.8319,-1.8159,-1.8159,-1.8079,-1.7908,-1.7967,-1.7956,-1.7908,-1.7908,-1.7819,-1.7662,-1.6722,-1.5979,-1.5477,-1.5147,-1.4817,-1.4538,-1.4685,-1.4641,-1.4494,-1.4612,-1.4612,-1.4477,-1.4013,-1.3562,-1.309,-1.2555,-1.22,-1.2011,-1.1996,-1.1791,-1.1567,-1.1447,-1.1343,-1.1238,-1.1056,-1.0815,-1.0527,-1.0072,-0.9714,-0.9248,-0.8337,-0.7124,-0.616,-0.585,-0.5567,-0.534,-0.5149,-0.4899,-0.4723,-0.4698,-0.4575,-0.4467,-0.4375,-0.4332,-0.426,-0.4161,-0.3985,-0.3822,-0.3683,-0.3464,-0.3287,-0.3186,-0.2988,-0.2949,-0.3067,-0.3118,-0.3176,0.0,0.0,0.0,0.0,0.0,0.0,0.0,0.0,0.0,0.0,0.0,0.0,0.0,0.0,0.0,0.0,0.0,0.0,0.0,0.0,0.0,0.0,0.0,0.0,0.0,-1.4364,-1.562,-1.6223,-1.6638,-1.6767,-1.6585,-1.673,-1.702,-1.7467,-1.8101,-1.8645,-1.906,-1.931,-1.9449,-1.9449,-1.943,-1.9435,-1.9435,-1.9342,-1.9179,-1.889,-1.8797,-1.8611,-1.8355,-1.8355,-1.8355,-1.8355,-1.8355,-1.8355,-1.8343,-1.8212,-1.7976,-1.7668,-1.7046,-1.6681,-1.6452,-1.6452,-1.6252,-1.6023,-1.5972,-1.5937,-1.5829,-1.5135,-1.4788,-1.4472,-1.3812,-1.3521,-1.3393,-1.3239,-1.2993,-1.2753,-1.2643,-1.2536,-1.2386,-1.2275,-1.2078,-1.1848,-1.1554,-1.1198,-1.0795,-1.0318,-0.8881,-0.7565,-0.7088,-0.6866,-0.6624,-0.6291,-0.5907,-0.5608,-0.5529,-0.5273,-0.5077,-0.4978,-0.4845,-0.4765,-0.4765,-0.4558,-0.4407,-0.4315,-0.4161,-0.4036,-0.3966,-0.384,-0.383,-0.3971,-0.4164,-0.4272,-0.4272,0.0,0.0,0.0,0.0,0.0,0.0,0.0,0.0,0.0,0.0,0.0,0.0,0.0,0.0,0.0,0.0,0.0,0.0,0.0,0.0,0.0,0.0,0.0,-1.4364,-1.5753,-1.7068,-1.7871,-1.8439,-1.8766,-1.8766,-1.8722,-1.8862,-1.9128,-1.9382,-1.9648,-1.9893,-2.018,-2.0325,-2.0325,-2.0602,-2.0735,-2.0735,-2.048,-2.0226,-1.9993,-1.9714,-1.9403,-1.9148,-1.9148,-1.9104,-1.9104,-1.9104,-1.9104,-1.9104,-1.9104,-1.9104,-1.8992,-1.78,-1.7196,-1.6944,-1.6944,-1.6754,-1.6503,-1.6292,-1.6241,-1.6132,-1.5589,-1.5418,-1.5317,-1.4786,-1.46,-1.4546,-1.4299,-1.4002,-1.3748,-1.3748,-1.3342,-1.2962,-1.2972,-1.27,-1.2457,-1.246,-1.2238,-1.2046,-1.1977,-1.0592,-0.9187,-0.8429,-0.8292,-0.8066,-0.7492,-0.7048,0.0,-0.6774,-0.641,-0.616,-0.6154,-0.5904,-0.5743,-0.5743,-0.5377,-0.5033,-0.4776,-0.4579,-0.437,-0.4181,-0.4176,-0.4348,-0.4755,-0.5201,-0.5424,-0.5424,0.0,0.0,0.0,0.0,0.0,0.0,0.0,0.0,0.0,0.0,0.0,0.0,0.0,0.0,0.0,0.0,0.0,0.0,0.0,0.0,0.0,-1.4944,-1.597,-1.5789,-1.7298,-1.8681,-1.9298,-1.966,-1.9866,-1.9866,-1.9664,-1.9664,-1.9963,-2.0047,-2.0204,-2.047,-2.0796,-2.0936,-2.0936,-2.1321,-2.1622,-2.1863,-2.1786,-2.1744,-2.1776,-2.1211,-2.081,-2.0528,-1.9799,-1.9456,-1.9456,-1.92,-1.9104,-1.9104,-1.9104,-1.9104,-1.906,-1.8725,-1.8328,-1.7935,-1.7935,-1.7607,-1.7203,-1.716,-1.6973,-1.6716,-1.6219,-1.5876,-1.5589,-1.5058,-1.4907,-1.488,-1.4799,-1.4719,-1.4638,-1.4638,-1.4385,-1.4196,-1.4379,-1.4134,-1.3877,-1.3928,-1.3672,-1.3405,-1.3241,-1.2654,-1.1839,-1.0638,-1.0138,-0.9805,-0.9633,-0.8942,-0.8428,-0.8383,-0.7796,-0.7363,-0.7273,-0.6853,-0.657,-0.657,-0.6281,-0.6093,-0.6,-0.5952,-0.586,-0.5703,-0.5784,-0.5881,-0.5995,-0.5941,-0.591,0.0,0.0,0.0,0.0,0.0,0.0,0.0,0.0,0.0,0.0,0.0,0.0,0.0,0.0,0.0,0.0,0.0,0.0,0.0,0.0,0.0,0.0,-1.6956,-1.8196,-1.838,-1.9188,-1.9938,-2.0362,-2.0543,-2.0709,-2.0847,-2.0603,-2.0573,-2.0903,-2.0916,-2.1046,-2.1346,-2.1553,-2.1794,-2.2104,-2.2345,-2.2722,-2.3222,-2.3222,-2.3276,-2.3362,-2.2673,-2.2209,-2.191,-2.0911,-2.043,-2.0399,-1.9934,-1.9711,-1.9711,-1.9584,-1.952,-1.9488,0.0,0.0,0.0,0.0,-1.7756,-1.7508,-1.7508,-1.7373,-1.7143,-1.6637,-1.64,-1.6219,-1.5568,-1.546,-1.5491,-1.5251,-1.5162,-1.514,-1.5037,-1.488,-1.4806,-1.4952,-1.4823,-1.4677,-1.4848,-1.4542,-1.4246,-1.4242,-1.3943,0.0,-1.2651,-1.1878,-1.13,-1.1116,-1.0479,-0.9999,-0.9969,-0.9433,-0.8995,-0.8776,-0.8314,-0.7971,-0.7834,-0.7519,0.0,0.0,0.0,-0.697,-0.6723,-0.6846,0.0,0.0,0.0,-0.6691,-0.6691,-0.6473,0.0,0.0,-0.589,-0.5816,0.0,0.0,0.0,0.0,0.0,0.0,0.0,0.0,0.0,0.0,0.0,0.0,0.0,0.0,0.0,0.0,-1.9056,-2.0585,-2.1452,-2.1311,-2.12,-2.1372,-2.1372,-2.1489,-2.1795,-2.1568,-2.1553,-2.1932,-2.1966,-2.2138,-2.2551,-2.2572,0.0,0.0,0.0,-2.4108,-2.4805,-2.4839,-2.4914,-2.5018,-2.4236,-2.372,-2.3412,-2.2353,-2.1821,-2.174,-2.1109,-2.0792,-2.0761,-2.0456,-2.0303,-2.0189,-1.9155,-1.8617,-1.8349,-1.7773,-1.7579,-1.7537,-1.7508,0.0,0.0,-1.6911,-1.6899,-1.6967,-1.6224,-1.6152,-1.6226,-1.5714,-1.5512,-1.5443,-1.5213,-1.5091,-1.5068,-1.5102,-1.5098,-1.5162,-1.5441,-1.5074,-1.481,-1.5032,-1.4675,-1.4299,-1.4299,-1.3421,-1.2572,-1.2177,-1.176,-1.15,-1.15,-1.1138,-1.0771,-1.0465,-1.0064,0.0,-0.9405,-0.9005,-0.8699,-0.8582,-0.8306,-0.8011,-0.7706,-0.7783,-0.7839,-0.7852,-0.7825,-0.7798,-0.7749,-0.7577,-0.7427,-0.7281,-0.6545,-0.6262,0.0,0.0,0.0,0.0,0.0,0.0,0.0,0.0,0.0,0.0,0.0,0.0,0.0,0.0,0.0,-1.9274,-2.0559,-2.1798,-2.2998,-2.3536,-2.3651,-2.3156,-2.2937,-2.2937,-2.3257,-2.2854,-2.2722,-2.3065,-2.3099,-2.3359,-2.4026,-2.4331,-2.467,-2.5075,-2.5682,-2.6218,-2.6653,-2.6937,-2.7238,-2.7488,-2.6487,0.0,-2.5563,-2.4219,-2.3309,-2.2793,-2.2404,-2.2059,-2.1803,-2.1727,-2.1589,-2.1221,-1.974,-1.9152,-1.9008,-1.82,-1.7914,-1.7843,-1.7608,-1.7508,-1.746,-1.7117,-1.7044,-1.7032,-1.6662,-1.6574,0.0,-1.6466,-1.6287,-1.6108,-1.606,-1.5731,-1.5448,-1.5686,-1.5691,-1.5704,-1.5995,-1.579,-1.5563,-1.5647,-1.5213,-1.4853,-1.4853,-1.4083,-1.3449,-1.3355,-1.2965,-1.2657,-1.2657,-1.2261,-1.198,-1.1904,-1.1448,-1.1114,-1.1029,-1.0632,-1.0336,-1.0326,-0.9959,-0.9868,-1.0109,-0.9998,-0.9976,-1.0078,-0.988,-0.963,-0.9348,-0.8895,-0.8671,-0.8614,-0.7444,-0.6845,0.0,0.0,0.0,0.0,0.0,0.0,0.0,0.0,0.0,0.0,0.0,-1.6664,-1.7565,0.0,-1.9707,-2.0969,-2.2192,-2.3278,-2.4256,-2.5213,-2.546,-2.4519,-2.4345,-2.4514,-2.505,-2.4561,-2.4436,-2.5018,-2.4873,-2.509,-2.5816,-2.6017,-2.6419,-2.712,-2.7518,-2.7949,-2.8493,-2.8674,-2.8937,-2.9282,-2.8192,-2.7584,-2.7392,-2.5948,-2.5133,-2.4764,-2.4301,-2.3915,-2.3589,-2.3247,-2.3113,-2.3059,-2.2081,-2.1124,-2.0234,-1.9625,-1.9311,-1.909,-1.861,-1.8336,-1.8113,-1.7675,-1.7564,-1.751,-1.7228,-1.7126,-1.7068,-1.6936,-1.6791,-1.6658,-1.6525,-1.6282,-1.6113,-1.6271,-1.6263,-1.628,-1.641,-1.6243,-1.6002,-1.5874,-1.5505,-1.5151,-1.5037,-1.4738,-1.4456,-1.4191,-1.3831,-1.3608,-1.3608,-1.3397,-1.3193,-1.3008,-1.266,-1.2408,-1.2251,-1.1929,-1.1687,-1.1559,-1.1363,-1.1269,-1.1346,-1.1254,-1.1214,-1.1286,-1.1098,-1.0984,-1.0946,-1.0609,-1.0346,-1.0131,-0.9501,-0.8635,0.0,0.0,0.0,0.0,0.0,0.0,0.0,0.0,-1.6819,-1.6819,-1.7874,-1.9,-1.968,-2.0515,-2.1461,-2.2508,-2.3628,-2.4707,-2.5538,-2.6532,-2.6924,-2.6198,-2.6006,-2.6206,-2.6864,-2.6339,-2.6246,-2.7031,-2.6721,-2.6869,-2.7667,-2.77,-2.813,-2.9069,-2.9168,-2.9463,-3.0018,-3.0065,-3.0278,-3.0588,-2.957,-2.9024,-2.8842,-2.7589,-2.6895,-2.6675,-2.6128,-2.5764,-2.5552,-2.5013,-2.4951,-2.5166,-2.4879,-2.3808,-2.2316,-2.1539,-2.1016,-2.0596,-2.0066,-1.9658,-1.9294,-1.871,-1.8548,-1.8483,-1.8139,-1.7935,-1.7794,-1.7499,-1.7344,-1.7201,-1.6984,-1.6851,-1.6791,-1.6839,-1.6815,-1.6791,-1.6839,-1.6645,-1.6397,-1.6196,-1.588,-1.5583,-1.536,-1.5459,-1.5395,-1.4846,-1.4581,-1.4418,-1.4418,-1.4386,-1.4245,-1.3964,-1.3768,-1.3498,-1.3182,-1.3018,-1.2802,-1.2555,-1.2519,-1.2462,-1.2268,-1.2317,-1.233,-1.2316,-1.2333,-1.2407,-1.2577,-1.2469,-1.2231,-1.1926,-1.1754,-1.0656,-1.3788,-1.4429,-1.519,-1.5802,-1.6166,-1.642,0.0,-1.7556,-1.8596,-1.8596,-2.0,-2.1307,-2.1555,-2.2302,-2.3138,-2.3864,-2.4597,-2.5597,-2.7027,-2.7676,-2.8295,-2.9193,-2.844,-2.8071,-2.8511,-2.7881,-2.7761,-2.8505,-2.8178,-2.8411,-2.9445,-2.9511,-2.9724,-3.0198,-3.0523,-3.0717,-3.0782,-3.1055,-3.1249,-3.1281,-3.081,-3.022,-2.9578,-2.9036,-2.8278,-2.7371,-2.6995,-2.7031,-2.7319,-2.7227,-2.7227,-2.7258,-2.7207,-2.6847,-2.608,-2.3783,-2.2587,-2.2036,-2.1663,-2.1304,-2.096,-2.0621,-2.0471,-2.0378,-1.9749,-1.9339,-1.9031,-1.8702,-1.8215,-1.781,-1.7774,-1.7394,-1.7105,-1.7334,-1.7213,-1.7117,-1.7346,-1.7213,-1.7004,-1.6979,-1.673,-1.6562,-1.6498,-1.6354,-1.6004,-1.5407,-1.529,-1.5263,-1.5263,-1.507,-1.4907,-1.4853,-1.4605,-1.4265,-1.3757,-1.3688,-1.3591,-1.3388,-1.3378,-1.3437,-1.3588,-1.3811,-1.3904,-1.3857,-1.4309,-1.4435,-1.423,-1.4233,-1.4197,-1.4104,-1.3364,-1.1994,-1.5276,-1.5752,-1.6339,-1.7114,-1.7782,-1.8343,-1.8677,-1.9773,-2.077,-2.1018,-2.2054,-2.314,-2.3839,-2.4412,-2.5074,-2.5983,-2.6561,-2.7265,-2.834,-2.9033,-2.9595,-3.0038,-2.9885,-2.9849,-2.9999,-2.9563,-2.9479,-2.998,-2.9686,-2.9774,-3.0408,-3.044,-3.0602,-3.0976,-3.112,-3.1184,-3.1184,-3.1313,-3.141,-3.141,-3.0974,-3.0636,-3.0328,-2.9914,-2.9518,-2.9062,-2.8724,-2.8659,-2.88,-2.8601,-2.8663,-2.8831,-2.8831,-2.8712,-2.8281,-2.5973,-2.4838,-2.4384,-2.3895,-2.3367,-2.2886,-2.2572,-2.2125,-2.1616,-2.1346,-2.0758,-2.0093,-1.9759,-1.9347,-1.8955,-1.8774,-1.8539,-1.8372,-1.8286,-1.8165,-1.8056,-1.7986,-1.7865,-1.7696,-1.7382,-1.7237,-1.7056,-1.6754,-1.6742,-1.6689,-1.6428,-1.5979,-1.5624,-1.5624,-1.5532,-1.5475,-1.5475,-1.5353,-1.5198,-1.4987,-1.4826,-1.4759,-1.4831,-1.4696,-1.4703,-1.4948,-1.506,-1.5133,-1.5093,-1.5305,-1.5456,-1.5497,-1.5497,-1.5477,-1.5435,-1.5056,-1.4346,-1.6524,-1.6844,-1.7275,-1.8263,-1.9132,-1.991,-2.0468,-2.1376,-2.2243,-2.2739,-2.3487,-2.4317,-2.5293,-2.5794,-2.6327,-2.7209,-2.787,-2.853,-2.926,-2.9844,-3.0241,-3.0425,-3.0526,-3.0659,-3.0833,-3.0577,-3.0557,-3.0976,-3.0737,-3.0685,-3.1041,-3.1041,-3.1152,-3.1377,-3.141,-3.141,-3.141,-3.141,-3.141,-3.141,-3.1084,-3.0901,-3.0772,-3.0387,-3.0204,-3.0204,-2.9937,-2.9899,-2.9976,-2.9726,-2.9789,-3.0008,-3.0008,-2.9935,-2.9648,-2.8075,-2.7194,-2.6683,-2.6233,-2.5739,-2.5203,-2.4916,-2.4354,-2.3748,-2.3475,-2.2805,-2.2039,-2.153,-2.1029,-2.0636,-2.0297,-2.0086,-1.9876,-1.9553,-1.9336,-1.9102,-1.8686,-1.8502,-1.8301,-1.781,-1.7708,-1.7587,-1.7201,-1.7298,-1.7394,-1.7322,-1.6795,-1.6332,-1.6181,-1.6083,-1.6009,-1.5952,-1.5952,-1.5896,-1.5812,-1.5612,-1.5589,-1.5789,-1.5612,-1.5589,-1.58,-1.588,-1.5915,-1.5915,-1.6069,-1.6224,-1.642,-1.6507,-1.6541,-1.6478,-1.639,-1.6212,-1.7374,-1.7713,-1.8263,-1.9452,-2.0201,-2.082,-2.1408,-2.1977,-2.2606,-2.3309,-2.3946,-2.4592,-2.528,-2.5943,-2.6514,-2.6935,-2.7958,-2.8956,-2.9661,-2.9746,-3.0005,-3.0717,-3.0162,-3.0013,-3.0746,-3.052,-3.0585,-3.134,-3.1063,-3.1041,-3.1377,-3.1377,-3.1377,-3.141,-3.141,-3.141,-3.141,-3.141,-3.141,-3.141,-3.1391,-3.1189,-3.0772,-3.0387,-3.0204,-3.0204,-3.0204,-3.0424,-3.0772,-3.0772,-3.0772,-3.0772,-3.0772,-3.0534,-3.0173,-3.0105,-2.9466,-2.8605,-2.8588,-2.84,-2.8117,-2.7786,-2.7643,-2.7453,-2.6391,-2.5817,-2.5337,-2.4354,-2.3571,-2.2911,-2.2592,-2.2062,-2.1553,-2.1214,-2.0689,-2.0062,-1.9407,-1.901,-1.8674,-1.8337,-1.8263,-1.8263,-1.8251,-1.8251,-1.8197,-1.7919,-1.7841,-1.7648,-1.7112,-1.6835,-1.6554,-1.6301,-1.6273,-1.6149,-1.5828,-1.58,-1.58,-1.58,-1.58,-1.58,-1.58,-1.6052,-1.6189,-1.6189,-1.6693,-1.6979,-1.6979,-1.7303,-1.7449,-1.7449,-1.7109,-1.6961,-1.7998,-1.8536,-1.9158,-2.0134,-2.0962,-2.1741,-2.2374,-2.2984,-2.3673,-2.4617,-2.4742,-2.5022,-2.6158,-2.6611,-2.705,-2.788,-2.9008,-2.9933,-3.0406,-3.0667,-3.071,-3.0429,-3.0164,-3.0116,-3.0387,-3.0533,-3.0837,-3.1366,-3.1289,-3.1281,-3.1377,-3.141,-3.141,-3.141,-3.141,-3.141,-3.141,-3.141,-3.141,-3.141,-3.141,-3.1336,-3.1208,-3.1079,-3.1006,-3.1006,-3.1006,-3.1047,-3.1208,-3.1208,-3.1208,-3.1208,-3.1208,-3.1134,-3.1006,-3.1006,-3.0783,-3.0424,-2.9869,-2.9502,-2.9204,-2.911,-2.8766,-2.8326,-2.7963,-2.7489,-2.6965,-2.6424,-2.5913,-2.5468,-2.5149,-2.4694,-2.421,-2.364,-2.2995,-2.2161,-2.1023,-2.0368,-1.9776,-1.8969,-1.8705,-1.8505,-1.8324,-1.83,-1.8263,-1.8167,-1.7841,-1.7581,-1.7399,-1.7303,-1.7184,-1.7098,-1.7098,-1.704,-1.6953,-1.677,-1.6734,-1.6912,-1.6758,-1.6746,-1.6912,-1.7007,-1.7066,-1.7066,-1.7237,-1.7344,-1.7344,-1.7449,-1.7508,-1.7508,-1.7373,-1.7344,-1.8755,-1.9388,-2.007,-2.0953,-2.1643,-2.2324,-2.2981,-2.3343,-2.3832,-2.4898,-2.4645,-2.4636,-2.5839,-2.6369,-2.6873,-2.7761,-2.9123,-3.0189,-3.0567,-3.0944,-3.0997,-3.0466,-3.0296,-3.0259,-3.0406,-3.0644,-3.0956,-3.1373,-3.141,-3.141,-3.141,-3.141,-3.141,-3.141,-3.141,-3.141,-3.141,-3.141,-3.141,-3.141,-3.141,-3.141,-3.141,-3.141,-3.141,-3.141,-3.141,-3.141,-3.141,-3.141,-3.141,-3.141,-3.141,-3.141,-3.141,-3.141,-3.141,-3.1336,-3.0791,-3.0482,-3.0324,-3.0324,-3.0041,-2.9661,-2.9535,-2.9217,-2.8818,-2.8322,-2.795,-2.7609,-2.729,-2.6904,-2.6455,-2.5752,-2.5045,-2.4139,-2.2738,-2.185,-2.1026,-1.9983,-1.9519,-1.9183,-1.879,-1.8553,-1.8432,-1.8432,-1.8058,-1.7732,-1.7665,-1.7569,-1.7508,-1.7508,-1.7508,-1.7508,-1.7508,-1.7334,-1.7327,-1.7508,-1.7351,-1.731,-1.7479,-1.7508,-1.7508,-1.7508,-1.7508,-1.7508,-1.7508,-1.7508,-1.7508,-1.7508,-1.7508,-1.7508,-1.9659,-2.0264,-2.098,-2.179,-2.2218,-2.262,-2.3262,-2.3158,-2.3192,-2.4177,-2.3775,-2.3515,0.0,0.0,-2.5927,-2.6604,-2.8355,-2.9792,-3.0208,-3.0619,-3.0846,0.0,0.0,0.0,0.0,0.0,-3.1043,-3.1446,-3.1446,-3.1446,-3.1446,-3.1446,-3.1446,-3.1446,-3.1428,-3.1428,-3.1446,-3.1465,-3.1465,-3.1446,-3.1446,-3.1428,-3.141,-3.141,-3.141,-3.141,-3.141,-3.141,-3.141,-3.1428,-3.1446,-3.1446,-3.1465,-3.1465,-3.1465,-3.1465,-3.1465,-3.1465,-3.1465,-3.1446,-3.141,-3.141,-3.141,-3.1345,-3.1041,-3.0944,-3.0782,-3.0083,-2.9658,-2.9331,-2.9025,-2.8685,-2.8269,-2.7524,-2.6807,-2.5943,-2.4523,-2.3416,-2.2413,-2.1323,-2.0747,-2.0261,-1.9662,-1.9124,-1.8753,-1.8753,-1.8493,-1.8215,-1.7955,-1.7689,-1.7532,-1.7532,-1.752,-1.7508,-1.7508,-1.7508,-1.7508,-1.7508,-1.7508,-1.7508,-1.7508,-1.7508,-1.7508,-1.7508,-1.7508,-1.7508,-1.7508,-1.7508,-1.7508,-1.7508,-1.7508,-1.7508,-2.0561,-2.1195,-2.175,-2.2191,-2.2532,-2.2887,-2.3361,-2.3379,-2.3448,-2.4102,-2.3391,-2.2812,-2.3386,-2.3931,-2.4513,-2.5203,-2.7484,-2.9313,-2.9715,-3.0874,0.0,-3.13,0.0,-3.1579,-3.1689,-3.1689,-3.1854,-3.2258,-3.2019,-3.1854,-3.1854,-3.1854,-3.1854,-3.1854,-3.1575,-3.1524,-3.1836,-3.2129,-3.2129,-3.1854,-3.1854,-3.1689,-3.141,-3.141,-3.141,-3.141,-3.141,-3.141,-3.1428,-3.1726,-3.1854,-3.1873,-3.2166,-3.2276,-3.2276,-3.2276,-3.2276,-3.2276,-3.2276,-3.1891,-3.141,-3.141,-3.141,-3.1377,-3.1313,-3.1281,-3.1216,-3.1055,-3.0918,-3.0846,-3.0781,-3.0484,-3.0059,-2.9332,-2.8601,-2.7654,-2.5973,-2.5029,-2.414,-2.2745,-2.1806,-2.102,-2.0282,-1.9875,-1.9588,-1.933,-1.8911,-1.8493,-1.8215,-1.798,-1.7798,-1.7798,-1.7629,-1.7508,-1.7508,-1.7508,-1.7508,-1.7508,-1.7508,-1.7508,-1.7508,-1.7508,-1.7508,-1.7508,-1.7508,-1.7508,-1.7508,-1.7508,-1.7508,-1.7508,-1.7508,-1.7508,-2.1344,-2.1827,-2.2251,-2.2546,-2.2759,-2.2967,-2.3177,-2.2928,-2.2693,-2.2846,-2.197,-2.1295,-2.1698,-2.2306,-2.3208,0.0,0.0,0.0,-2.9709,-3.1102,-3.1928,0.0,-3.2019,0.0,-3.2258,-3.2258,-3.2349,-3.257,-3.2386,-3.2258,-3.2258,-3.2258,-3.2184,-3.2019,-3.1781,-3.1763,-3.2001,-3.2404,-3.2478,-3.2258,-3.2258,-3.2148,-3.1942,-3.1942,-3.1942,-3.1942,-3.1942,-3.1942,-3.1928,-3.2166,-3.2258,-3.2294,-3.2514,-3.2588,-3.2588,-3.2588,-3.2588,-3.2588,-3.2588,-3.2294,-3.1942,-3.1942,-3.1942,-3.1942,-3.1942,-3.1942,-3.1873,-3.1708,-3.1653,-3.1616,-3.1465,-3.1249,-3.0958,-3.0408,-2.9855,-2.9102,-2.7766,-2.6893,-2.5825,-2.419,-2.3067,-2.2131,-2.1445,-2.0816,-2.033,-1.9936,-1.9419,-1.9007,-1.8862,-1.8403,-1.8088,-1.8088,-1.7925,-1.7793,-1.7689,-1.7689,-1.7641,-1.752,-1.7508,-1.7508,-1.7508,-1.7508,-1.7508,-1.7508,-1.7508,-1.7508,-1.7508,-1.7508,-1.7508,-1.7508,-1.7508,-1.7508,-2.1963,-2.2258,-2.2539,-2.2754,-2.2833,-2.2818,-2.2706,-2.2116,-2.149,-2.11,-2.0224,-1.9601,-1.9874,-2.0674,-2.1957,-2.4054,0.0,-2.8105,-2.9654,-3.1011,-3.1891,-3.2001,-3.2404,-3.2698,-3.2753,-3.2753,-3.2753,-3.2753,-3.2753,-3.2735,-3.268,-3.268,-3.2496,-3.2093,-3.2093,-3.2111,-3.2166,-3.257,-3.2735,-3.268,-3.268,-3.2643,-3.2588,-3.2588,-3.2588,-3.2588,-3.2588,-3.2588,-3.2606,-3.2661,-3.268,-3.268,-3.2735,-3.2753,-3.2753,-3.2753,-3.2753,-3.2753,-3.2753,-3.2753,-3.2735,-3.2625,-3.2588,-3.2588,-3.2588,-3.2588,-3.2533,-3.2184,-3.2093,-3.2001,-3.1634,-3.1575,-3.146,-3.1067,-3.0724,-3.0251,-2.9513,-2.8576,-2.7335,-2.5682,-2.4573,-2.3666,-2.2822,-2.1844,-2.103,-2.053,-1.9931,-1.9551,-1.9551,-1.8862,-1.8348,-1.8348,-1.8312,-1.8221,-1.798,-1.7955,-1.7859,-1.7612,-1.7617,-1.7605,-1.7569,-1.7569,-1.7544,-1.7508,-1.7544,-1.7569,-1.7569,-1.7605,-1.7617,-1.7617,-1.7617,-1.7617,-2.2311,-2.2565,-2.276,-2.2552,-2.2483,-2.2324,-2.1715,-2.1306,0.0,-2.0258,-1.954,-1.9012,-1.8953,-1.9871,-2.1006,-2.2075,-2.4519,-2.6747,-2.8032,-2.9849,-3.1249,0.0,-3.2661,-3.3248,-3.3578,-3.3596,-3.3596,-3.3596,-3.3596,-3.345,-3.3104,-3.312,-3.2918,-3.2496,-3.2496,-3.2661,-3.2976,-3.3395,-3.3397,-3.312,-3.312,-3.2936,-3.2588,-3.2588,-3.2588,-3.2588,-3.2588,-3.2588,-3.2625,-3.2973,-3.312,-3.3104,-3.3468,-3.3596,-3.3596,-3.3596,-3.3596,-3.3596,-3.3596,-3.3596,-3.3486,-3.2808,-3.2588,-3.2588,-3.2588,-3.2588,-3.2588,-3.2514,-3.2496,-3.2478,-3.2404,-3.2386,-3.2228,-3.157,-3.1348,-3.0996,-2.9957,-2.9118,-2.8345,-2.7401,-2.6606,-2.5558,-2.3936,-2.2876,-2.1882,-2.0871,-2.0212,-1.9842,-1.9842,-1.914,-1.8613,-1.8613,-1.842,-1.8275,-1.8227,-1.8215,-1.8203,-1.8155,-1.8155,-1.8046,-1.7847,-1.7835,-1.7738,-1.7491,-1.7726,-1.7835,-1.7835,-1.8046,-1.8155,-1.8155,-1.8155,-1.8155,-2.2605,-2.2786,-2.282,-2.2532,-2.2424,-2.2086,-2.0949,0.0,0.0,-1.8614,-1.8179,-1.7966,-1.7789,-1.8906,-2.028,-2.1485,-2.3767,-2.5939,-2.7573,-2.9372,-3.0864,-3.1891,-3.2701,-3.3342,-3.378,-3.3817,-3.3817,-3.3817,-3.3817,-3.3725,-3.3507,-3.3306,-3.3104,-3.2936,-3.2918,-3.2994,-3.3196,-3.3615,-3.3725,-3.3489,-3.3489,-3.3431,-3.323,-3.323,-3.323,-3.323,-3.323,-3.334,-3.3541,-3.3762,-3.3963,-3.4148,-3.4331,-3.4405,-3.4386,-3.4202,-3.411,-3.4092,-3.389,-3.3817,-3.3743,-3.3358,-3.323,-3.323,-3.323,-3.323,-3.3193,-3.2973,-3.2918,-3.2863,-3.2643,-3.2588,-3.2518,-3.215,-3.1917,-3.1552,-3.0829,-3.0256,-2.9626,-2.8708,-2.8097,-2.7153,-2.536,-2.4217,-2.3072,-2.1761,-2.09,-2.0322,-2.012,-1.966,-1.9285,-1.914,-1.8886,-1.865,-1.8505,-1.8493,-1.8444,-1.83,-1.83,-1.8227,-1.8094,-1.8125,-1.8064,-1.7913,-1.8022,-1.8125,-1.8125,-1.8227,-1.83,-1.83,-1.83,-1.83,-2.2706,-2.2853,-2.2828,-2.2489,-2.2349,-2.1876,-2.0249,-1.9678,0.0,-1.7138,-1.6902,-1.6971,-1.6852,-1.8009,-1.948,0.0,-2.2991,-2.5009,-2.7022,-2.8692,-3.0242,-3.1644,-3.2604,0.0,-3.3737,-3.3935,-3.4024,-3.3921,-3.3921,-3.3886,-3.3817,-3.3397,-3.3232,-3.3306,-3.3232,-3.3232,-3.3306,-3.3617,-3.3817,-3.3817,-3.3817,-3.3817,-3.3817,-3.3817,-3.3817,-3.3817,-3.3908,-3.411,-3.4403,-3.4495,-3.4698,-3.4991,-3.4991,-3.4991,-3.4936,-3.455,-3.4403,-3.4348,-3.3945,-3.3817,-3.3817,-3.3817,-3.3817,-3.3817,-3.3817,-3.3817,-3.3709,-3.3397,-3.3324,-3.3266,-3.2936,-3.2863,-3.2826,-3.2753,-3.2423,-3.2063,-3.1784,-3.1498,-3.0965,-2.9961,-2.9419,-2.856,-2.6751,-2.5412,-2.4094,-2.2654,-2.1547,-2.0761,-2.0432,-2.0168,-1.9881,-1.9697,-1.9443,-1.9201,-1.8995,-1.8891,-1.879,-1.8553,-1.8493,-1.8432,-1.8384,-1.8384,-1.8348,-1.83,-1.8348,-1.8384,-1.8384,-1.8432,-1.8456,-1.8456,-1.8456,-1.8456,-2.2311,-2.2659,-2.276,-2.2204,-2.1992,-2.1452,-1.9554,0.0,-1.8489,-1.6719,-1.6361,-1.643,-1.6611,-1.7354,-1.8396,-1.9823,-2.1502,-2.333,-2.5403,-2.7163,-2.8945,-3.0962,0.0,0.0,-3.3669,-3.4352,-3.4681,-3.437,-3.4336,-3.4198,-3.3817,-3.3397,-3.336,-3.3709,-3.3379,-3.336,-3.3762,-3.3798,-3.3817,-3.3817,-3.3817,-3.3817,-3.3817,-3.3817,-3.3817,-3.3835,-3.4202,-3.4367,-3.444,-3.4771,-3.4954,-3.4991,-3.4991,-3.4991,-3.4936,-3.455,-3.4403,-3.4348,-3.3945,-3.3817,-3.3817,-3.3817,-3.3817,-3.3817,-3.3817,-3.3817,-3.3798,-3.378,-3.3727,-3.3743,-3.3707,-3.3707,-3.3615,-3.3214,-3.2845,-3.2533,-3.2518,-3.2481,-3.2202,-3.1442,-3.0709,-2.9677,-2.7865,-2.6118,-2.4467,-2.3065,-2.1885,-2.1044,-2.0698,-2.0434,-2.0265,-2.0241,-1.9999,-1.9842,-1.9784,-1.9576,-1.9418,-1.9394,-1.9165,-1.8923,-1.8662,-1.865,-1.8541,-1.83,-1.8529,-1.865,-1.865,-1.8923,-1.9032,-1.9032,-1.9032,-1.9032,-2.1897,-2.2245,-2.2298,-2.2046,-2.1639,-2.0856,-1.9094,0.0,-1.8019,-1.6,-1.5964,-1.6298,-1.6253,-1.7092,-1.819,-1.9354,-2.0942,0.0,-2.4519,-2.6196,-2.7983,-3.0079,-3.1451,-3.2483,-3.3214,-3.4044,-3.4588,-3.4696,-3.4715,-3.4543,-3.4163,-3.3773,-3.3617,-3.3798,-3.3635,-3.3651,-3.3817,-3.3817,-3.3817,-3.3817,-3.3817,-3.3817,-3.3817,-3.3817,-3.3945,-3.4183,-3.433,-3.4678,-3.5155,-3.532,-3.5486,-3.5742,-3.5742,-3.5742,-3.5632,-3.4991,-3.4734,-3.4661,-3.4037,-3.3817,-3.3817,-3.3817,-3.3817,-3.3817,-3.3817,-3.3817,-3.3817,-3.3817,-3.3817,-3.3817,-3.3817,-3.3817,-3.378,-3.3615,-3.3232,-3.2973,-3.2973,-3.2771,-3.2451,-3.1953,-3.1635,-3.0895,-2.9278,-2.806,-2.6661,-2.4727,-2.3372,-2.2223,-2.1433,-2.0851,-2.0543,-2.0543,-2.0168,-1.9881,-1.9881,-1.9817,-1.9757,-1.9757,-1.9648,-1.9479,-1.9201,-1.9189,-1.9068,-1.8802,-1.8899,-1.8947,-1.8947,-1.9056,-1.9104,-1.9104,-1.9104,-1.9104,-2.0989,-2.1403,-2.148,-2.1583,-2.1117,-2.0236,0.0,0.0,-1.7589,-1.561,-1.5582,-1.5928,-1.5891,-1.6672,-1.7716,-1.8898,0.0,-2.2048,-2.3748,-2.538,-2.7146,-2.9108,-3.0719,-3.1927,-3.2669,-3.3785,-3.4621,-3.5055,-3.5093,-3.4887,-3.4405,-3.4128,-3.3921,-3.3817,-3.3817,-3.3817,-3.3817,-3.3817,-3.3817,-3.3817,-3.3817,-3.3817,-3.3817,-3.3817,-3.4018,-3.4403,-3.4532,-3.4972,-3.5596,-3.5742,-3.5962,-3.6201,-3.6201,-3.6201,-3.6127,-3.5412,-3.5174,-3.5046,-3.4275,-3.3982,-3.3963,-3.3853,-3.3817,-3.3817,-3.3817,-3.3817,-3.3817,-3.3817,-3.3817,-3.3817,-3.3817,-3.3817,-3.3817,-3.3817,-3.3562,-3.336,-3.336,-3.3156,-3.285,-3.2471,-3.2352,-3.1824,-3.0463,-2.9422,-2.8132,-2.6129,-2.461,-2.3293,-2.213,-2.1474,-2.1046,-2.0833,-2.0483,-2.0241,-2.0122,-2.005,-2.0035,-2.0035,-1.9929,-1.983,-1.9636,-1.9624,-1.9503,-1.9225,-1.9225,-1.9189,-1.9104,-1.9104,-1.9104,-1.9104,-1.9104,-1.9152,-1.9412,-2.0027,-2.0315,-2.0634,-2.0302,-1.9617,0.0,-1.7947,-1.718,-1.5688,-1.5244,-1.5219,-1.554,-1.5942,-1.6742,-1.835,-1.9746,0.0,-2.2971,-2.4645,-2.6362,0.0,-3.0186,-3.1675,-3.2157,-3.377,-3.4994,-3.5451,-3.547,-3.5162,-3.4439,-3.4405,-3.4198,-3.3817,-3.3817,-3.3817,-3.3817,-3.3817,-3.3817,-3.3817,-3.3817,-3.3817,-3.3817,-3.3817,-3.4018,-3.4422,-3.4808,-3.5211,-3.5614,-3.6036,-3.6201,-3.6201,-3.6201,-3.6201,-3.6164,-3.576,-3.5577,-3.5504,-3.4678,-3.4403,-3.433,-3.3945,-3.3817,-3.3817,-3.3817,-3.3817,-3.3817,-3.3817,-3.3817,-3.3817,-3.3817,-3.3817,-3.3817,-3.3817,-3.3817,-3.3798,-3.3798,-3.3798,-3.3688,-3.3269,-3.2939,-3.235,-3.1212,-2.9764,-2.8321,-2.6793,-2.5335,-2.3941,-2.2765,-2.23,-2.1842,-2.1159,-2.1087,-2.0978,-2.0712,-2.0458,-2.0313,-2.0313,-2.0059,-1.9881,-1.9881,-1.9881,-1.9781,-1.9503,-1.9491,-1.937,-1.9104,-1.9104,-1.9104,-1.9104,-1.9104,-1.9249,-1.7662,-1.8224,-1.8508,-1.8903,-1.8631,-1.8127,-1.7601,-1.7136,-1.6557,-1.5598,-1.5244,-1.517,-1.5417,-1.5861,-1.6802,-1.8631,-2.0119,-2.1621,0.0,0.0,0.0,-2.7721,-3.0019,-3.2127,-3.3765,-3.4426,-3.5048,-3.5806,-3.5845,-3.5641,-3.5181,-3.5127,-3.4749,-3.3851,-3.3817,-3.3817,-3.3817,-3.3817,-3.3817,-3.3817,-3.3817,-3.3817,-3.3817,-3.3817,-3.4183,-3.4844,-3.4936,-3.5376,-3.6036,-3.6164,-3.6201,-3.6201,-3.6201,-3.6201,-3.6164,-3.576,-3.5577,-3.5467,-3.4678,-3.4403,-3.433,-3.3945,-3.3817,-3.3817,-3.3817,-3.3817,-3.3817,-3.3817,-3.3817,-3.3817,-3.3817,-3.3817,-3.3817,-3.3817,-3.3817,-3.3817,-3.3817,-3.3817,-3.378,-3.3617,-3.3511,-3.3164,-3.2312,-3.1339,-3.0097,-2.8308,-2.6564,-2.4955,-2.3481,-2.2605,-2.1929,-2.1425,-2.1208,-2.099,-2.0724,-2.0628,-2.0579,-2.0579,-2.0495,-2.0374,-2.0192,-2.0158,-2.0059,-1.9793,-1.9748,-1.9745,-1.966,-1.966,-1.966,-1.9627,-1.9467,-1.9527,-1.5628,-1.615,-1.6416,-1.7011,-1.6831,0.0,-1.6589,-1.6286,-1.5842,-1.5387,-1.5325,-1.537,-1.5451,-1.6141,-1.718,-1.8668,-2.0197,-2.1678,-2.3105,-2.4684,-2.642,-2.8425,-3.0332,-3.2285,-3.4277,-3.4609,-3.5,-3.5723,-3.5903,-3.5845,-3.5523,-3.5523,-3.5059,-3.4059,-3.4024,-3.3955,-3.3817,-3.3817,-3.3817,-3.3817,-3.3817,-3.3817,-3.3817,-3.3817,-3.4222,-3.4991,-3.4991,-3.5449,0.0,-3.6201,-3.6201,-3.6201,-3.6201,-3.6201,-3.6182,-3.5925,-3.5852,-3.5724,-3.4917,-3.4642,-3.455,-3.4,-3.3817,-3.3817,-3.3817,-3.3817,-3.3817,-3.3817,-3.3817,-3.3817,-3.3817,-3.3817,-3.3817,-3.3817,-3.3817,-3.3817,-3.3817,-3.3817,-3.3817,-3.3817,-3.3817,-3.3573,-3.2806,-3.1947,-3.0764,-2.8979,-2.7263,-2.5614,-2.416,-2.3164,-2.2407,-2.1921,-2.1582,-2.1244,-2.0882,-2.0761,-2.07,-2.07,-2.07,-2.0628,-2.047,-2.0458,-2.0337,-2.0071,-2.0071,-1.9989,-1.9881,-1.9881,-1.9881,-1.9881,-1.9842,-1.9902,0.0,-1.3942,-1.4223,-1.5057,-1.5078,-1.5027,0.0,0.0,0.0,-1.5091,-1.5404,-1.5681,-1.56,-1.6663,-1.7789,-1.8525,-2.0138,-2.1601,-2.2459,-2.4489,-2.6967,-2.9902,-3.1016,-3.2226,-3.3938,-3.4453,-3.4883,-3.5351,-3.5781,-3.5845,-3.5557,-3.5557,-3.5196,-3.4439,-3.4439,-3.4232,-3.3817,-3.3817,-3.3817,-3.3817,-3.3817,-3.3817,-3.3817,-3.3817,-3.4222,-3.4991,-3.4991,-3.5449,-3.6201,-3.6201,-3.6201,-3.6201,-3.6201,-3.6201,-3.6201,-3.6201,-3.6201,-3.6091,-3.5266,-3.4991,-3.4863,-3.4038,-3.3817,-3.3817,-3.3853,-3.3835,-3.3817,-3.3817,-3.3817,-3.3817,-3.3817,-3.3817,-3.3817,-3.3817,-3.3835,-3.3853,-3.3853,-3.3872,-3.3908,-3.3908,-3.3908,-3.3646,-3.286,-3.1805,-3.0532,-2.8959,-2.7405,-2.5983,-2.4747,-2.3933,-2.3201,-2.2582,-2.2178,-2.174,-2.1196,-2.0894,-2.0724,-2.07,-2.07,-2.07,-2.07,-2.07,-2.0591,-2.035,-2.0337,-2.0217,-1.9975,-1.995,-1.995,-1.9953,-2.0204,-2.0325,-1.156,0.0,-1.3256,-1.3873,-1.4315,-1.4645,0.0,0.0,0.0,0.0,0.0,0.0,0.0,-1.6824,-1.8173,-1.8882,-2.078,-2.2498,-2.3379,-2.5918,-2.8437,-3.0488,-3.1484,-3.2589,-3.3977,-3.4453,-3.4883,-3.5351,-3.5781,-3.5947,-3.5879,-3.5879,-3.5538,-3.4818,-3.4784,-3.4474,-3.3817,-3.3817,-3.3817,-3.3817,-3.3817,-3.3817,-3.3817,-3.3817,-3.4222,-3.4991,-3.4991,-3.5449,-3.6201,-3.6201,-3.6201,-3.6201,-3.6201,-3.6201,-3.6201,-3.6201,-3.6201,-3.6091,-3.5266,-3.4991,-3.4863,-3.4038,-3.3817,-3.3872,-3.4165,-3.4055,-3.3817,-3.3817,-3.3817,-3.3817,-3.3817,-3.3817,-3.3817,-3.3817,-3.4037,-3.4257,-3.4257,-3.4478,-3.4716,-3.4716,-3.4716,-3.4393,-3.334,-3.2452,-3.1189,-2.9026,-2.7644,-2.6312,-2.4784,-2.4193,-2.3574,-2.288,-2.2546,-2.2178,-2.1764,-2.1281,-2.0918,-2.0712,-2.07,-2.07,-2.07,-2.07,-2.0676,-2.0616,-2.0616,-2.0579,-2.0519,-2.0313,-2.0325,-2.0519,-2.0374,-2.0422,-1.1116,-1.1574,-1.2114,-1.2683,-1.3283,-1.3803,-1.4137,0.0,0.0,0.0,0.0,0.0,0.0,-1.7615,-1.8897,-1.9655,-2.1483,-2.3479,-2.5336,-2.7506,-2.9375,-3.0723,-3.167,-3.255,-3.343,-3.3867,-3.4375,-3.5019,-3.5488,-3.5742,-3.5742,-3.5588,-3.5249,-3.4637,-3.4312,-3.4013,-3.3817,-3.3817,-3.3817,-3.3817,-3.3817,-3.3817,-3.3817,-3.3817,-3.4147,-3.4698,-3.4698,-3.51,-3.5669,-3.5669,-3.5779,-3.5944,-3.5944,-3.6054,-3.6201,-3.6201,-3.6201,-3.6127,-3.5467,-3.5138,-3.4881,-3.4293,-3.422,-3.4368,-3.4623,-3.4496,-3.4331,-3.4331,-3.4331,-3.4331,-3.4331,-3.4331,-3.4331,-3.4331,-3.4532,-3.4697,-3.4697,-3.4826,-3.4991,-3.4991,-3.4991,-3.4702,-3.3732,-3.2779,-3.1482,-2.9467,-2.7901,-2.6526,-2.5269,-2.4308,-2.3562,-2.3191,-2.2695,-2.2264,-2.1921,-2.1631,-2.1353,-2.1087,-2.1075,-2.1075,-2.1075,-2.1075,-2.1015,-2.0882,-2.0761,-2.07,-2.07,-2.0555,-2.0567,-2.07,-2.0555,-2.0567,-1.1326,-1.1299,-1.1347,-1.1923,-1.2507,-1.3125,-1.3692,0.0,0.0,0.0,0.0,0.0,0.0,-1.8542,-1.9715,-2.0527,-2.2277,-2.4594,-2.7584,-2.8988,-3.0089,-3.1074,-3.1905,-3.2531,-3.2851,-3.3281,-3.3828,-3.4551,-3.5019,-3.5293,-3.5293,-3.4973,-3.4586,-3.4202,-3.3594,-3.3408,-3.3684,-3.3688,-3.3796,-3.3886,-3.3817,-3.3817,-3.3817,-3.3817,-3.4018,-3.4403,-3.4403,-3.4642,-3.4991,-3.4991,-3.5229,-3.5577,-3.5577,-3.5852,-3.6201,-3.6201,-3.6201,-3.6146,-3.576,-3.5321,-3.4936,-3.4605,-3.4733,-3.5009,-3.5064,-3.5083,-3.5101,-3.5156,-3.5083,-3.4991,-3.4991,-3.4991,-3.4991,-3.4991,-3.5046,-3.5083,-3.5083,-3.5101,-3.5102,-3.5102,-3.503,-3.4758,-3.4015,-3.2941,-3.1605,-2.9964,-2.8208,-2.6743,-2.5882,-2.4466,-2.3539,-2.3465,-2.2843,-2.2286,-2.1982,-2.197,-2.1873,-2.1655,-2.1559,-2.151,-2.151,-2.151,-2.1377,-2.1099,-2.0882,-2.0736,-2.07,-2.07,-2.07,-2.07,-2.07,-2.07,-1.1326,-1.1739,-1.2226,-1.2708,-1.3275,-1.3759,-1.3858,0.0,0.0,0.0,0.0,0.0,0.0,-1.8788,-2.0267,-2.0925,-2.3335,-2.6155,-2.9063,-2.9939,-3.0819,-3.2333,-3.293,-3.323,-3.3289,-3.3711,-3.4055,-3.4192,-3.457,-3.4805,-3.4805,-3.4475,-3.4145,-3.3799,-3.369,-3.3496,-3.3207,-3.3274,-3.3624,-3.4301,-3.3955,-3.3817,-3.3817,-3.3817,-3.4018,-3.4403,-3.4403,-3.4642,-3.4991,-3.4991,-3.5229,-3.5577,-3.5577,-3.5852,-3.6201,-3.6201,-3.6201,-3.6146,-3.576,-3.5321,-3.4991,-3.4918,-3.4936,-3.5064,-3.5394,-3.5486,-3.5595,-3.5925,-3.554,-3.4991,-3.4991,-3.4991,-3.4991,-3.4991,-3.5247,-3.5486,-3.5486,-3.5503,-3.5499,-3.5499,-3.5239,-3.4778,-3.4016,-3.3206,-3.1957,-2.9996,-2.8574,-2.732,-2.6212,-2.5033,-2.4221,-2.387,-2.3217,-2.2657,-2.2285,-2.2236,-2.2224,-2.2175,-2.1764,-2.151,-2.151,-2.151,-2.1377,-2.1099,-2.1051,-2.093,-2.07,-2.07,-2.07,-2.07,-2.07,-2.07,-1.1379,-1.1971,-1.265,-1.3016,-1.3549,-1.4064,0.0,0.0,0.0,0.0,0.0,0.0,0.0,-2.0068,-2.1851,-2.382,-2.5679,-2.7527,-2.9517,-3.0513,-3.1326,-3.2057,-3.2688,-3.3086,-3.3086,-3.3262,-3.3606,-3.4075,-3.429,-3.429,-3.4095,-3.3789,-3.3429,-3.3068,-3.2842,-3.2936,-3.342,-3.3036,-3.3252,-3.4001,-3.3658,-3.3596,-3.3817,-3.3817,-3.3908,-3.4092,-3.4092,-3.4202,-3.4331,-3.4331,-3.4605,-3.499,-3.5174,-3.5504,-3.5907,-3.6127,-3.6201,-3.6146,-3.576,-3.5596,-3.5596,-3.5376,-3.5449,-3.5669,-3.5889,-3.6091,-3.6273,-3.6457,-3.609,-3.5669,-3.5669,-3.5669,-3.5669,-3.5669,-3.5797,-3.5925,-3.5925,-3.5739,-3.553,-3.5306,-3.4782,-3.4128,-3.3317,-3.2529,-3.1441,-2.9824,-2.8591,-2.7473,-2.649,-2.5224,-2.4316,-2.4125,-2.3316,-2.274,-2.2552,-2.2381,-2.2296,-2.2296,-2.2079,-2.1933,-2.1933,-2.18,-2.1667,-2.1534,-2.1244,-2.1111,-2.1135,-2.099,-2.099,-2.1135,-2.1135,-2.1063,-1.1375,-1.2042,-1.277,-1.312,0.0,0.0,0.0,0.0,0.0,0.0,0.0,0.0,0.0,-2.1482,-2.361,-2.6263,-2.7564,-2.868,-2.996,-3.0937,-3.1608,-3.1765,-3.2394,-3.2793,-3.2731,-3.2856,-3.3191,-3.3771,-3.3894,-3.3797,-3.3444,-3.3121,-3.2798,-3.2473,-3.2174,-3.2499,-3.35,-3.2819,-3.2941,-3.3823,-3.3434,-3.3397,-3.3817,-3.3817,-3.3817,-3.3817,-3.3817,-3.3817,-3.3817,-3.3817,-3.4037,-3.444,-3.4826,-3.5284,-3.5797,-3.6091,-3.6201,-3.6164,-3.5852,-3.5962,-3.6164,-3.5852,-3.5962,-3.6201,-3.6201,-3.6457,-3.6805,-3.6805,-3.664,-3.6494,-3.6494,-3.6494,-3.6494,-3.6494,-3.6494,-3.6476,-3.6384,-3.5937,-3.5414,-3.4837,-3.3974,-3.312,-3.2283,-3.1478,-3.0577,-2.9532,-2.8448,-2.7491,-2.6806,-2.545,-2.4534,-2.4418,-2.3513,-2.2894,-2.278,-2.2598,-2.2478,-2.2478,-2.2369,-2.2296,-2.2296,-2.2103,-2.197,-2.1909,-2.1438,-2.1293,-2.151,-2.1232,-2.1244,-2.151,-2.151,-2.1401,-1.1339,-1.1859,-1.2478,-1.3066,-1.3378,0.0,-1.4772,-1.5495,0.0,-1.7274,0.0,0.0,0.0,-2.2653,-2.5047,-2.6388,-2.7895,-2.9449,-3.0978,-3.1264,-3.1577,-3.2257,-3.2664,-3.2778,-3.2479,-3.3,-3.324,-3.3001,-3.3287,-3.3318,-3.2969,-3.2619,-3.2428,-3.2396,-3.2377,-3.2536,-3.2944,-3.2606,-3.3019,-3.4248,-3.3536,-3.3397,-3.3817,-3.3817,-3.3817,-3.3817,-3.3817,-3.3817,-3.3817,-3.3817,-3.4037,-3.444,-3.4826,-3.5467,-3.6164,-3.6201,-3.6201,-3.6201,-3.6182,-3.6182,-3.6201,-3.6182,-3.6182,-3.6201,-3.6201,-3.6457,-3.6805,-3.6805,-3.7043,-3.7299,-3.7299,-3.7299,-3.7299,-3.7299,-3.7299,-3.7208,-3.6841,-3.6144,-3.526,-3.4098,-3.2952,-3.1846,-3.1001,-3.0152,-2.9493,-2.9003,-2.8168,-2.7449,-2.703,-2.6027,-2.514,-2.4737,-2.4069,-2.3482,-2.3097,-2.3034,-2.3022,-2.3022,-2.2574,-2.2296,-2.2296,-2.2284,-2.2151,-2.1909,-2.1631,-2.1498,-2.151,-2.1232,-2.1244,-2.151,-2.151,-2.151,-1.1326,-1.1717,-1.2243,-1.3013,-1.3387,0.0,0.0,-1.6815,-1.8063,-1.9558,-2.0456,0.0,0.0,-2.4147,-2.6031,-2.7471,-2.8847,-3.0137,-3.1201,-3.154,-3.1774,-3.2051,-3.2581,-3.2772,-3.2422,-3.2835,-3.3038,-3.2912,-3.3007,-3.2943,-3.2613,-3.2485,-3.2294,-3.2102,-3.2294,-3.2453,-3.2581,-3.2453,-3.2671,-3.3157,-3.2692,-3.268,-3.3065,-3.3287,-3.3415,-3.3434,-3.3707,-3.3817,-3.3817,-3.3817,-3.3908,-3.4092,-3.4734,-3.5321,-3.587,-3.6109,-3.6201,-3.6201,-3.6201,-3.6201,-3.6201,-3.6201,-3.6201,-3.6201,-3.6201,-3.6677,-3.7171,-3.7171,-3.7446,-3.7741,-3.7446,-3.7391,-3.7391,-3.7391,-3.7208,-3.6988,-3.6823,-3.5982,-3.4883,-3.3685,-3.2228,-3.0847,-2.978,-2.8886,-2.8182,-2.7765,-2.7451,-2.7097,-2.6663,-2.6056,-2.5596,-2.5386,-2.4502,-2.3731,-2.3133,-2.3082,-2.3082,-2.3082,-2.2744,-2.2538,-2.2538,-2.2381,-2.2248,-2.2151,-2.1897,-2.1837,-2.2006,-2.1728,-2.174,-2.2006,-2.2006,-2.1909,-1.1436,-1.1734,-1.2122,-1.3087,0.0,0.0,-1.6828,-1.8033,-1.9185,-2.1032,-2.2227,-2.3229,-2.4051,-2.5409,-2.682,-2.8168,-2.9305,-3.0277,-3.1116,-3.1529,-3.1782,-3.1896,-3.239,-3.2613,-3.2262,-3.2645,-3.2816,-3.2613,-3.2804,-3.2772,-3.2422,-3.2517,-3.2453,-3.223,-3.2453,-3.2549,-3.2549,-3.2453,-3.2362,-3.2288,-3.1981,-3.2093,-3.2606,-3.3028,-3.3196,-3.3214,-3.3651,-3.3817,-3.3817,-3.3817,-3.389,-3.4073,-3.4734,-3.5229,-3.5669,-3.6054,-3.6201,-3.6201,-3.6201,-3.6201,-3.6201,-3.6201,-3.6201,-3.6201,-3.6201,-3.6787,-3.7391,-3.7391,-3.7704,-3.7943,-3.7647,-3.7521,-3.7391,-3.7391,-3.7171,-3.695,-3.6836,-3.5955,-3.4755,-3.3396,-3.1702,-3.0087,-2.8836,-2.7861,-2.7136,-2.686,-2.6821,-2.6716,-2.6426,-2.6149,-2.5951,-2.5792,-2.486,-2.4041,-2.3595,-2.3414,-2.3336,-2.3336,-2.3082,-2.2864,-2.2695,-2.2514,-2.2381,-2.2296,-2.2042,-2.2042,-2.2296,-2.203,-2.2042,-2.2296,-2.2296,-2.2199,-1.1658,-1.1913,-1.2176,-1.3307,0.0,0.0,-1.8465,-1.8858,-1.9184,-2.1205,-2.3601,-2.5288,-2.5128,-2.6263,-2.7481,-2.826,-2.9097,-2.9904,-3.0681,-3.1171,-3.1506,-3.1846,-3.2198,-3.2262,-3.191,-3.2517,-3.2613,-3.1942,-3.2517,-3.2772,-3.2422,-3.2708,-3.288,-3.288,-3.288,-3.288,-3.288,-3.2581,-3.223,-3.1878,-3.1557,-3.1832,-3.2606,-3.3028,-3.3177,-3.3214,-3.3599,-3.3817,-3.3817,-3.3817,-3.4037,-3.444,-3.4826,-3.5229,-3.565,-3.6054,-3.6201,-3.6201,-3.6201,-3.6201,-3.6201,-3.6201,-3.6201,-3.6201,-3.6219,-3.6787,-3.7391,-3.7391,-3.7704,-3.8016,-3.7998,-3.7704,-3.7373,-3.7391,-3.7391,-3.7257,-3.6891,-3.6121,-3.4994,-3.3306,-3.1361,-2.9606,-2.8295,-2.7144,-2.6386,-2.6386,-2.6386,-2.6386,-2.6386,-2.6386,-2.6268,-2.5832,-2.501,-2.4492,-2.4492,-2.4092,-2.38,-2.38,-2.3559,-2.3173,-2.2719,-2.2695,-2.2574,-2.2308,-2.2042,-2.2042,-2.2296,-2.2042,-2.2042,-2.2296,-2.2296,-2.2296,-1.149,-1.2029,-1.2757,-1.3707,0.0,0.0,0.0,-1.9657,0.0,0.0,-2.5479,-2.6522,-2.5697,-2.6895,-2.8205,-2.8718,-2.9727,-3.0639,-3.1171,-3.1547,-3.1782,-3.1878,-3.2198,-3.2262,-3.191,-3.207,-3.2102,-3.191,-3.207,-3.2262,-3.239,-3.2485,-3.2676,-3.288,-3.288,-3.2804,-3.2549,-3.2453,-3.2102,-3.1538,-3.1442,-3.1538,-3.1795,-3.2459,-3.279,-3.2826,-3.3505,-3.3817,-3.3817,-3.3817,-3.389,-3.4018,-3.4422,-3.466,-3.4844,-3.554,-3.5797,-3.5834,-3.6109,-3.6201,-3.6201,-3.6201,-3.6201,-3.6256,-3.653,-3.697,-3.7391,-3.7391,-3.7464,-3.7501,-3.7226,-3.6841,-3.6714,-3.7283,-3.698,-3.6585,-3.6741,-3.5463,-3.3909,-3.2744,-3.1085,-2.9392,-2.7911,-2.7107,-2.6627,-2.6426,-2.6386,-2.6386,-2.6386,-2.6386,-2.6268,-2.5832,-2.5289,-2.4811,-2.4532,-2.4092,-2.38,-2.38,-2.3728,-2.3535,-2.3186,-2.2889,-2.2659,-2.2574,-2.232,-2.2224,-2.2296,-2.2224,-2.2224,-2.2296,-2.2296,-2.2296,-1.1726,-1.2425,-1.334,-1.4236,-1.5404,-1.7059,-1.9705,0.0,0.0,0.0,-2.653,-2.7356,-2.6944,-2.7719,-2.8607,-2.9159,-2.969,-3.0235,-3.0639,-3.0998,-3.1267,-3.1394,-3.1746,-3.1815,-3.1476,-3.1574,-3.1604,-3.1477,-3.1604,-3.187,-3.2371,-3.2549,-3.2772,-3.307,-3.2975,-3.274,-3.239,-3.2262,-3.1942,-3.141,-3.141,-3.141,-3.1428,-3.2056,-3.2368,-3.2404,-3.323,-3.3635,-3.3817,-3.3817,-3.3817,-3.3853,-3.4238,-3.4403,-3.4477,-3.5101,-3.5339,-3.5412,-3.5834,-3.5981,-3.5999,-3.6164,-3.6201,-3.6256,-3.6475,-3.6841,-3.7153,-3.7153,-3.7153,-3.7098,-3.686,-3.6493,-3.6292,-3.6597,-3.6424,-3.6136,-3.5818,-3.463,-3.3306,-3.2183,-3.0643,-2.9089,-2.7863,-2.7189,-2.672,-2.6426,-2.6386,-2.6386,-2.6386,-2.6386,-2.6307,-2.607,-2.5634,-2.5209,-2.4771,-2.4332,-2.4,-2.38,-2.38,-2.3728,-2.3571,-2.32,-2.2961,-2.2852,-2.2695,-2.2611,-2.2611,-2.2611,-2.255,-2.2453,-2.2453,-2.2405,-1.2225,-1.298,-1.3914,-1.4852,-1.6306,-1.8317,-2.1525,-2.3172,-2.4419,-2.5806,-2.6873,-2.7741,-2.8381,-2.8528,-2.8769,-2.9477,-2.9335,-2.9262,-2.9666,-3.0015,-3.0377,-3.0761,-3.1084,-3.114,-3.0891,-3.1121,-3.12,-3.0972,-3.1225,-3.1721,-3.2403,-3.274,-3.3038,-3.3386,-3.307,-3.274,-3.239,-3.207,-3.1717,-3.141,-3.141,-3.141,-3.1428,-3.1818,-3.2019,-3.2111,-3.2845,-3.3342,-3.3707,-3.3743,-3.3762,-3.3798,-3.4202,-3.4348,-3.4403,-3.4789,-3.4936,-3.5009,-3.5431,-3.5577,-3.5687,-3.6072,-3.6201,-3.6219,-3.6256,-3.6493,-3.6805,-3.6805,-3.6805,-3.6786,-3.675,-3.6457,-3.6015,-3.5605,-3.5781,-3.5683,-3.4389,-3.3638,-3.2855,-3.1523,-3.0001,-2.8674,-2.7934,-2.7243,-2.672,-2.6426,-2.6386,-2.6386,-2.6386,-2.6386,-2.6386,-2.6386,-2.603,-2.5594,-2.513,-2.4731,-2.4292,-2.384,-2.38,-2.38,-2.38,-2.3559,-2.3294,-2.3118,-2.3094,-2.3082,-2.3082,-2.3082,-2.2961,-2.2731,-2.2731,-2.2586,-1.2278,-1.3273,0.0,-1.5394,-1.7657,-2.0019,-2.15,-2.2599,-2.3837,-2.5732,-2.6701,-2.7316,-2.7665,-2.8412,-2.9125,-2.9532,-2.9782,-3.0075,-3.051,-3.0581,-3.086,-3.1543,-3.1164,-3.1159,-3.1973,-3.1583,-3.1501,-3.1997,-3.213,-3.2359,-3.2753,-3.2848,-3.3038,-3.3386,-3.307,-3.274,-3.239,-3.207,-3.1717,-3.141,-3.141,-3.141,-3.1428,-3.1818,-3.2184,-3.2478,-3.2643,-3.2771,-3.2881,-3.3211,-3.3324,-3.336,-3.378,-3.3945,-3.3982,-3.4385,-3.4532,-3.4642,-3.5339,-3.5577,-3.5687,-3.6072,-3.6201,-3.6274,-3.6566,-3.6731,-3.6805,-3.6805,-3.6805,-3.6713,-3.6421,-3.6013,-3.553,-3.4819,-3.4722,-3.4519,-3.3536,-3.2242,-3.0953,-2.9957,-2.8874,-2.788,-2.7176,-2.6907,-2.672,-2.6426,-2.6386,-2.6386,-2.6386,-2.6386,-2.6386,-2.6386,-2.603,-2.5594,-2.513,-2.4731,-2.4292,-2.384,-2.38,-2.38,-2.38,-2.3559,-2.339,-2.333,-2.3191,-2.3082,-2.3082,-2.3082,-2.3058,-2.2997,-2.2997,-2.2852,-1.2305,-1.3494,0.0,-1.67,0.0,-2.0662,-2.1299,-2.2205,-2.335,-2.5046,-2.6081,-2.6954,-2.7895,-2.8495,-2.902,-2.952,-2.9599,-2.969,-2.9892,-2.9898,-3.0038,-3.0482,-3.0316,-3.0383,-3.0964,-3.084,-3.0946,-3.1432,-3.1702,-3.2067,-3.2572,-3.2815,-3.2975,-3.3165,-3.2835,-3.2517,-3.2166,-3.1846,-3.157,-3.141,-3.141,-3.141,-3.141,-3.1598,-3.1928,-3.2313,-3.2313,-3.2423,-3.2606,-3.2826,-3.3046,-3.3214,-3.3415,-3.3651,-3.3835,-3.4037,-3.411,-3.4202,-3.4825,-3.5174,-3.5357,-3.5797,-3.6054,-3.6256,-3.6438,-3.6493,-3.6493,-3.6493,-3.6493,-3.6438,-3.6256,-3.5903,-3.5418,-3.4594,-3.4243,-3.3707,-3.2229,-3.1016,-2.9926,-2.8853,-2.8084,-2.7459,-2.6881,-2.6787,-2.6814,-2.6854,-2.6854,-2.676,-2.6613,-2.66,-2.6547,-2.64,-2.6228,-2.5911,-2.5475,-2.5164,-2.4749,-2.4172,-2.4041,-2.3933,-2.3812,-2.368,-2.3595,-2.3595,-2.3502,-2.343,-2.343,-2.343,-2.3357,-2.3237,-2.3237,-2.313,-1.2331,-1.3768,-1.5748,-1.7943,-1.9494,0.0,-2.0951,-2.1706,-2.2707,-2.3923,-2.5203,-2.6581,-2.8192,-2.8544,-2.8791,-2.941,-2.9225,-2.9042,-2.9097,-2.906,-2.903,-2.9177,-2.942,-2.9638,-2.9763,-3.0036,-3.0344,-3.0672,-3.1055,-3.1539,-3.215,-3.2527,-3.2668,-3.2668,-3.2365,-3.2085,-3.1817,-3.1534,-3.141,-3.141,-3.141,-3.141,-3.141,-3.141,-3.1561,-3.1891,-3.1891,-3.2093,-3.2386,-3.2459,-3.2698,-3.2994,-3.3141,-3.3379,-3.369,-3.378,-3.3817,-3.3872,-3.4257,-3.4623,-3.4954,-3.5357,-3.5779,-3.6109,-3.6109,-3.6146,-3.6201,-3.6201,-3.6201,-3.6163,-3.6089,-3.5754,-3.5157,-3.4293,-3.3623,-3.2663,-3.0816,-2.9923,-2.9154,-2.7878,-2.7405,-2.7134,-2.6934,-2.6894,-2.6987,-2.7269,-2.7309,-2.7202,-2.6854,-2.6867,-2.6787,-2.6493,-2.6507,-2.6374,-2.5976,-2.5796,-2.539,-2.4681,-2.4425,-2.4182,-2.3884,-2.3824,-2.38,-2.38,-2.38,-2.38,-2.38,-2.38,-2.3692,-2.3487,-2.3487,-2.3381,-1.2516,0.0,-1.6511,0.0,-1.9042,-1.9714,0.0,-2.0898,-2.1592,-2.2285,-2.4176,-2.6088,-2.7418,-2.8126,-2.8619,-2.9037,-2.9042,-2.9133,-2.9482,-2.9225,-2.925,-2.9947,-2.9723,-2.9905,-3.0865,-3.0706,-3.0808,-3.1474,-3.1581,-3.1669,-3.1757,-3.1815,-3.1854,-3.1854,-3.1589,-3.1432,-3.1369,-3.1386,-3.141,-3.141,-3.141,-3.141,-3.141,-3.141,-3.1446,-3.1501,-3.1501,-3.152,-3.1593,-3.1928,-3.2111,-3.2239,-3.2921,-3.3214,-3.3306,-3.3688,-3.3817,-3.3872,-3.4257,-3.444,-3.455,-3.4936,-3.5339,-3.5669,-3.5669,-3.5925,-3.6201,-3.6201,-3.6201,-3.6126,-3.5754,-3.5119,-3.4255,-3.312,-3.1702,-3.0423,-2.9802,-2.8739,-2.7641,-2.6784,-2.6747,-2.6947,-2.7215,-2.7242,-2.7269,-2.7296,-2.7309,-2.7202,-2.6854,-2.7041,-2.7094,-2.68,-2.6987,-2.6985,-2.6524,-2.6481,-2.6085,-2.5227,-2.4959,-2.4592,-2.415,-2.3921,-2.38,-2.38,-2.38,-2.38,-2.38,-2.38,-2.3788,-2.3752,-2.3752,-2.3607,-1.2879,-1.4603,-1.6299,0.0,-1.8344,-1.9053,-1.9613,-2.0372,-2.1193,-2.1991,-2.3651,-2.5277,-2.6215,-2.7041,-2.7703,-2.7995,-2.8209,-2.8381,-2.8564,-2.8436,-2.8604,-2.9342,-2.9231,-2.9485,-3.0384,-3.0301,-3.0341,-3.0681,-3.109,-3.1315,-3.1315,-3.1546,-3.1619,-3.1417,-3.1126,-3.0879,-3.071,-3.072,-3.0827,-3.1079,-3.13,-3.141,-3.141,-3.141,-3.141,-3.141,-3.141,-3.141,-3.1428,-3.1579,-3.1799,-3.2074,-3.2643,-3.301,-3.3232,-3.3635,-3.3817,-3.3835,-3.4018,-3.422,-3.444,-3.4623,-3.51,-3.5577,-3.5577,-3.5889,-3.6201,-3.6201,-3.6201,-3.6089,-3.5717,-3.5007,-3.4029,-3.2609,-3.0963,-2.9532,-2.8637,-2.783,-2.7152,-2.672,-2.6867,-2.7161,-2.7455,-2.7509,-2.7603,-2.7777,-2.7791,-2.7684,-2.7348,-2.7428,-2.7388,-2.7108,-2.7229,-2.7227,-2.7009,-2.688,-2.6494,-2.5722,-2.5309,-2.4907,-2.4456,-2.4017,-2.3872,-2.4017,-2.3884,-2.38,-2.38,-2.38,-2.38,-2.38,-2.38,-2.374,0.0,0.0,-1.5605,-1.6511,-1.7354,-1.813,0.0,-1.959,-2.047,-2.1306,-2.2708,-2.396,-2.4524,-2.5881,-2.6982,-2.7183,-2.7394,-2.7594,-2.7651,-2.7679,-2.7875,-2.8486,-2.8702,-2.9004,-2.9557,-2.9747,-2.9766,-2.9624,-3.0124,-3.0405,-3.0291,-3.0615,-3.0754,-3.0589,-3.0368,-3.0205,-3.0039,-3.0241,-3.0497,-3.0791,-3.1226,-3.141,-3.141,-3.141,-3.141,-3.141,-3.141,-3.141,-3.141,-3.141,-3.1593,-3.1891,-3.2294,-3.2698,-3.312,-3.3523,-3.3725,-3.3817,-3.3817,-3.4,-3.4257,-3.4257,-3.4807,-3.5431,-3.5431,-3.5815,-3.6163,-3.6089,-3.6052,-3.5903,-3.5306,-3.4556,-3.3521,-3.1922,-3.0346,-2.8861,-2.7653,-2.7167,-2.6972,-2.7015,-2.7228,-2.751,-2.7762,-2.7816,-2.7924,-2.8152,-2.8179,-2.8072,-2.7736,-2.7762,-2.7696,-2.7443,-2.7483,-2.7536,-2.7536,-2.7405,-2.6986,-2.6227,-2.5819,-2.5314,-2.4733,-2.4246,-2.4089,-2.4294,-2.4101,-2.3933,-2.38,-2.38,-2.38,-2.38,-2.38,-2.38,0.0,-1.3253,0.0,-1.5271,-1.5963,-1.6645,-1.7501,-1.8184,-1.8782,-1.9416,-2.0781,-2.1936,-2.2213,-2.4822,-2.6896,-2.6924,-2.6953,-2.7039,-2.7297,-2.7326,-2.7469,-2.7801,-2.842,-2.8834,-2.8853,-2.9266,-2.9341,-2.889,-2.8901,-2.8752,-2.836,-2.8378,-2.8565,-2.8909,-2.9035,-2.9243,-2.9629,-3.04,-3.0772,-3.0791,-3.1226,-3.141,-3.141,-3.141,-3.141,-3.141,-3.141,-3.141,-3.141,-3.141,-3.1428,-3.1483,-3.1873,-3.2276,-3.268,-3.3067,-3.3452,-3.3817,-3.3817,-3.38,-3.3853,-3.3853,-3.4403,-3.5028,-3.5028,-3.5595,-3.6126,-3.5754,-3.5642,-3.5344,-3.4218,-3.331,-3.2283,-3.0593,-2.9251,-2.8086,-2.7054,-2.6841,-2.6974,-2.7535,-2.7669,-2.7762,-2.8112,-2.8165,-2.8165,-2.8179,-2.8179,-2.8072,-2.7736,-2.7991,-2.8045,-2.7709,-2.7965,-2.8138,-2.8138,-2.8152,-2.773,-2.683,-2.6503,-2.5933,-2.5023,-2.4704,-2.4547,-2.4559,-2.4547,-2.4294,-2.38,-2.38,-2.38,-2.38,-2.38,-2.38,0.0,0.0,0.0,-1.4429,-1.5026,-1.5641,-1.6299,-1.7086,-1.7778,-1.8173,-1.9444,-2.0628,-2.1125,-2.3596,-2.5555,-2.5555,-2.5881,-2.6216,-2.6495,-2.6523,-2.6808,-2.7595,-2.7884,-2.8145,-2.8377,-2.8574,-2.8506,-2.8186,-2.8329,-2.834,-2.821,-2.8191,-2.8266,-2.8414,-2.8534,-2.8792,-2.9225,-2.9758,-3.0033,-3.0033,-3.0424,-3.0754,-3.0992,-3.0992,-3.1171,-3.141,-3.141,-3.141,-3.141,-3.141,-3.141,-3.1446,-3.1836,-3.2239,-3.2643,-3.3031,-3.3434,-3.3817,-3.3817,-3.3817,-3.3817,-3.3817,-3.4331,-3.4991,-3.4991,-3.5394,-3.5791,-3.5642,-3.5231,-3.4632,-3.3651,-3.2571,-3.1232,-2.9042,-2.7906,-2.7307,-2.7162,-2.7255,-2.7442,-2.7655,-2.7856,-2.8058,-2.8165,-2.8179,-2.8179,-2.8179,-2.8179,-2.8152,-2.8045,-2.8125,-2.8138,-2.8031,-2.8125,-2.8179,-2.8179,-2.8179,-2.7799,-2.6881,-2.6529,-2.6045,-2.5289,-2.4824,-2.4668,-2.4849,-2.468,-2.4499,-2.4306,-2.4306,-2.4306,-2.4306,-2.4306,-2.4306,-1.1899,0.0,0.0,0.0,-1.4036,-1.4544,-1.511,-1.5863,-1.6545,-1.681,-1.8113,-1.9387,-1.9885,-2.2022,-2.3854,-2.4238,-2.4637,-2.5045,-2.5505,-2.5684,-2.6082,-2.6966,-2.7299,-2.7577,-2.7827,-2.8003,-2.7937,-2.7638,-2.7761,-2.779,-2.766,-2.766,-2.7771,-2.8078,-2.8284,-2.859,-2.9005,-2.9409,-2.9592,-2.9611,-3.0002,-3.0332,-3.0589,-3.0736,-3.0969,-3.1226,-3.1355,-3.141,-3.141,-3.141,-3.141,-3.1428,-3.1689,-3.2038,-3.2441,-3.2863,-3.3232,-3.3633,-3.3762,-3.3817,-3.3817,-3.3817,-3.4331,-3.4955,-3.4847,-3.5175,-3.5493,-3.4969,-3.4313,-3.3558,-3.2419,-3.1117,-2.9595,-2.783,-2.7078,-2.6907,-2.7242,-2.7495,-2.7722,-2.7871,-2.8045,-2.8179,-2.8179,-2.8179,-2.8179,-2.8179,-2.8179,-2.8179,-2.8179,-2.8179,-2.8179,-2.8179,-2.8179,-2.8179,-2.8179,-2.8179,-2.7799,-2.6881,-2.6618,-2.6183,-2.5433,-2.5053,-2.4945,-2.5126,-2.4945,-2.4861,-2.4861,-2.4668,-2.4583,-2.4583,-2.4499,-2.4403,0.0,0.0,0.0,0.0,-1.2992,-1.3347,-1.3942,-1.4531,-1.5039,-1.5311,-1.6787,-1.8111,-1.8415,-2.0125,-2.1867,-2.3031,-2.3277,-2.3586,-2.4377,-2.4819,-2.5281,-2.5896,-2.6673,-2.7169,-2.7169,-2.7518,-2.7591,-2.7224,-2.7187,-2.7022,-2.6609,-2.6591,-2.6967,-2.7757,-2.815,-2.8572,-2.8986,-2.939,-2.9592,-2.9592,-2.9965,-3.0167,-3.0204,-3.0589,-3.0772,-3.0809,-3.1244,-3.141,-3.141,-3.141,-3.141,-3.141,-3.141,-3.1634,-3.2056,-3.2441,-3.2863,-3.3251,-3.367,-3.3817,-3.3817,-3.3817,-3.4331,-3.4919,-3.4523,-3.4918,-3.5194,-3.3613,-3.2876,-3.2135,-3.0477,-2.8808,-2.7476,-2.7057,-2.6892,-2.6894,-2.7188,-2.7495,-2.7789,-2.8125,-2.8179,-2.8179,-2.8179,-2.8179,-2.8179,-2.8179,-2.8179,-2.8179,-2.8179,-2.8179,-2.8179,-2.8179,-2.8179,-2.8179,-2.8179,-2.8179,-2.7799,-2.6881,-2.6796,-2.6371,-2.5433,-2.5391,-2.5391,-2.5391,-2.5391,-2.5391,-2.5391,-2.4873,-2.4607,-2.4595,-2.4342,-2.4089,-1.1899,0.0,0.0,0.0,0.0,0.0,-1.3119,-1.3789,-1.4437,-1.4674,-1.564,-1.6641,-1.7365,-1.8256,-1.9395,-2.0759,-2.2286,-2.3453,-2.385,-2.4175,-2.4589,-2.5213,-2.5746,-2.6136,-2.6298,-2.6692,-2.6894,-2.6756,-2.6784,-2.6701,-2.6618,-2.6591,-2.6839,-2.7353,-2.7757,-2.816,-2.8553,-2.8957,-2.917,-2.917,-2.9299,-2.947,-2.9794,-3.0167,-3.0516,-3.0809,-3.1244,-3.141,-3.141,-3.141,-3.141,-3.141,-3.141,-3.1634,-3.2056,-3.2441,-3.2863,-3.3251,-3.367,-3.3817,-3.3817,-3.3817,-3.4155,-3.4559,-3.4451,-3.4146,-3.3727,-3.299,-3.1807,-3.0423,-2.873,-2.7712,-2.7057,-2.6663,-2.6693,-2.6841,-2.6921,-2.7335,-2.7789,-2.8125,-2.8179,-2.8179,-2.8179,-2.8179,-2.8179,-2.8179,-2.8179,-2.8179,-2.8179,-2.8179,-2.8179,-2.8179,-2.8179,-2.8179,-2.8179,-2.8179,-2.7799,-2.6881,-2.6796,-2.6371,-2.5433,-2.5391,-2.5391,-2.5391,-2.5391,-2.5391,-2.5391,-2.5246,-2.5174,-2.5174,-2.5102,-2.4921,0.0,0.0,0.0,0.0,0.0,0.0,-1.2596,-1.3179,-1.3774,-1.3935,-1.4645,-1.5513,-1.6405,-1.7104,-1.7919,-1.9138,-2.0874,-2.2343,-2.3091,-2.3479,-2.3965,-2.4659,-2.5106,-2.5447,-2.5711,-2.5958,-2.6104,-2.6104,-2.627,-2.6435,-2.6573,-2.6591,-2.6774,-2.7187,-2.7426,-2.783,-2.8388,-2.8627,-2.8828,-2.9005,-2.9005,-2.9225,-2.9611,-3.0002,-3.0424,-3.0809,-3.1244,-3.141,-3.141,-3.141,-3.141,-3.141,-3.141,-3.1524,-3.1818,-3.2386,-3.2753,-3.3046,-3.3615,-3.3817,-3.3782,-3.3643,-3.387,-3.4055,-3.339,-3.2963,-3.247,-3.1375,-3.0007,-2.8534,-2.7398,-2.6939,-2.6702,-2.6465,-2.652,-2.668,-2.68,-2.7094,-2.7455,-2.7924,-2.8098,-2.8179,-2.8179,-2.8179,-2.8179,-2.8179,-2.8179,-2.8179,-2.8179,-2.8179,-2.8179,-2.8179,-2.8179,-2.8179,-2.8179,-2.8179,-2.7897,-2.7135,-2.6923,-2.6443,-2.572,-2.5519,-2.5391,-2.5391,-2.5391,-2.5391,-2.5391,-2.5391,-2.5343,-2.5234,-2.5234,-2.509,0.0,0.0,0.0,0.0,-1.2371,0.0,-1.2363,-1.2772,-1.3173,-1.318,-1.3834,-1.4655,-1.5454,-1.6228,-1.7044,-1.7911,-1.9189,-2.0594,-2.2072,-2.2681,-2.328,-2.4092,-2.4587,-2.4995,-2.5255,-2.537,-2.5388,-2.5388,-2.5756,-2.6141,-2.6499,-2.6582,-2.6756,-2.7132,-2.7187,-2.7545,-2.8315,-2.837,-2.859,-2.9005,-2.9005,-2.9225,-2.9611,-3.0002,-3.0424,-3.0809,-3.1244,-3.141,-3.141,-3.141,-3.141,-3.141,-3.141,-3.141,-3.1501,-3.2294,-3.2588,-3.2716,-3.3523,-3.3782,-3.3712,-3.34,-3.3461,-3.3376,-3.1892,-3.1526,-3.1227,-2.929,-2.7862,-2.6874,-2.6505,-2.6386,-2.6386,-2.6386,-2.6386,-2.6466,-2.672,-2.676,-2.6987,-2.7535,-2.7938,-2.8152,-2.8179,-2.8179,-2.8179,-2.8179,-2.8179,-2.8179,-2.8179,-2.8179,-2.8179,-2.8179,-2.8179,-2.8179,-2.8179,-2.8179,-2.7981,-2.7529,-2.705,-2.6571,-2.6146,-2.5647,-2.5391,-2.5391,-2.5391,-2.5391,-2.5391,-2.5391,-2.527,-2.5041,-2.5041,-2.4897,0.0,0.0,0.0,0.0,-1.2858,0.0,-1.2703,-1.2784,-1.2945,-1.316,-1.3514,-1.39,-1.4354,-1.4827,-1.5439,-1.639,-1.7454,-1.8777,-2.057,-2.1669,-2.2435,-2.2815,-2.3638,-2.4297,-2.4553,-2.5076,-2.5388,-2.5388,-2.5756,-2.6013,-2.6104,-2.6435,-2.6628,-2.6701,-2.7041,-2.7426,-2.7922,-2.8223,-2.859,-2.9005,-2.9005,-2.9225,-2.9611,-3.0002,-3.0424,-3.0809,-3.1244,-3.141,-3.141,-3.141,-3.141,-3.141,-3.141,-3.141,-3.1501,-3.2294,-3.2588,-3.2716,-3.3523,-3.3608,-3.3383,-3.3313,-3.2703,-3.1856,-3.1262,-3.0244,-2.8958,-2.75,-2.6785,-2.6505,-2.6426,-2.6386,-2.6386,-2.6386,-2.6386,-2.64,-2.6466,-2.6653,-2.6921,-2.7281,-2.763,-2.7856,-2.8138,-2.8179,-2.8179,-2.8179,-2.8179,-2.8179,-2.8179,-2.8179,-2.8179,-2.8179,-2.8179,-2.8179,-2.8179,-2.8179,-2.7981,-2.7529,-2.705,-2.6571,-2.6146,-2.5647,-2.5391,-2.5391,-2.5391,-2.5391,-2.5391,-2.5391,-2.5367,-2.5318,-2.5318,-2.5174,0.0,0.0,0.0,-1.3193,-1.3093,0.0,0.0,-1.2992,-1.3046,-1.3173,-1.32,-1.3333,-1.3767,-1.4022,-1.4406,-1.519,-1.6433,-1.7644,-1.857,-2.0418,-2.1795,-2.2194,-2.3108,-2.3809,-2.4061,-2.4521,-2.4874,-2.5095,-2.5278,-2.548,-2.5682,-2.6086,-2.6306,-2.6306,-2.6692,-2.7187,-2.7793,-2.7995,-2.8417,-2.9005,-2.9005,-2.9335,-2.9923,-3.0112,-3.044,-3.0847,-3.1079,-3.1073,-3.0912,-3.0912,-3.0912,-3.0944,-3.1281,-3.141,-3.1501,-3.2294,-3.2454,-3.2414,-3.3266,-3.3191,-3.2649,-3.2281,-3.1466,-3.0477,-2.954,-2.8377,-2.7198,-2.6484,-2.6368,-2.6386,-2.6386,-2.6386,-2.6386,-2.6386,-2.6386,-2.6386,-2.6386,-2.6613,-2.6907,-2.7242,-2.7495,-2.7789,-2.8138,-2.8179,-2.8179,-2.8179,-2.8179,-2.8179,-2.8179,-2.8179,-2.8179,-2.8179,-2.8179,-2.8179,-2.8179,-2.8179,-2.8108,-2.7854,-2.7177,-2.6698,-2.6443,-2.5775,-2.5391,-2.5391,-2.5391,-2.5391,-2.5391,-2.5391,-2.5391,-2.5391,-2.5391,-2.5318,0.0,0.0,0.0,0.0,0.0,-1.336,0.0,0.0,0.0,-1.3133,-1.2939,-1.2918,-1.3287,-1.3384,-1.3595,-1.4145,-1.5526,-1.6529,-1.6625,-1.8847,-2.0782,-2.1579,-2.2544,-2.3284,-2.3579,-2.3894,-2.4195,-2.4519,-2.4636,-2.4819,-2.515,-2.5682,-2.6021,-2.6021,-2.6398,-2.6967,-2.7683,-2.7757,-2.816,-2.8895,-2.8968,-2.936,-3.0075,-3.0167,-3.0401,-3.0771,-3.0779,-3.0555,-3.0183,-3.0183,-3.0133,-3.0165,-3.1009,-3.1249,-3.1308,-3.2104,-3.2132,-3.1924,-3.2693,-3.2456,-3.1648,-3.0993,-3.0036,-2.8876,-2.7499,-2.6569,-2.5992,-2.5928,-2.6119,-2.6386,-2.6386,-2.6386,-2.64,-2.6453,-2.6466,-2.6493,-2.6547,-2.6747,-2.7001,-2.7336,-2.7535,-2.7789,-2.8138,-2.8179,-2.8179,-2.8179,-2.8179,-2.8179,-2.8179,-2.8179,-2.8179,-2.8179,-2.8179,-2.8179,-2.8179,-2.8179,-2.8179,-2.8179,-2.7334,-2.6796,-2.6796,-2.5903,-2.5391,-2.5391,-2.5391,-2.5391,-2.5391,-2.5391,-2.5391,-2.5391,-2.5391,-2.5348,0.0,0.0,0.0,0.0,-1.4175,-1.3921,-1.3613,0.0,-1.3133,-1.2891,0.0,-1.273,-1.2492,0.0,0.0,-1.3185,-1.4125,-1.4889,-1.5183,-1.6733,-1.8503,-2.0287,-2.158,-2.2499,-2.2879,-2.3329,-2.3614,-2.3627,-2.4024,-2.4293,-2.433,-2.537,-2.6021,-2.6021,-2.6398,-2.682,-2.7261,-2.761,-2.8032,-2.8462,-2.881,-2.9243,-2.9684,-3.002,-3.0255,-3.0374,-3.0362,-3.0003,-2.9414,-2.9414,-2.9233,-2.9102,-3.044,-3.0782,-3.0594,-3.137,-3.1397,-3.116,-3.165,-3.1268,-3.0515,-3.0072,-2.8516,-2.6612,-2.5726,-2.55,-2.5556,-2.5558,-2.5959,-2.6386,-2.6386,-2.6386,-2.6453,-2.6707,-2.6734,-2.6841,-2.7148,-2.7229,-2.7295,-2.7589,-2.7682,-2.7789,-2.8138,-2.8179,-2.8179,-2.8179,-2.8179,-2.8179,-2.8179,-2.8179,-2.8179,-2.8179,-2.8179,-2.8179,-2.8179,-2.8179,-2.8179,-2.8179,-2.7334,-2.6796,-2.6796,-2.5903,-2.5391,-2.5391,-2.5391,-2.5391,-2.5391,-2.5391,-2.5391,-2.5391,-2.5391,-2.5177,0.0,0.0,0.0,0.0,0.0,-1.4247,-1.3975,-1.3647,-1.3407,-1.3293,0.0,0.0,0.0,0.0,0.0,0.0,-1.338,-1.4016,-1.4178,-1.5654,-1.7302,-1.8894,-2.0246,-2.1339,-2.2095,-2.234,-2.2547,-2.279,-2.3193,-2.3565,-2.3785,-2.4739,-2.5407,-2.5645,-2.6031,-2.6563,-2.7206,-2.7591,-2.7995,-2.8407,-2.8792,-2.9225,-2.9611,-2.9817,-2.9811,-2.9633,-2.9503,-2.8938,-2.8064,-2.7849,-2.765,-2.7601,-2.8427,-2.9168,-2.9859,-3.0573,-3.0507,-3.0037,-3.02,-2.9743,-2.8891,-2.781,-2.6663,-2.5616,-2.5042,-2.5163,-2.5518,-2.5518,-2.5932,-2.6386,-2.6386,-2.6386,-2.6466,-2.6747,-2.6787,-2.6907,-2.7242,-2.7443,-2.7549,-2.7669,-2.7843,-2.8031,-2.8165,-2.8179,-2.8179,-2.8179,-2.8179,-2.8179,-2.8179,-2.8179,-2.8179,-2.8179,-2.8179,-2.8179,-2.8179,-2.8179,-2.8179,-2.8179,-2.7334,-2.6583,-2.603,-2.5604,-2.5391,-2.5391,-2.5391,-2.5391,-2.5391,-2.5134,-2.5006,-2.5006,-2.5006,-2.4878,-1.5467,-1.5401,-1.5267,-1.4928,-1.4741,-1.4563,-1.4269,-1.3954,-1.3706,-1.3626,-1.3293,0.0,0.0,0.0,0.0,0.0,0.0,-1.341,-1.3347,-1.4569,-1.6026,-1.7514,-1.9135,-2.0477,-2.1441,-2.15,-2.1606,-2.1947,-2.2322,-2.268,-2.2986,-2.4078,-2.4853,-2.5223,-2.5719,-2.6325,-2.7041,-2.747,-2.7815,-2.8097,-2.853,-2.8931,-2.9313,-2.9359,-2.9275,-2.9029,-2.8552,-2.7768,-2.6869,-2.6368,-2.6115,-2.6066,-2.6568,-2.7302,-2.8246,-2.9176,-2.9093,-2.8569,-2.8541,-2.8068,-2.7266,-2.6056,-2.5373,-2.4968,-2.4673,-2.5013,-2.5518,-2.5518,-2.5932,-2.6386,-2.6386,-2.6386,-2.648,-2.6854,-2.6947,-2.7041,-2.7469,-2.771,-2.7816,-2.7816,-2.8031,-2.8179,-2.8179,-2.8179,-2.8179,-2.8179,-2.8179,-2.8179,-2.8179,-2.8179,-2.8179,-2.8179,-2.8179,-2.8179,-2.8179,-2.8179,-2.8094,-2.7841,-2.7242,-2.6484,-2.5542,-2.5572,-2.5572,-2.5499,-2.5499,-2.5463,-2.5391,-2.4921,-2.4664,-2.4535,-2.4407,-2.4235,-1.6647,-1.6471,-1.619,-1.5835,-1.5364,-1.4892,-1.4554,-1.4282,-1.3988,-1.3666,-1.3586,-1.3514,-1.3253,0.0,0.0,0.0,0.0,0.0,0.0,-1.3188,-1.4302,-1.6221,-1.8507,-2.0218,-2.1046,-2.0949,-2.0906,-2.1123,-2.1446,-2.1665,-2.1756,-2.345,-2.4521,-2.4794,-2.5572,-2.6196,-2.6637,-2.707,-2.7326,-2.7344,-2.7813,-2.8217,-2.8553,-2.8597,-2.865,-2.8567,-2.7568,-2.6785,-2.6066,-2.5341,-2.4868,-2.4631,-2.536,-2.5427,-2.5307,-2.6784,-2.7037,-2.668,-2.6618,-2.6284,-2.58,-2.5373,-2.4931,-2.4636,-2.4599,-2.5013,-2.5518,-2.5518,-2.5932,-2.6386,-2.6386,-2.6386,-2.6533,-2.7162,-2.7296,-2.7456,-2.8031,-2.8165,-2.8165,-2.8165,-2.8179,-2.8179,-2.8179,-2.8179,-2.8179,-2.8179,-2.8179,-2.8179,-2.8179,-2.8179,-2.8179,-2.8179,-2.8179,-2.8179,-2.8179,-2.8179,-2.7799,-2.691,-2.7037,-2.6759,-2.582,-2.6061,-2.6029,-2.5776,-2.5776,-2.5644,-2.5391,-2.4921,-2.4492,-2.4106,-2.3634,-2.2945,-1.67,-1.6486,-1.623,-1.5875,-1.5538,-1.52,-1.4905,-1.4758,-1.4665,-1.4558,-1.4341,-1.4114,-1.3841,0.0,0.0,0.0,0.0,0.0,0.0,-1.3223,-1.4313,-1.5584,-1.7463,-1.8766,-1.9089,-1.9179,-1.93,-1.9506,-1.9986,-2.0753,-2.1826,-2.2726,-2.3838,-2.5142,-2.5462,-2.5921,-2.6591,-2.707,-2.7297,-2.7297,-2.7766,-2.817,-2.8505,-2.8336,-2.8151,-2.787,-2.6874,-2.5927,-2.497,-2.4258,-2.3884,-2.3816,-2.4054,-2.4224,-2.4461,-2.5697,-2.5873,-2.5524,-2.5413,-2.5196,-2.4991,-2.4857,-2.471,-2.4639,-2.4863,-2.5211,-2.5558,-2.5784,-2.6131,-2.6386,-2.6386,-2.6386,-2.6493,-2.6881,-2.7121,-2.7416,-2.7804,-2.8045,-2.8179,-2.8179,-2.8179,-2.8179,-2.8179,-2.8179,-2.8179,-2.8179,-2.8179,-2.8179,-2.8179,-2.8179,-2.8179,-2.8179,-2.8179,-2.8179,-2.8179,-2.8379,-2.806,-2.7106,-2.7317,-2.7034,-2.6085,-2.6126,-2.6182,-2.6085,-2.6042,-2.5874,-2.5441,-2.4569,-2.3696,-2.2858,-2.1353,-2.0771,-1.7021,-1.6832,-1.6565,-1.6353,-1.6005,-1.5658,-1.5494,-1.5374,-1.5271,-1.5271,-1.503,-1.475,-1.4477,0.0,0.0,0.0,0.0,0.0,0.0,-1.3514,-1.4384,-1.5124,-1.6552,-1.7522,-1.7659,-1.7809,-1.7983,-1.8144,-1.8794,-1.9813,-2.1172,-2.1877,-2.2991,-2.4684,-2.4893,-2.5499,-2.6573,-2.6813,-2.6997,-2.7167,-2.7391,-2.7659,-2.7995,-2.7587,-2.741,-2.7364,-2.6067,-2.5158,-2.4428,-2.3577,-2.3236,-2.3236,-2.3236,-2.3372,-2.3713,-2.4515,-2.4699,-2.4547,-2.4473,-2.452,-2.4599,-2.4599,-2.4599,-2.4653,-2.4997,-2.5277,-2.5571,-2.5917,-2.6198,-2.6386,-2.6386,-2.6386,-2.6466,-2.6747,-2.7054,-2.7389,-2.7642,-2.7978,-2.8179,-2.8179,-2.8179,-2.8179,-2.8179,-2.8179,-2.8179,-2.8179,-2.8179,-2.8179,-2.8179,-2.8179,-2.8179,-2.8179,-2.8179,-2.8179,-2.8179,-2.8289,-2.8033,-2.7246,-2.7384,-2.7158,-2.6363,-2.6415,-2.6415,-2.6331,-2.6186,-2.5884,-2.5492,-2.4074,-2.2842,-2.1737,-1.972,-1.883]},{"header":{"parameterUnit":"m.s-1","parameterCategory":1,"la1":30.6,"la2":29.2853,"lo1":-89.7004,"lo2":-87.6739,"dy":0.0162,"dx":0.0183,"nx":112,"ny":82,"refTime":"2023-10-22T12:00:00:Z","depth":0,"parameterNumber":3,"parameterNumberName":"V-component_of_WINDS"},"data":[0.0,0.0,0.0,0.0,0.0,0.0,0.0,0.0,0.0,0.0,0.0,0.0,0.0,0.0,0.0,0.0,0.0,0.0,0.0,0.0,0.0,0.0,0.0,0.0,0.0,0.0,0.0,0.0,0.0,0.0,0.0,0.0,0.0,0.0,0.0,0.0,0.0,0.0,0.0,0.0,0.0,0.0,0.0,0.0,0.0,0.0,0.0,0.0,0.0,0.0,0.0,0.0,0.0,0.0,0.0,0.0,0.0,0.0,0.0,0.0,0.0,0.0,0.0,0.0,0.0,0.0,0.0,0.0,0.0,0.0,0.0,0.0,0.0,0.0,0.0,0.0,0.0,0.0,0.0,0.0,0.0,0.0,0.0,0.0,0.0,0.0,0.0,0.0,0.0,0.0,3.1778,3.65,4.181,4.4698,4.3958,4.2162,3.9703,3.6422,0.0,0.0,0.0,0.0,0.0,0.0,0.0,0.0,0.0,0.0,0.0,0.0,0.0,0.0,0.0,0.0,0.0,0.0,0.0,0.0,0.0,0.0,0.0,0.0,0.0,0.0,0.0,0.0,0.0,0.0,0.0,0.0,0.0,0.0,0.0,0.0,0.0,0.0,0.0,0.0,0.0,0.0,0.0,0.0,0.0,0.0,0.0,0.0,0.0,0.0,0.0,0.0,0.0,0.0,0.0,0.0,0.0,0.0,0.0,0.0,0.0,0.0,0.0,0.0,0.0,0.0,0.0,0.0,0.0,0.0,0.0,0.0,0.0,0.0,0.0,0.0,0.0,0.0,0.0,0.0,0.0,0.0,0.0,0.0,0.0,0.0,0.0,0.0,0.0,0.0,0.0,0.0,0.0,0.0,0.0,0.0,0.0,0.0,0.0,0.0,0.0,0.0,0.0,0.0,3.4198,4.0716,4.3566,4.4933,4.4815,4.2514,3.9976,3.7282,0.0,0.0,0.0,0.0,0.0,0.0,0.0,0.0,0.0,0.0,0.0,0.0,0.0,0.0,0.0,0.0,0.0,0.0,0.0,0.0,0.0,0.0,0.0,0.0,0.0,0.0,0.0,0.0,0.0,0.0,0.0,0.0,0.0,0.0,0.0,0.0,0.0,0.0,0.0,0.0,0.0,0.0,0.0,0.0,0.0,0.0,0.0,0.0,0.0,0.0,0.0,0.0,0.0,0.0,0.0,0.0,0.0,0.0,0.0,0.0,0.0,0.0,0.0,0.0,0.0,0.0,0.0,0.0,0.0,0.0,0.0,0.0,0.0,0.0,0.0,0.0,0.0,0.0,0.0,0.0,0.0,0.0,0.0,0.0,0.0,0.0,0.0,0.0,0.0,0.0,0.0,0.0,0.0,0.0,0.0,0.0,0.0,0.0,0.0,0.0,0.0,0.0,0.0,3.3262,3.6852,4.1849,4.3528,4.4114,4.3644,4.1226,3.8454,3.5368,3.2012,0.0,0.0,0.0,0.0,0.0,0.0,0.0,0.0,0.0,0.0,0.0,0.0,0.0,0.0,0.0,0.0,0.0,0.0,0.0,0.0,0.0,0.0,0.0,0.0,0.0,0.0,0.0,0.0,0.0,0.0,0.0,0.0,0.0,0.0,0.0,0.0,0.0,0.0,0.0,0.0,0.0,0.0,0.0,0.0,0.0,0.0,0.0,0.0,0.0,0.0,0.0,0.0,0.0,0.0,0.0,0.0,0.0,0.0,0.0,0.0,0.0,0.0,0.0,0.0,0.0,0.0,0.0,0.0,0.0,0.0,0.0,0.0,0.0,0.0,0.0,0.0,0.0,0.0,0.0,0.0,0.0,0.0,0.0,0.0,0.0,0.0,0.0,0.0,0.0,0.0,0.0,0.0,0.0,0.0,0.0,0.0,0.0,0.0,0.0,0.0,0.0,0.0,3.5331,3.8765,4.1771,4.306,4.3256,4.2162,3.9937,3.7126,3.3611,3.0997,0.0,0.0,0.0,0.0,0.0,0.0,0.0,0.0,0.0,0.0,0.0,0.0,0.0,0.0,0.0,0.0,0.0,0.0,0.0,0.0,0.0,0.0,0.0,0.0,0.0,0.0,0.0,0.0,0.0,0.0,0.0,0.0,0.0,0.0,0.0,0.0,0.0,0.0,0.0,0.0,0.0,0.0,0.0,0.0,0.0,0.0,0.0,0.0,0.0,0.0,0.0,0.0,0.0,0.0,0.0,0.0,0.0,0.0,0.0,0.0,0.0,0.0,0.0,0.0,0.0,0.0,0.0,0.0,0.0,0.0,0.0,0.0,0.0,0.0,0.0,0.0,0.0,0.0,0.0,0.0,0.0,0.0,0.0,0.0,0.0,0.0,0.0,0.0,0.0,0.0,0.0,0.0,0.0,0.0,0.0,0.0,0.0,0.0,0.0,0.0,0.0,0.0,3.5839,3.9196,4.0991,4.2709,4.3021,4.1343,3.9587,3.7126,3.3611,3.0997,0.0,0.0,0.0,0.0,0.0,0.0,0.0,0.0,0.0,0.0,0.0,0.0,0.0,0.0,0.0,0.0,0.0,0.0,0.0,0.0,0.0,0.0,0.0,0.0,0.0,0.0,0.0,0.0,0.0,0.0,0.0,0.0,0.0,0.0,0.0,0.0,0.0,0.0,0.0,0.0,0.0,0.0,0.0,0.0,0.0,0.0,0.0,0.0,0.0,0.0,0.0,0.0,0.0,0.0,0.0,0.0,0.0,0.0,0.0,0.0,0.0,0.0,0.0,0.0,0.0,0.0,0.0,0.0,0.0,0.0,0.0,0.0,0.0,0.0,0.0,0.0,0.0,0.0,0.0,0.0,0.0,0.0,0.0,0.0,0.0,0.0,0.0,0.0,0.0,0.0,0.0,0.0,0.0,0.0,0.0,0.0,0.0,0.0,0.0,0.0,0.0,0.0,3.5293,3.8024,4.0796,4.1187,4.0991,4.0366,3.7751,3.5135,3.2753,0.0,0.0,0.0,0.0,0.0,0.0,0.0,0.0,0.0,0.0,0.0,0.0,0.0,0.0,0.0,0.0,0.0,0.0,0.0,0.0,0.0,0.0,0.0,0.0,0.0,0.0,0.0,0.0,0.0,0.0,0.0,0.0,0.0,0.0,0.0,0.0,0.0,0.0,0.0,0.0,0.0,0.0,0.0,0.0,0.0,0.0,0.0,0.0,0.0,0.0,0.0,0.0,0.0,0.0,0.0,0.0,0.0,0.0,0.0,0.0,0.0,0.0,0.0,0.0,0.0,0.0,0.0,0.0,0.0,0.0,0.0,0.0,0.0,0.0,0.0,0.0,0.0,0.0,0.0,0.0,0.0,0.0,0.0,0.0,0.0,0.0,0.0,0.0,0.0,0.0,0.0,0.0,0.0,0.0,0.0,0.0,0.0,0.0,0.0,0.0,0.0,0.0,3.257,3.4516,3.6698,3.9586,3.9625,3.9195,3.8647,3.6189,3.3847,3.1816,0.0,0.0,0.0,0.0,0.0,0.0,0.0,0.0,0.0,0.0,0.0,0.0,0.0,0.0,0.0,0.0,0.0,0.0,0.0,0.0,0.0,0.0,0.0,0.0,0.0,0.0,0.0,0.0,0.0,0.0,0.0,0.0,0.0,0.0,0.0,0.0,0.0,0.0,0.0,0.0,0.0,0.0,0.0,0.0,0.0,0.0,0.0,0.0,0.0,0.0,0.0,0.0,0.0,0.0,0.0,0.0,0.0,0.0,0.0,0.0,0.0,0.0,0.0,0.0,0.0,0.0,0.0,0.0,0.0,0.0,0.0,0.0,0.0,0.0,0.0,0.0,0.0,0.0,0.0,0.0,0.0,0.0,0.0,0.0,0.0,0.0,0.0,0.0,0.0,0.0,0.0,0.0,0.0,0.0,0.0,0.0,0.0,0.0,0.0,0.0,0.0,0.0,3.1793,3.3624,3.5376,3.7126,3.8063,3.7868,3.6148,3.5174,3.3573,0.0,0.0,0.0,0.0,0.0,0.0,0.0,0.0,0.0,0.0,0.0,0.0,0.0,0.0,0.0,0.0,0.0,0.0,0.0,0.0,0.0,0.0,0.0,0.0,0.0,0.0,0.0,0.0,0.0,0.0,0.0,0.0,0.0,0.0,0.0,0.0,0.0,0.0,0.0,0.0,0.0,0.0,0.0,0.0,0.0,0.0,0.0,0.0,0.0,0.0,0.0,0.0,0.0,0.0,0.0,0.0,0.0,0.0,0.0,0.0,0.0,0.0,0.0,0.0,0.0,0.0,0.0,0.0,0.0,0.0,0.0,0.0,0.0,0.0,0.0,0.0,0.0,0.0,0.0,0.0,0.0,0.0,0.0,0.0,0.0,0.0,0.0,0.0,0.0,0.0,0.0,0.0,0.0,0.0,0.0,0.0,0.0,0.0,0.0,0.0,0.0,0.0,0.0,3.2693,3.4016,3.5376,3.7126,3.697,3.6578,3.6031,3.4081,3.2559,3.1777,0.0,0.0,0.0,0.0,0.0,0.0,0.0,0.0,0.0,0.0,0.0,0.0,0.0,0.0,0.0,0.0,0.0,0.0,0.0,0.0,0.0,0.0,0.0,0.0,0.0,0.0,0.0,0.0,0.0,0.0,0.0,0.0,0.0,0.0,0.0,0.0,0.0,0.0,0.0,0.0,0.0,0.0,0.0,0.0,0.0,0.0,0.0,0.0,0.0,0.0,0.0,0.0,0.0,0.0,0.0,0.0,0.0,0.0,0.0,0.0,0.0,0.0,0.0,0.0,0.0,0.0,0.0,0.0,0.0,0.0,0.0,0.0,0.0,0.0,0.0,0.0,0.0,0.0,0.0,0.0,0.0,0.0,0.0,0.0,0.0,0.0,0.0,0.0,0.0,0.0,0.0,0.0,0.0,0.0,0.0,0.0,0.0,0.0,0.0,0.0,0.0,0.0,3.3046,3.3862,3.4715,3.6112,3.5798,3.5212,3.4509,3.2988,3.1934,3.1582,0.0,0.0,0.0,0.0,0.0,0.0,0.0,0.0,0.0,0.0,0.0,0.0,0.0,0.0,0.0,0.0,0.0,0.0,0.0,0.0,0.0,0.0,0.0,0.0,0.0,0.0,0.0,0.0,0.0,0.0,0.0,0.0,0.0,0.0,0.0,0.0,0.0,0.0,0.0,0.0,0.0,0.0,0.0,0.0,0.0,0.0,0.0,0.0,0.0,0.0,0.0,0.0,0.0,0.0,0.0,0.0,0.0,0.0,0.0,0.0,0.0,0.0,0.0,0.0,0.0,0.0,0.0,0.0,0.0,0.0,0.0,0.0,0.0,0.0,0.0,0.0,0.0,0.0,0.0,0.0,0.0,0.0,0.0,0.0,0.0,0.0,0.0,0.0,0.0,0.0,0.0,0.0,0.0,0.0,0.0,0.0,0.0,0.0,0.0,0.0,0.0,0.0,3.3086,3.3397,3.3743,3.4592,3.4629,3.3926,3.2248,3.2013,3.1662,3.0841,0.0,0.0,0.0,0.0,0.0,0.0,0.0,0.0,0.0,0.0,0.0,0.0,0.0,0.0,0.0,0.0,0.0,0.0,0.0,0.0,0.0,0.0,0.0,0.0,0.0,0.0,0.0,0.0,0.0,0.0,0.0,0.0,0.0,0.0,0.0,0.0,0.0,0.0,0.0,0.0,0.0,0.0,0.0,0.0,0.0,0.0,0.0,0.0,0.0,0.0,0.0,0.0,0.0,0.0,0.0,0.0,0.0,0.0,0.0,0.0,3.0257,2.8538,0.0,0.0,0.0,0.0,0.0,0.0,0.0,0.0,0.0,0.0,0.0,0.0,0.0,0.0,0.0,0.0,0.0,0.0,0.0,0.0,0.0,0.0,0.0,0.0,0.0,0.0,0.0,0.0,0.0,0.0,0.0,0.0,0.0,0.0,0.0,0.0,0.0,0.0,0.0,0.0,3.316,3.3398,3.3749,3.4603,3.4094,3.3234,3.218,3.1513,3.1082,3.0886,3.0687,0.0,0.0,0.0,0.0,0.0,0.0,0.0,0.0,0.0,0.0,0.0,0.0,0.0,0.0,0.0,0.0,0.0,0.0,0.0,0.0,0.0,0.0,0.0,0.0,0.0,0.0,0.0,0.0,0.0,0.0,0.0,0.0,0.0,0.0,0.0,0.0,0.0,0.0,0.0,0.0,0.0,0.0,0.0,0.0,0.0,0.0,0.0,0.0,0.0,0.0,0.0,0.0,0.0,0.0,0.0,0.0,0.0,0.0,0.0,3.3317,3.1468,0.0,0.0,0.0,0.0,0.0,0.0,0.0,0.0,0.0,0.0,0.0,0.0,0.0,0.0,0.0,0.0,0.0,0.0,0.0,0.0,0.0,0.0,0.0,0.0,0.0,0.0,0.0,0.0,0.0,0.0,0.0,0.0,0.0,0.0,0.0,0.0,0.0,0.0,0.0,0.0,3.2608,3.3122,3.3398,3.3436,3.3436,3.2889,3.16,3.1129,3.0893,3.0893,3.0888,0.0,0.0,0.0,0.0,0.0,0.0,0.0,0.0,0.0,0.0,0.0,0.0,0.0,0.0,0.0,0.0,0.0,0.0,0.0,0.0,0.0,0.0,0.0,0.0,0.0,0.0,0.0,0.0,0.0,0.0,0.0,0.0,0.0,0.0,0.0,0.0,0.0,0.0,0.0,0.0,0.0,0.0,0.0,0.0,0.0,0.0,0.0,0.0,0.0,0.0,0.0,0.0,0.0,4.0723,4.1198,4.1376,4.1539,4.208,4.269,3.7747,3.5898,3.6063,3.2974,0.0,0.0,0.0,0.0,0.0,0.0,0.0,0.0,0.0,0.0,0.0,0.0,0.0,0.0,0.0,0.0,0.0,0.0,0.0,0.0,0.0,0.0,3.3473,3.4522,3.58,3.6381,3.4836,0.0,0.0,0.0,0.0,0.0,0.0,0.0,0.0,0.0,0.0,0.0,3.2167,3.2957,3.3119,3.2381,3.2967,3.2694,3.0937,3.0859,3.0898,3.0898,3.0895,3.0891,0.0,0.0,0.0,0.0,0.0,0.0,0.0,0.0,0.0,0.0,0.0,0.0,0.0,0.0,0.0,0.0,0.0,0.0,0.0,0.0,0.0,0.0,0.0,0.0,0.0,0.0,0.0,0.0,0.0,0.0,0.0,0.0,3.1479,3.1521,0.0,0.0,0.0,0.0,0.0,0.0,0.0,0.0,0.0,0.0,0.0,0.0,0.0,4.1479,4.3175,4.412,4.4991,4.5892,4.6688,4.7108,4.7217,4.799,4.8472,4.8622,4.715,0.0,3.9438,3.7509,0.0,0.0,0.0,0.0,0.0,0.0,0.0,0.0,0.0,0.0,0.0,0.0,0.0,0.0,0.0,0.0,0.0,0.0,0.0,0.0,0.0,0.0,3.8837,4.0537,4.107,4.0935,4.001,3.6853,3.4226,3.4092,3.289,3.1874,0.0,0.0,0.0,0.0,0.0,0.0,3.2938,3.3226,3.3276,3.3169,3.3249,3.2627,3.0955,3.0804,3.0811,3.0817,3.082,3.0859,3.0896,3.0777,0.0,0.0,0.0,0.0,0.0,0.0,0.0,0.0,0.0,0.0,0.0,0.0,0.0,0.0,0.0,0.0,0.0,0.0,0.0,0.0,0.0,0.0,0.0,0.0,0.0,0.0,0.0,0.0,0.0,3.2574,3.4076,3.4042,3.3706,3.3001,0.0,0.0,0.0,0.0,0.0,0.0,0.0,0.0,0.0,4.3032,4.5061,4.6741,4.795,4.9272,5.0098,5.0512,5.1292,5.1708,5.1809,5.2171,5.24,5.247,5.213,5.0305,4.7283,4.2851,4.039,3.9117,0.0,0.0,0.0,0.0,3.514,3.645,3.7679,3.8951,4.0148,4.0645,0.0,0.0,0.0,0.0,0.0,0.0,0.0,3.5696,3.8243,4.0517,4.2359,4.3217,4.4105,4.4607,4.3786,4.1364,3.8513,3.5665,3.4538,3.3754,3.2798,3.2322,0.0,0.0,0.0,3.2451,3.3183,3.3739,3.3827,3.3332,3.3296,3.283,3.1625,3.1088,3.0785,3.0793,3.0808,3.0815,3.0855,3.0859,3.0664,0.0,0.0,0.0,0.0,0.0,0.0,0.0,0.0,0.0,0.0,0.0,0.0,0.0,0.0,0.0,0.0,0.0,0.0,0.0,0.0,0.0,0.0,0.0,0.0,0.0,0.0,0.0,0.0,3.557,3.7094,3.7703,3.7591,3.7001,0.0,0.0,0.0,0.0,0.0,0.0,4.3908,4.5634,4.7213,4.8635,5.0533,5.1849,5.2494,5.374,5.4378,5.4378,5.4978,5.5304,5.5356,5.5544,5.5587,5.5421,5.5421,5.497,5.3774,4.7899,4.5231,4.4562,4.1707,4.0431,4.022,4.0014,4.0701,4.1969,4.301,4.4096,4.5062,4.5714,4.4487,4.2464,4.1043,0.0,0.0,0.0,0.0,3.9816,4.183,4.3944,4.5624,4.5903,4.681,4.7375,4.658,4.5241,4.2785,3.8209,3.677,3.5826,3.4141,3.366,0.0,3.3295,3.3262,3.3347,3.3564,3.4156,3.4317,3.3664,3.359,3.3282,3.2465,3.1779,3.1325,3.1136,3.1126,3.1024,3.0792,3.0805,3.0887,3.1081,0.0,0.0,0.0,0.0,0.0,0.0,0.0,0.0,0.0,0.0,0.0,0.0,0.0,0.0,0.0,0.0,0.0,0.0,0.0,0.0,0.0,0.0,0.0,0.0,0.0,0.0,0.0,0.0,0.0,4.3424,4.3014,0.0,0.0,0.0,0.0,4.3647,4.5371,4.7386,4.9857,5.1508,5.2785,5.3719,5.6117,5.7396,5.7434,5.7528,5.7575,5.7575,5.7612,5.7649,5.7649,5.8416,5.8379,5.7621,5.7621,5.7173,5.6127,5.2169,4.9624,4.8088,4.6306,4.5167,4.4688,4.6246,4.6852,4.7161,4.8809,4.8936,4.8368,4.8406,4.6164,4.3277,4.244,4.0948,0.0,0.0,4.2703,4.408,4.6658,4.8154,4.9174,4.9997,4.9745,4.9067,4.8265,4.7349,4.5726,4.2334,3.9748,3.7522,3.5862,0.0,3.4153,3.3345,3.319,3.3501,3.4315,3.447,3.4509,3.4431,3.4431,3.4091,3.3216,3.3089,3.2768,3.1981,3.1937,3.1608,3.0842,3.0814,3.1164,3.1929,3.1967,0.0,0.0,0.0,0.0,0.0,0.0,0.0,0.0,0.0,0.0,0.0,0.0,0.0,0.0,0.0,0.0,0.0,0.0,0.0,0.0,0.0,0.0,0.0,0.0,0.0,0.0,0.0,0.0,4.6182,4.662,0.0,4.6054,4.6211,4.7037,4.8699,5.081,5.2893,5.4874,5.658,5.7625,5.7961,5.942,6.017,6.017,6.017,5.9918,5.9395,5.9395,5.9134,5.8574,5.8882,5.8845,5.8574,5.8574,5.8396,5.7995,5.6116,5.438,5.2777,5.1653,5.0732,5.0081,5.0689,5.0539,5.0134,5.0751,5.0751,5.0383,4.9378,4.8288,4.7,4.5081,4.4085,4.3773,4.4384,4.5287,4.6392,4.7909,4.9378,5.0563,5.0923,5.1294,5.1314,5.049,4.9684,4.8422,4.6247,4.3443,4.1064,3.9886,3.8545,3.7552,3.7224,3.6745,3.6335,3.6141,3.6118,3.5895,3.5316,3.481,3.4385,3.4043,3.3514,3.3061,3.2802,3.2786,3.2647,3.2343,3.2323,3.2484,3.2786,3.3331,3.3757,0.0,0.0,0.0,0.0,0.0,0.0,0.0,0.0,0.0,0.0,0.0,0.0,0.0,0.0,0.0,0.0,0.0,0.0,0.0,0.0,0.0,0.0,0.0,0.0,0.0,4.4209,4.8073,4.993,5.111,5.1602,5.1045,5.1491,5.2382,5.3757,5.5605,5.7276,5.8661,6.0099,6.0875,6.0875,6.1741,6.2231,6.2231,6.1933,6.1411,6.0601,6.0302,5.9706,5.8885,5.8885,5.8885,5.8885,5.8885,5.8885,5.8848,5.8316,5.7449,5.6358,5.5324,5.4455,5.3708,5.3708,5.3157,5.241,5.214,5.2028,5.1775,5.0189,4.9723,4.9449,4.7485,4.6959,4.6996,4.704,4.7554,4.8225,4.8779,4.9814,5.0737,5.0763,5.1292,5.1707,5.1453,5.0772,4.998,4.9203,4.6503,4.3884,4.2499,4.1308,4.0398,3.9858,3.9087,3.8381,3.784,3.7522,3.7155,3.6577,3.6043,3.5738,3.5738,3.5214,3.4643,3.4064,3.4043,3.3783,3.3201,3.3216,3.3453,3.4027,3.5184,3.5761,3.5761,0.0,0.0,0.0,0.0,0.0,0.0,0.0,0.0,0.0,0.0,0.0,0.0,0.0,0.0,0.0,0.0,0.0,0.0,0.0,0.0,0.0,0.0,0.0,4.4209,4.8481,5.2531,5.4899,5.6645,5.7647,5.7647,5.7621,5.7945,5.8762,5.9542,6.0359,6.1224,6.1993,6.2439,6.2439,6.3171,6.3579,6.3579,6.2799,6.2019,6.1191,6.0337,5.9494,5.8714,5.8714,5.8687,5.8687,5.8687,5.8687,5.8687,5.8687,5.8687,5.856,5.7217,5.6136,5.5314,5.5314,5.4801,5.3979,5.3185,5.2915,5.2663,5.099,5.043,5.0297,4.9519,4.9289,4.9305,4.9459,4.9544,4.9574,4.9574,4.9685,4.9785,4.9823,4.9893,5.0196,5.104,5.0612,5.0296,5.1115,4.8785,4.5926,4.3488,4.3036,4.2483,4.0921,3.9969,0.0,3.9422,3.8691,3.8218,3.8179,3.8218,3.8283,3.8283,3.8257,3.7594,3.5973,3.5841,3.512,3.3451,3.3412,3.4178,3.5818,3.7453,3.829,3.829,0.0,0.0,0.0,0.0,0.0,0.0,0.0,0.0,0.0,0.0,0.0,0.0,0.0,0.0,0.0,0.0,0.0,0.0,0.0,0.0,0.0,4.5992,4.915,4.8593,5.3237,5.7387,5.9282,6.0396,6.1028,6.1028,6.0518,6.0518,6.1325,6.1585,6.2068,6.2885,6.3066,6.3143,6.3143,6.3262,6.3242,6.3159,6.2937,6.2373,6.1492,6.0739,6.001,5.9198,5.8745,5.8572,5.8572,5.8656,5.8687,5.8687,5.8687,5.8687,5.8661,5.8277,5.7255,5.6028,5.6028,5.5107,5.3842,5.3609,5.3628,5.3422,5.1736,5.1229,5.099,4.9641,4.9238,4.9246,4.9271,4.9295,4.9319,4.9319,4.9352,4.961,5.0249,5.0967,5.1564,5.1752,5.1699,5.1486,5.1085,4.9824,4.8498,4.7375,4.6205,4.5279,4.4836,4.3584,4.2492,4.1904,4.1183,4.0468,3.9849,3.9884,3.9932,3.9932,3.9939,3.9731,3.9271,3.9239,3.8778,3.7735,3.8276,3.8775,3.9232,3.9754,3.9995,0.0,0.0,0.0,0.0,0.0,0.0,0.0,0.0,0.0,0.0,0.0,0.0,0.0,0.0,0.0,0.0,0.0,0.0,0.0,0.0,0.0,0.0,5.1705,5.508,5.5636,5.8619,6.125,6.255,6.3108,6.3382,6.3337,6.2595,6.2276,6.2701,6.2738,6.29,6.3336,6.3265,6.3183,6.3075,6.299,6.2855,6.263,6.263,6.2151,6.1159,6.0542,5.9798,5.8992,5.8442,5.8198,5.8209,5.8411,5.8486,5.8486,5.8529,5.8551,5.8561,0.0,0.0,0.0,0.0,5.4648,5.3784,5.3784,5.3869,5.3656,5.1972,5.172,5.1736,5.0138,4.9886,5.0081,4.9787,4.9691,4.9616,4.928,4.9246,4.9391,4.9877,5.0445,5.0976,5.1252,5.1136,5.0936,5.0815,5.0169,0.0,4.914,4.8086,4.7181,4.6864,4.5729,4.4756,4.4282,4.3561,4.2895,4.2422,4.2157,4.1984,4.201,4.171,0.0,0.0,0.0,4.0696,3.9906,4.0638,0.0,0.0,0.0,4.2247,4.2247,4.2676,0.0,0.0,4.1577,4.1548,0.0,0.0,0.0,0.0,0.0,0.0,0.0,0.0,0.0,0.0,0.0,0.0,0.0,0.0,0.0,0.0,5.7264,6.1078,6.3423,6.3924,6.429,6.4932,6.4932,6.4811,6.4668,6.3879,6.3265,6.3135,6.3123,6.3063,6.2917,6.2867,0.0,0.0,0.0,6.2295,6.1978,6.1965,6.1471,6.0585,5.9891,5.9173,5.8497,5.7947,5.7691,5.7763,5.7997,5.8111,5.8122,5.8271,5.8242,5.8117,5.756,5.6874,5.6057,5.4397,5.3802,5.3775,5.3784,0.0,0.0,5.2048,5.2011,5.2317,5.0874,5.0938,5.1365,5.0707,5.0442,5.0218,4.9471,4.9264,4.9189,4.9301,4.9384,4.9691,5.0505,5.0085,4.9797,5.0546,5.0041,4.9459,4.9459,4.9016,4.8394,4.7729,4.6948,4.6449,4.6449,4.5733,4.5299,4.5331,4.4701,0.0,4.4366,4.3651,4.2876,4.2183,4.1999,4.1698,4.12,4.1741,4.2168,4.2364,4.3957,4.4795,4.4803,4.5585,4.6401,4.7136,4.4798,4.4207,0.0,0.0,0.0,0.0,0.0,0.0,0.0,0.0,0.0,0.0,0.0,0.0,0.0,0.0,0.0,5.7603,6.1333,6.4214,6.5742,6.6463,6.6671,6.6307,6.568,6.5225,6.5111,6.3762,6.2855,6.273,6.2717,6.2579,6.2284,6.2166,6.2032,6.1869,6.162,6.1394,6.1206,6.1039,6.082,6.0493,5.923,0.0,5.8528,5.7405,5.7063,5.7313,5.7425,5.7558,5.7739,5.7726,5.7361,5.6664,5.6329,5.6119,5.5796,5.4296,5.3733,5.3716,5.3793,5.3784,5.3636,5.2679,5.2457,5.2419,5.1472,5.1295,0.0,5.1248,5.069,5.0132,4.9983,4.9514,4.9276,4.9938,5.0632,5.1364,5.2214,5.1746,5.1203,5.1381,5.0248,4.9254,4.9254,4.9317,4.9332,4.9196,4.8492,4.7968,4.7968,4.7304,4.6852,4.6871,4.6784,4.6744,4.6724,4.6054,4.5561,4.5403,4.4124,4.3945,4.5132,4.4636,4.5001,4.6418,4.686,4.7072,4.7129,4.7415,4.7655,4.7784,4.6834,4.6846,0.0,0.0,0.0,0.0,0.0,0.0,0.0,0.0,0.0,0.0,0.0,4.7058,5.0385,0.0,5.7745,6.1442,6.3996,6.585,6.6869,6.7099,6.7089,6.7023,6.6213,6.5567,6.5364,6.3878,6.2838,6.2608,6.2246,6.1906,6.1564,6.1479,6.1308,6.1001,6.0822,6.0626,6.0415,6.0286,6.016,6.0036,5.8611,5.7993,5.7997,5.6773,5.6284,5.6447,5.6648,5.677,5.6948,5.7089,5.6848,5.6364,5.5789,5.5574,5.5405,5.4753,5.4533,5.457,5.424,5.4209,5.4037,5.2824,5.2779,5.3003,5.215,5.2224,5.2531,5.2122,5.1676,5.1268,5.0859,5.0486,5.0335,5.0736,5.119,5.1635,5.2045,5.181,5.1435,5.1025,5.0322,4.9654,4.928,4.9656,4.9901,4.949,4.9145,4.8964,4.8964,4.8617,4.839,4.844,4.8088,4.7871,4.7911,4.7187,4.6765,4.6797,4.6,4.5943,4.6809,4.6429,4.6599,4.7466,4.7951,4.8418,4.8867,4.9381,4.9876,5.0358,5.0043,4.9764,0.0,0.0,0.0,0.0,0.0,0.0,0.0,0.0,4.6131,4.6131,4.953,5.3193,5.548,5.8541,6.1562,6.4341,6.5809,6.6746,6.7185,6.6714,6.6431,6.6721,6.6125,6.5583,6.5358,6.3885,6.2781,6.2447,6.173,6.1154,6.0798,6.0782,6.0584,6.0183,6.0135,5.9991,5.9716,5.9648,5.9584,5.947,5.8191,5.7504,5.7377,5.6255,5.5681,5.5613,5.5872,5.6127,5.6395,5.6594,5.6621,5.644,5.5798,5.5414,5.5148,5.5121,5.5197,5.5271,5.4759,5.4658,5.4581,5.3296,5.3393,5.387,5.3245,5.3602,5.4061,5.3459,5.3181,5.294,5.2271,5.1862,5.1676,5.1825,5.1751,5.1676,5.1825,5.1805,5.1516,5.0883,5.0655,5.0379,4.9753,5.0172,5.0355,4.9623,4.9621,4.9668,4.9668,4.9556,4.9474,4.9514,4.892,4.8468,4.8352,4.7749,4.7363,4.7267,4.7236,4.7332,4.7544,4.7733,4.7891,4.8056,4.8898,4.9645,5.0327,5.1078,5.1818,5.257,5.2609,5.2085,3.7881,3.9643,4.1735,4.3342,4.4415,4.5112,0.0,4.8316,5.1179,5.1179,5.495,5.8839,6.0659,6.3088,6.5113,6.6014,6.6786,6.712,6.6684,6.5697,6.488,6.4523,6.4731,6.4849,6.47,6.327,6.2169,6.1832,6.1122,6.0497,5.9956,5.9924,5.9862,5.9668,5.9503,5.9403,5.9369,5.9183,5.9081,5.9064,5.8252,5.7592,5.7046,5.6226,5.5649,5.5274,5.5502,5.5962,5.656,5.6605,5.6605,5.659,5.6484,5.605,5.5377,5.4616,5.453,5.4798,5.482,5.4961,5.5051,5.497,5.5026,5.5144,5.529,5.5476,5.5665,5.5694,5.5238,5.4713,5.4602,5.3534,5.2642,5.3348,5.2977,5.2679,5.3385,5.2977,5.2429,5.2354,5.1778,5.1258,5.1155,5.1283,5.1148,5.0393,5.0306,5.0314,5.0314,4.9679,4.9238,4.9254,4.9206,4.894,4.8273,4.813,4.7792,4.7078,4.7041,4.7349,4.8078,4.8867,4.9612,5.0395,5.1162,5.1613,5.1751,5.1872,5.1963,5.2069,5.2264,5.2475,4.1829,4.3277,4.4892,4.7021,4.8857,5.0398,5.1316,5.4326,5.6873,5.6782,5.948,6.2202,6.3234,6.4646,6.5857,6.6385,6.6577,6.6334,6.5371,6.4638,6.3738,6.2448,6.2392,6.2668,6.3159,6.2155,6.1373,6.113,6.0447,5.9881,5.9518,5.9501,5.9418,5.9268,5.9149,5.9115,5.9115,5.9047,5.8995,5.8995,5.8254,5.777,5.7491,5.6782,5.6328,5.6125,5.6299,5.6551,5.683,5.6974,5.6943,5.6814,5.6814,5.6655,5.6261,5.5384,5.5218,5.5334,5.5037,5.505,5.5168,5.4748,5.4762,5.4964,5.507,5.5336,5.5581,5.5701,5.5597,5.5443,5.5505,5.5007,5.461,5.505,5.4885,5.4756,5.5149,5.4983,5.4463,5.3497,5.3051,5.2494,5.1565,5.1815,5.2038,5.1711,5.1361,5.1102,5.1102,5.0804,5.0617,5.0617,5.0613,5.0497,5.0193,4.9752,4.9527,4.9669,4.922,4.934,5.0164,5.0538,5.0883,5.1262,5.1566,5.1969,5.2527,5.2527,5.2777,5.3278,5.3386,5.3541,4.4866,4.6122,4.7545,5.0261,5.2564,5.4609,5.6235,5.8731,6.0701,6.0517,6.2197,6.3763,6.3802,6.4654,6.5366,6.5385,6.5361,6.5032,6.4021,6.3189,6.2176,6.0691,6.0072,6.0091,6.0923,6.0746,6.0625,6.0631,5.992,5.9419,5.9234,5.9234,5.9132,5.9012,5.8995,5.8995,5.8995,5.8995,5.8995,5.8995,5.8461,5.8116,5.7874,5.715,5.6805,5.6805,5.6902,5.7055,5.7278,5.7409,5.7376,5.7262,5.7262,5.7124,5.6877,5.6233,5.6144,5.6258,5.578,5.5752,5.5867,5.5311,5.5348,5.561,5.5726,5.6004,5.6309,5.6548,5.6527,5.6506,5.6629,5.6331,5.6032,5.6187,5.6056,5.5971,5.6152,5.6213,5.5909,5.4713,5.45,5.4128,5.294,5.3237,5.3534,5.3311,5.2865,5.2396,5.1911,5.1696,5.1556,5.1573,5.1573,5.1591,5.1617,5.1065,5.099,5.1542,5.1065,5.099,5.1579,5.1841,5.1953,5.1953,5.2151,5.2553,5.3187,5.316,5.3477,5.4109,5.4136,5.4189,4.6468,4.8175,5.0261,5.3445,5.55,5.7104,5.8719,6.0382,6.1483,6.122,6.2483,6.3238,6.2081,6.3118,6.3812,6.2787,6.2979,6.3172,6.2801,6.1157,5.9853,5.9403,5.8019,5.7348,5.7977,5.9021,5.9866,6.0444,5.9751,5.9234,5.9012,5.9012,5.9012,5.8995,5.8995,5.8995,5.8995,5.8995,5.8995,5.8995,5.8961,5.8582,5.7874,5.715,5.6805,5.6805,5.6805,5.7219,5.7874,5.7874,5.7874,5.7874,5.7874,5.7426,5.6822,5.6769,5.7059,5.7452,5.7417,5.751,5.7649,5.7766,5.7792,5.7882,5.8331,5.8587,5.8796,5.9253,5.8896,5.8443,5.8567,5.7473,5.633,5.6458,5.5987,5.5592,5.5866,5.6002,5.6115,5.6226,5.6209,5.6209,5.6172,5.6172,5.5902,5.5047,5.4909,5.4314,5.2763,5.1909,5.1425,5.1505,5.1514,5.1512,5.1571,5.1579,5.1579,5.1579,5.1579,5.1579,5.1579,5.2401,5.2849,5.2849,5.3552,5.3954,5.3954,5.3851,5.3804,5.3804,5.3954,5.4,4.7819,5.0244,5.2637,5.5317,5.7593,5.9429,6.0445,6.1885,6.2795,6.1801,6.1625,6.1258,5.9803,5.9945,6.0048,5.9365,6.0646,6.1457,6.057,6.035,5.9627,5.7835,5.718,5.694,5.715,5.7957,5.8768,5.946,5.9236,5.9064,5.9012,5.8995,5.8995,5.8995,5.8995,5.8995,5.8995,5.8995,5.8995,5.8995,5.8995,5.8857,5.8616,5.8375,5.8237,5.8237,5.8237,5.8392,5.8616,5.8616,5.8616,5.8616,5.8616,5.8478,5.8237,5.8237,5.8355,5.8367,5.7378,5.7129,5.7238,5.7286,5.7459,5.7677,5.7811,5.8038,5.824,5.8488,5.8459,5.8399,5.8537,5.8264,5.8001,5.8236,5.8284,5.8397,5.8858,5.8633,5.8258,5.7951,5.7462,5.6952,5.6395,5.632,5.6209,5.5912,5.4909,5.4007,5.345,5.3153,5.2986,5.3014,5.3014,5.3033,5.3061,5.2586,5.2474,5.3033,5.2549,5.2512,5.3033,5.333,5.3516,5.3516,5.3749,5.3879,5.3879,5.3804,5.3784,5.3784,5.3869,5.3879,4.983,5.2553,5.5049,5.7471,5.9465,6.0921,6.1261,6.1918,6.1982,6.0296,5.9132,5.7864,5.6049,5.6148,5.6341,5.5909,5.7936,5.941,5.8953,5.9285,5.8993,5.7374,5.6978,5.6909,5.7185,5.7633,5.8219,5.8926,5.8995,5.8995,5.8995,5.8995,5.8995,5.8995,5.8995,5.8995,5.8995,5.8995,5.8995,5.8995,5.8995,5.8995,5.8995,5.8995,5.8995,5.8995,5.8995,5.8995,5.8995,5.8995,5.8995,5.8995,5.8995,5.8995,5.8995,5.8995,5.8995,5.8857,5.7909,5.7631,5.7713,5.7713,5.7862,5.8057,5.8122,5.8282,5.8437,5.8635,5.8597,5.8456,5.8606,5.8526,5.8473,5.8786,5.9091,5.9467,6.0017,5.993,5.9686,5.9508,5.9086,5.8497,5.7722,5.71,5.6729,5.6729,5.5577,5.4574,5.4267,5.397,5.3784,5.3784,5.3784,5.3784,5.3784,5.3348,5.3227,5.3784,5.3302,5.3274,5.3794,5.3784,5.3784,5.3784,5.3784,5.3784,5.3784,5.3784,5.3784,5.3784,5.3784,5.3784,5.2494,5.502,5.7545,5.9869,6.1043,6.152,6.1197,6.0526,5.9256,5.6871,5.5089,5.3284,0.0,0.0,5.2719,5.2425,5.4907,5.7154,5.7951,5.8044,5.8012,0.0,0.0,0.0,0.0,0.0,5.8306,5.9064,5.9064,5.9064,5.9064,5.9064,5.9064,5.9064,5.903,5.903,5.9064,5.9099,5.9099,5.9064,5.9064,5.903,5.8995,5.8995,5.8995,5.8995,5.8995,5.8995,5.8995,5.903,5.9064,5.9064,5.9099,5.9099,5.9099,5.9099,5.9099,5.9099,5.9099,5.9064,5.8995,5.8995,5.8995,5.903,5.9234,5.9285,5.9369,5.9683,5.9241,5.8749,5.8857,5.8328,5.7879,5.8194,5.8485,5.8873,5.9479,5.9923,6.0347,6.0741,6.0899,6.0774,6.0067,5.864,5.761,5.761,5.6915,5.606,5.5159,5.4342,5.3859,5.3859,5.3822,5.3784,5.3784,5.3784,5.3784,5.3784,5.3784,5.3784,5.3784,5.3784,5.3784,5.3784,5.3784,5.3784,5.3784,5.3784,5.3784,5.3784,5.3784,5.3784,5.4993,5.7549,5.9758,6.097,6.1386,6.1213,6.0364,5.8972,5.7049,5.4135,5.1327,4.8712,4.6523,4.6904,4.7659,4.8093,5.2101,5.5421,5.618,5.8218,0.0,5.8788,0.0,5.9392,5.9599,5.9599,5.9909,6.0668,6.022,5.9909,5.9909,5.9909,5.9909,5.9909,5.9306,5.9288,5.9875,6.0427,6.0427,5.9909,5.9909,5.9599,5.8995,5.8995,5.8995,5.8995,5.8995,5.8995,5.903,5.9668,5.9909,5.9944,6.0496,6.0703,6.0703,6.0703,6.0703,6.0703,6.0703,5.9978,5.8995,5.8995,5.8995,5.9012,5.9047,5.9064,5.9098,5.9183,5.9078,5.894,5.8973,5.8952,5.8994,5.9316,5.9628,6.0073,6.0819,6.0707,6.0603,6.114,6.0943,6.0722,6.0726,5.9832,5.9186,5.9271,5.8093,5.6915,5.606,5.5233,5.4676,5.4676,5.4156,5.3784,5.3784,5.3784,5.3784,5.3784,5.3784,5.3784,5.3784,5.3784,5.3784,5.3784,5.3784,5.3784,5.3784,5.3784,5.3784,5.3784,5.3784,5.3784,5.7661,5.9564,6.1031,6.1422,6.1177,6.0222,5.8002,5.5869,5.33,4.9558,4.6518,4.4026,4.2299,4.2907,4.4287,0.0,0.0,0.0,5.5874,5.8495,6.0047,0.0,6.022,0.0,6.0668,6.0668,6.084,6.1254,6.0909,6.0668,6.0668,6.0668,6.053,6.022,5.9771,5.9737,6.0185,6.0944,6.1082,6.0668,6.0668,6.0461,5.9995,5.9995,5.9995,5.9995,5.9995,5.9995,6.0047,6.0496,6.0668,6.0737,6.1151,6.1289,6.1289,6.1289,6.1289,6.1289,6.1289,6.0737,5.9995,5.9995,5.9995,5.9995,5.9995,5.9995,5.9944,5.9633,5.953,5.9461,5.9099,5.9081,5.9233,5.9518,5.9797,6.0167,6.0752,6.0759,6.0839,6.1508,6.1187,6.0908,6.1195,6.0669,6.0215,6.0347,5.9324,5.839,5.7945,5.6533,5.5567,5.5567,5.5169,5.476,5.4342,5.4342,5.4193,5.3822,5.3784,5.3784,5.3784,5.3784,5.3784,5.3784,5.3784,5.3784,5.3784,5.3784,5.3784,5.3784,5.3784,5.3784,6.0138,6.1153,6.1716,6.1471,6.0565,5.8773,5.5073,5.2102,4.884,4.4423,4.1637,3.9637,3.8536,3.9662,4.19,4.5299,0.0,5.2789,5.577,5.8323,5.9978,6.0185,6.0944,6.1496,6.1599,6.1599,6.1599,6.1599,6.1599,6.1565,6.1461,6.1461,6.1116,6.0358,6.0358,6.0392,6.0496,6.1254,6.1565,6.1461,6.1461,6.1392,6.1289,6.1289,6.1289,6.1289,6.1289,6.1289,6.1323,6.1427,6.1461,6.1461,6.1565,6.1599,6.1599,6.1599,6.1599,6.1599,6.1599,6.1599,6.1565,6.1358,6.1289,6.1289,6.1289,6.1289,6.1185,6.053,6.0358,6.0185,5.9495,5.9306,5.9323,5.9441,5.9575,5.9773,6.001,6.0419,6.0948,6.162,6.1398,6.1251,6.1654,6.1261,6.0967,6.1137,6.0554,6.0062,6.0062,5.7945,5.6469,5.6469,5.6357,5.5976,5.5233,5.5159,5.4862,5.4203,5.4119,5.4082,5.397,5.397,5.3896,5.3784,5.3896,5.397,5.397,5.4082,5.4119,5.4119,5.4119,5.4119,6.13,6.1998,6.2426,6.1753,5.9737,5.7037,5.3579,4.9517,0.0,4.1708,3.8925,3.6915,3.5977,3.7569,3.9664,4.1573,4.6113,5.0237,5.2651,5.6065,5.8771,0.0,6.1427,6.253,6.3151,6.3186,6.3186,6.3186,6.3186,6.291,6.2342,6.2289,6.191,6.1116,6.1116,6.1427,6.21,6.2806,6.2894,6.2289,6.2289,6.1944,6.1289,6.1289,6.1289,6.1289,6.1289,6.1289,6.1358,6.2013,6.2289,6.2342,6.2944,6.3186,6.3186,6.3186,6.3186,6.3186,6.3186,6.3186,6.2979,6.1703,6.1289,6.1289,6.1289,6.1289,6.1289,6.1151,6.1116,6.1082,6.0944,6.0909,6.0772,6.0324,6.022,6.0182,5.9921,6.0116,6.0527,6.0918,6.1099,6.1418,6.2152,6.18,6.1579,6.1929,6.1407,6.0953,6.0953,5.8799,5.7286,5.7286,5.6692,5.6246,5.6097,5.606,5.6023,5.5874,5.5874,5.554,5.4825,5.4787,5.449,5.3831,5.4453,5.4787,5.4787,5.554,5.5874,5.5874,5.5874,5.5874,6.2108,6.2499,6.2487,6.1178,5.8799,5.5535,5.0812,0.0,0.0,3.7641,3.563,3.4466,3.3588,3.5604,3.8192,4.0515,4.4699,4.872,5.1789,5.5168,5.8047,5.9978,6.1583,6.279,6.3531,6.36,6.36,6.36,6.36,6.3427,6.3101,6.2721,6.2342,6.1944,6.191,6.2135,6.2514,6.322,6.3427,6.3066,6.3066,6.2875,6.2496,6.2496,6.2496,6.2496,6.2496,6.2703,6.3082,6.3496,6.3876,6.4308,6.4653,6.4791,6.4757,6.4324,6.4152,6.4117,6.3738,6.36,6.3462,6.2737,6.2496,6.2496,6.2496,6.2496,6.2427,6.2013,6.191,6.1806,6.1392,6.1289,6.1238,6.0946,6.0583,6.0289,6.018,5.9946,5.9911,6.0356,6.06,6.0986,6.1795,6.1875,6.2019,6.2533,6.2125,6.1741,6.1808,6.0396,5.9245,5.8799,5.8019,5.7398,5.6952,5.6915,5.6766,5.632,5.632,5.6097,5.5689,5.5679,5.5493,5.5131,5.5466,5.5679,5.5679,5.6097,5.632,5.632,5.632,5.632,6.2279,6.2683,6.2401,6.0652,5.8033,5.4315,4.8438,4.4132,0.0,3.4187,3.2817,3.2385,3.1653,3.3736,3.6493,0.0,4.29,4.6604,5.0356,5.3538,5.6431,5.9047,6.0838,0.0,6.32,6.3404,6.3489,6.3544,6.3544,6.3563,6.36,6.2894,6.2583,6.2721,6.2583,6.2583,6.2721,6.3308,6.36,6.36,6.36,6.36,6.36,6.36,6.36,6.36,6.3772,6.4152,6.4703,6.4876,6.5343,6.5895,6.5895,6.5895,6.5792,6.4979,6.4703,6.46,6.3841,6.36,6.36,6.36,6.36,6.36,6.36,6.36,6.348,6.2894,6.2756,6.2565,6.1944,6.1806,6.1737,6.1599,6.0978,6.0462,6.0653,6.0186,5.9802,6.0093,6.0317,6.0642,6.1249,6.1732,6.2258,6.288,6.2689,6.2501,6.2651,6.1956,6.1187,6.0508,5.9728,5.8985,5.8353,5.8141,5.7722,5.71,5.6915,5.6729,5.658,5.658,5.6469,5.632,5.6469,5.658,5.658,5.6729,5.6803,5.6803,5.6803,5.6803,6.13,6.2254,6.2426,6.0799,5.7667,5.3517,4.7795,0.0,3.8224,3.3261,3.1514,3.086,3.0674,3.2004,3.3838,3.6086,3.9041,4.236,4.6124,4.9257,5.2556,5.6217,0.0,0.0,6.2172,6.2778,6.3133,6.3302,6.3321,6.3396,6.36,6.2894,6.2825,6.348,6.2859,6.2825,6.3496,6.3565,6.36,6.36,6.36,6.36,6.36,6.36,6.36,6.3634,6.4324,6.4634,6.4772,6.5481,6.5826,6.5895,6.5895,6.5895,6.5792,6.4979,6.4703,6.46,6.3841,6.36,6.36,6.36,6.36,6.36,6.36,6.36,6.3565,6.3531,6.3515,6.3462,6.3393,6.3393,6.322,6.2549,6.1772,6.1185,6.1238,6.1169,6.0963,6.0479,6.0679,6.093,6.0879,6.1437,6.2112,6.273,6.311,6.3354,6.3468,6.2773,6.2253,6.2179,6.1436,6.0953,6.089,6.0136,5.9653,5.9579,5.8873,5.813,5.7435,5.7398,5.7063,5.632,5.7026,5.7398,5.7398,5.813,5.8465,5.8465,5.8465,5.8465,6.0162,6.1117,6.1056,5.9858,5.6464,5.1946,4.6168,0.0,3.715,3.183,3.0708,3.0532,2.9935,3.1479,3.3372,3.5051,3.7877,0.0,4.4291,4.7381,5.0678,5.4474,5.6884,5.8903,6.0462,6.1655,6.2559,6.308,6.3114,6.3208,6.3414,6.3269,6.3308,6.3565,6.3342,6.3289,6.36,6.36,6.36,6.36,6.36,6.36,6.36,6.36,6.3841,6.4289,6.4565,6.5221,6.6117,6.6428,6.6827,6.7221,6.7221,6.7221,6.7103,6.5895,6.5412,6.5274,6.4014,6.36,6.36,6.36,6.36,6.36,6.36,6.36,6.36,6.36,6.36,6.36,6.36,6.36,6.3531,6.322,6.2583,6.2013,6.2013,6.1634,6.1273,6.1138,6.1259,6.1461,6.1815,6.2292,6.2904,6.3688,6.3782,6.3861,6.4172,6.3582,6.3108,6.3108,6.1956,6.1187,6.1187,6.0879,6.0693,6.0693,6.0359,5.9839,5.8985,5.8947,5.8576,5.7759,5.8056,5.8205,5.8205,5.8539,5.8687,5.8687,5.8687,5.8687,5.7666,5.8804,5.8817,5.8113,5.4656,5.0006,0.0,0.0,3.6012,3.0845,2.9893,2.9799,2.9153,3.0507,3.2251,3.3874,0.0,3.9318,4.2351,4.5377,4.8596,5.2109,5.4923,5.7156,5.871,6.0637,6.2139,6.2836,6.2904,6.3019,6.3283,6.3433,6.3544,6.36,6.36,6.36,6.36,6.36,6.36,6.36,6.36,6.36,6.36,6.36,6.3979,6.4703,6.4945,6.5773,6.7034,6.7221,6.7635,6.8083,6.8083,6.8083,6.7945,6.6689,6.624,6.5999,6.4462,6.391,6.3876,6.3669,6.36,6.36,6.36,6.36,6.36,6.36,6.36,6.36,6.36,6.36,6.36,6.36,6.3204,6.2825,6.2825,6.2358,6.1946,6.1881,6.1899,6.204,6.2372,6.2827,6.3372,6.4266,6.432,6.4434,6.4843,6.4528,6.4176,6.3999,6.2922,6.2179,6.193,6.1707,6.1548,6.1548,6.1336,6.0916,6.0322,6.0285,5.9913,5.9059,5.9059,5.8947,5.8687,5.8687,5.8687,5.8687,5.8687,5.8836,5.3335,5.5023,5.5625,5.5466,5.2123,4.7727,0.0,3.9041,3.4646,3.0542,2.9012,2.8362,2.8143,2.8724,2.9933,3.1985,3.4201,0.0,3.9737,4.274,4.5717,0.0,5.235,5.5279,5.6982,5.984,6.193,6.2659,6.2693,6.2866,6.3265,6.3283,6.3396,6.36,6.36,6.36,6.36,6.36,6.36,6.36,6.36,6.36,6.36,6.36,6.3979,6.4738,6.555,6.6309,6.7068,6.7773,6.8083,6.8083,6.8083,6.8083,6.8014,6.7256,6.6999,6.6773,6.5221,6.4703,6.4565,6.3841,6.36,6.36,6.36,6.36,6.36,6.36,6.36,6.36,6.36,6.36,6.36,6.36,6.36,6.3565,6.3565,6.3565,6.3358,6.2652,6.2606,6.256,6.2176,6.2665,6.3331,6.3992,6.4625,6.5113,6.5533,6.5693,6.5517,6.4879,6.4779,6.4445,6.3628,6.2848,6.2402,6.2402,6.1622,6.1187,6.1187,6.1187,6.0768,5.9913,5.9876,5.9505,5.8687,5.8687,5.8687,5.8687,5.8687,5.9133,4.8443,4.9985,5.0421,4.9648,4.7072,4.3694,3.9883,3.6489,3.3298,3.0325,2.9012,2.8344,2.8211,2.8724,3.0078,3.2679,3.4978,3.7449,0.0,0.0,0.0,4.7954,5.1995,5.5785,5.8853,6.0005,6.109,6.2411,6.2479,6.2596,6.29,6.2885,6.3095,6.3581,6.36,6.36,6.36,6.36,6.36,6.36,6.36,6.36,6.36,6.36,6.4289,6.5531,6.5792,6.662,6.7773,6.8014,6.8083,6.8083,6.8083,6.8083,6.8014,6.7256,6.6999,6.6792,6.5221,6.4703,6.4565,6.3841,6.36,6.36,6.36,6.36,6.36,6.36,6.36,6.36,6.36,6.36,6.36,6.36,6.36,6.36,6.36,6.36,6.3531,6.3308,6.3275,6.337,6.3502,6.39,6.4452,6.53,6.5439,6.5651,6.6193,6.6002,6.5777,6.5696,6.5151,6.4482,6.3665,6.3368,6.3219,6.3219,6.2959,6.2588,6.203,6.2041,6.1622,6.0805,6.0778,6.0656,6.0396,6.0396,6.0396,6.0407,5.9802,5.9988,4.2865,4.4296,4.4573,4.4098,4.1987,0.0,3.6612,3.3952,3.1516,2.9598,2.9014,2.868,2.8236,2.9194,3.0717,3.2703,3.5159,3.7642,4.002,4.2807,4.5819,4.9172,5.2536,5.5919,5.937,5.9945,6.0622,6.1873,6.2265,6.2479,6.2707,6.2707,6.2923,6.347,6.3489,6.3526,6.36,6.36,6.36,6.36,6.36,6.36,6.36,6.36,6.4446,6.5895,6.5895,6.6758,0.0,6.8083,6.8083,6.8083,6.8083,6.8083,6.8049,6.7566,6.7428,6.7187,6.5669,6.5152,6.4979,6.3945,6.36,6.36,6.36,6.36,6.36,6.36,6.36,6.36,6.36,6.36,6.36,6.36,6.36,6.36,6.36,6.36,6.36,6.36,6.36,6.3728,6.4127,6.4515,6.5045,6.5859,6.6124,6.6403,6.6946,6.6801,6.6605,6.6479,6.6056,6.5262,6.4148,6.3776,6.359,6.359,6.359,6.3368,6.2885,6.2848,6.2476,6.1659,6.1659,6.1521,6.1187,6.1187,6.1187,6.1187,6.0953,6.1139,0.0,3.8241,3.8554,3.9033,3.726,3.5081,0.0,0.0,0.0,2.8607,2.8972,2.9222,2.8288,3.0022,3.1764,3.229,3.4967,3.7461,3.8949,4.2469,4.6766,5.1792,5.3721,5.5818,5.8709,5.9674,6.0419,6.1231,6.1975,6.2479,6.2688,6.2688,6.2847,6.3265,6.3265,6.3377,6.36,6.36,6.36,6.36,6.36,6.36,6.36,6.36,6.4446,6.5895,6.5895,6.6758,6.8083,6.8083,6.8083,6.8083,6.8083,6.8083,6.8083,6.8083,6.8083,6.7876,6.6413,6.5895,6.5654,6.4101,6.36,6.36,6.3669,6.3634,6.36,6.36,6.36,6.36,6.36,6.36,6.36,6.36,6.3634,6.3669,6.3669,6.3703,6.3772,6.3772,6.3772,6.3867,6.4231,6.4672,6.5197,6.5911,6.6572,6.714,6.7647,6.7939,6.7862,6.7247,6.7258,6.6662,6.5113,6.4185,6.3665,6.359,6.359,6.359,6.359,6.359,6.3256,6.2513,6.2476,6.2105,6.1362,6.1288,6.1288,6.141,6.2068,6.2439,3.1708,0.0,3.5871,3.5847,3.5209,3.414,0.0,0.0,0.0,0.0,0.0,0.0,0.0,3.0468,3.2534,3.3121,3.6175,3.9017,4.0493,4.4891,4.9255,5.2807,5.4532,5.6375,5.8776,5.9674,6.0419,6.1231,6.1975,6.242,6.2459,6.2459,6.2654,6.3057,6.3076,6.3246,6.36,6.36,6.36,6.36,6.36,6.36,6.36,6.36,6.4446,6.5895,6.5895,6.6758,6.8083,6.8083,6.8083,6.8083,6.8083,6.8083,6.8083,6.8083,6.8083,6.7876,6.6413,6.5895,6.5654,6.4101,6.36,6.3703,6.4255,6.4048,6.36,6.36,6.36,6.36,6.36,6.36,6.36,6.36,6.4014,6.4427,6.4427,6.4929,6.5378,6.5378,6.5378,6.5284,6.5082,6.5355,6.5665,6.5967,6.6431,6.7011,6.7633,6.7847,6.7982,6.8012,6.7506,6.7011,6.6736,6.5373,6.4259,6.3628,6.359,6.359,6.359,6.359,6.3516,6.333,6.333,6.3219,6.3033,6.2402,6.2439,6.3033,6.2588,6.2736,3.054,3.1745,3.2837,3.304,3.2929,3.2418,3.1247,0.0,0.0,0.0,0.0,0.0,0.0,3.1861,3.383,3.4389,3.7303,4.0616,4.3829,4.7582,5.0879,5.3213,5.4786,5.6308,5.7829,5.866,5.9539,6.0655,6.1467,6.1907,6.1907,6.1951,6.2144,6.2487,6.2221,6.2563,6.36,6.36,6.36,6.36,6.36,6.36,6.36,6.36,6.422,6.5343,6.5343,6.6014,6.7083,6.7083,6.729,6.7601,6.7601,6.7807,6.8083,6.8083,6.8083,6.7945,6.6792,6.6171,6.5688,6.4496,6.4358,6.4722,6.5117,6.4964,6.4653,6.4653,6.4653,6.4653,6.4653,6.4653,6.4653,6.4653,6.4945,6.5255,6.5255,6.5585,6.5895,6.5895,6.5895,6.5871,6.5847,6.6196,6.6563,6.6968,6.7255,6.7557,6.8037,6.8054,6.8068,6.8196,6.7951,6.7641,6.7342,6.6451,6.5596,6.4779,6.4742,6.4742,6.4742,6.4742,6.4556,6.4148,6.3776,6.359,6.359,6.3145,6.3182,6.359,6.3145,6.3182,3.117,3.1097,3.0913,3.1574,3.1599,3.1348,3.0933,0.0,0.0,0.0,0.0,0.0,0.0,3.358,3.5431,3.5915,3.8829,4.2814,4.7898,5.0335,5.2181,5.3822,5.5192,5.6274,5.69,5.7645,5.8592,5.9844,6.0655,6.1129,6.1129,6.1268,6.1442,6.1702,6.1234,6.1691,6.3184,6.3358,6.3478,6.3563,6.36,6.36,6.36,6.36,6.3979,6.4703,6.4703,6.5152,6.5895,6.5895,6.6344,6.6999,6.6999,6.7428,6.8083,6.8083,6.8083,6.798,6.7256,6.6516,6.5792,6.5083,6.5324,6.593,6.6033,6.6068,6.6102,6.6206,6.6068,6.5895,6.5895,6.5895,6.5895,6.5895,6.5999,6.6068,6.6068,6.619,6.6278,6.6278,6.6317,6.6415,6.6668,6.7074,6.7584,6.82,6.8311,6.8437,6.8767,6.8496,6.8242,6.8267,6.8395,6.8209,6.7528,6.7491,6.7193,6.6525,6.6228,6.6079,6.6079,6.6079,6.5671,6.4816,6.4148,6.3702,6.359,6.359,6.359,6.359,6.359,6.359,3.117,3.2308,3.342,3.4158,3.4193,3.379,3.2946,0.0,0.0,0.0,0.0,0.0,0.0,3.4514,3.7134,3.7798,4.2044,4.6823,5.1238,5.2716,5.4059,5.6072,5.7036,5.7629,5.773,5.8389,5.8912,5.9148,5.9877,6.0283,6.0283,6.0472,6.0659,6.0897,6.0779,6.0976,6.14,6.2251,6.2906,6.334,6.3526,6.36,6.36,6.36,6.3979,6.4703,6.4703,6.5152,6.5895,6.5895,6.6344,6.6999,6.6999,6.7428,6.8083,6.8083,6.8083,6.798,6.7256,6.6516,6.5895,6.5757,6.5792,6.6033,6.6654,6.6827,6.6945,6.7566,6.6842,6.5895,6.5895,6.5895,6.5895,6.5895,6.6378,6.6827,6.6827,6.748,6.8012,6.8012,6.8147,6.8164,6.7762,6.7988,6.8239,6.8271,6.8667,6.9134,6.9644,6.9247,6.8997,6.9078,6.8641,6.8334,6.8333,6.8308,6.8271,6.8122,6.6859,6.6079,6.6079,6.6079,6.5671,6.4816,6.4668,6.4296,6.359,6.359,6.359,6.359,6.359,6.359,3.1317,3.2889,3.4637,3.546,3.5469,3.5141,0.0,0.0,0.0,0.0,0.0,0.0,0.0,3.7153,4.0141,4.3249,4.6506,4.9725,5.2909,5.4277,5.5298,5.623,5.6904,5.7306,5.7306,5.7611,5.8134,5.8945,5.9317,5.9543,5.9655,5.9874,6.0075,6.0275,5.9864,6.0035,6.0839,6.1004,6.1642,6.2703,6.2887,6.3186,6.36,6.36,6.3772,6.4117,6.4117,6.4324,6.4653,6.4653,6.5083,6.5807,6.624,6.6861,6.7532,6.7945,6.8083,6.798,6.7256,6.7034,6.7034,6.662,6.6758,6.7172,6.7497,6.7876,6.831,6.8655,6.7965,6.7083,6.7083,6.7083,6.7083,6.7083,6.7325,6.7566,6.7566,6.8018,6.8435,6.8551,6.8819,6.9015,6.8977,6.9265,6.9594,6.9836,6.9885,7.0081,7.05,7.0133,6.9874,6.994,6.9432,6.9088,6.915,6.8753,6.8493,6.8493,6.7825,6.7379,6.7379,6.6971,6.6562,6.6153,6.5262,6.4853,6.4928,6.4482,6.4482,6.4928,6.4928,6.4705,3.136,3.3029,3.4968,3.6046,0.0,0.0,0.0,0.0,0.0,0.0,0.0,0.0,0.0,4.0295,4.3542,4.8057,5.0373,5.2345,5.4539,5.574,5.6439,5.6575,5.6893,5.7159,5.7195,5.7123,5.7561,5.8715,5.878,5.8835,5.9037,5.9218,5.9398,5.9576,5.9027,5.9161,6.0125,5.9743,6.0433,6.2132,6.2387,6.2894,6.36,6.36,6.36,6.36,6.36,6.36,6.36,6.36,6.4014,6.4772,6.5585,6.6447,6.7325,6.7876,6.8083,6.8014,6.7428,6.7635,6.8014,6.7428,6.7635,6.8083,6.8083,6.8655,6.9311,6.9311,6.9,6.8635,6.8635,6.8635,6.8635,6.8635,6.8635,6.8601,6.8428,6.8576,6.876,6.8835,6.9178,6.9634,7.0026,7.0391,7.0745,7.1187,7.1081,7.1038,7.1341,7.1006,7.075,7.079,7.0272,6.9942,6.9979,6.9422,6.9051,6.9051,6.8716,6.8493,6.8493,6.7899,6.7491,6.7305,6.5856,6.5411,6.6079,6.5225,6.5262,6.6079,6.6079,6.5745,3.1207,3.2639,3.4284,3.5899,3.6201,0.0,3.7802,3.7934,0.0,3.8403,0.0,0.0,0.0,4.3343,4.6983,4.9499,5.2326,5.495,5.7054,5.7432,5.7707,5.8269,5.8176,5.8157,5.8369,5.8031,5.7939,5.8255,5.8092,5.8074,5.8273,5.847,5.8576,5.8594,5.856,5.8471,5.8377,5.8522,5.9722,6.1944,6.2332,6.2894,6.36,6.36,6.36,6.36,6.36,6.36,6.36,6.36,6.4014,6.4772,6.5585,6.6792,6.8014,6.8083,6.8083,6.8083,6.8049,6.8049,6.8083,6.8049,6.8049,6.8083,6.8083,6.8655,6.9311,6.9311,6.9759,7.0242,7.0242,7.0242,7.0242,7.0242,7.0242,7.007,6.938,6.9525,6.9671,6.9335,6.9671,7.0183,7.056,7.0927,7.1204,7.1447,7.1738,7.1975,7.2175,7.1753,7.1489,7.1589,7.1033,7.0694,7.0821,7.0759,7.0722,7.0722,6.9348,6.8493,6.8493,6.8456,6.8048,6.7305,6.6451,6.6042,6.6079,6.5225,6.5262,6.6079,6.6079,6.6079,3.117,3.2192,3.358,3.5752,3.6655,0.0,0.0,4.1488,4.2619,4.3544,4.3992,0.0,0.0,4.5956,4.8893,5.1666,5.4253,5.6531,5.8221,5.8393,5.8444,5.8649,5.8401,5.8294,5.849,5.8259,5.8099,5.8171,5.8117,5.8153,5.8384,5.8455,5.8561,5.8666,5.8561,5.8472,5.8401,5.8472,5.9245,6.0672,6.0923,6.1461,6.2186,6.2687,6.2928,6.2963,6.3393,6.36,6.36,6.36,6.3772,6.4117,6.5412,6.6516,6.7463,6.7911,6.8083,6.8083,6.8083,6.8083,6.8083,6.8083,6.8083,6.8083,6.8083,6.898,7.0001,7.0001,7.0518,7.0981,7.0518,7.0415,7.0415,7.0415,7.007,6.9656,6.9345,6.9213,6.9206,6.9449,7.0008,7.0628,7.1126,7.1494,7.1775,7.1979,7.2099,7.2233,7.2394,7.2324,7.2281,7.2314,7.1793,7.1311,7.0932,7.0908,7.0908,7.0908,6.9868,6.9236,6.9236,6.8753,6.8345,6.8048,6.7268,6.7082,6.7602,6.6748,6.6785,6.7602,6.7602,6.7305,3.1421,3.2185,3.325,3.6016,0.0,0.0,4.2996,4.4703,4.5961,4.7377,4.7735,4.756,4.6886,4.8294,5.0375,5.2977,5.5115,5.6943,5.8444,5.8755,5.884,5.8822,5.8508,5.8384,5.8578,5.8366,5.8225,5.8384,5.8277,5.8294,5.849,5.8437,5.8472,5.8596,5.8472,5.8419,5.8419,5.8472,5.8835,5.9544,5.9753,6.0358,6.1323,6.2117,6.2514,6.2549,6.3289,6.36,6.36,6.36,6.3738,6.4083,6.5412,6.6344,6.7083,6.7807,6.8083,6.8083,6.8083,6.8083,6.8083,6.8083,6.8083,6.8083,6.8083,6.9187,7.0415,7.0415,7.0912,7.136,7.0898,7.0567,7.0415,7.0415,7.0001,6.9676,6.9736,6.9623,6.9707,7.0411,7.0891,7.1421,7.1935,7.2109,7.2218,7.2321,7.2336,7.2416,7.2481,7.2582,7.2653,7.2709,7.2455,7.2114,7.1685,7.1662,7.1688,7.1688,7.0908,7.0239,6.9719,6.9162,6.8753,6.8493,6.7713,6.7713,6.8493,6.7676,6.7713,6.8493,6.8493,6.8196,3.1922,3.2619,3.3396,3.6684,0.0,0.0,4.6801,4.7192,4.7187,4.9135,5.0111,5.0376,4.945,5.0316,5.1617,5.3149,5.4651,5.6168,5.7702,5.8547,5.8944,5.8806,5.8613,5.8578,5.8771,5.8437,5.8384,5.8753,5.8437,5.8294,5.849,5.833,5.8189,5.8189,5.8189,5.8189,5.8189,5.8401,5.8596,5.8788,5.8961,5.9788,6.1323,6.2117,6.248,6.2549,6.3273,6.36,6.36,6.36,6.4014,6.4772,6.5585,6.6344,6.7049,6.7807,6.8083,6.8083,6.8083,6.8083,6.8083,6.8083,6.8083,6.8083,6.8118,6.9187,7.0415,7.0415,7.0912,7.1498,7.1463,7.0912,7.038,7.0415,7.0415,7.0441,7.0678,7.0987,7.1549,7.235,7.2449,7.2593,7.3114,7.2841,7.2496,7.2496,7.2496,7.2496,7.2496,7.2496,7.2539,7.2695,7.3023,7.3199,7.3199,7.3331,7.3385,7.3385,7.2642,7.1453,6.9794,6.9719,6.9348,6.8531,6.7713,6.7713,6.8493,6.7713,6.7713,6.8493,6.8493,6.8493,3.1568,3.2993,3.4931,3.7661,0.0,0.0,0.0,4.927,0.0,0.0,5.2677,5.2335,5.0432,5.1528,5.3046,5.4011,5.5908,5.7547,5.8547,5.8789,5.884,5.8788,5.8613,5.8578,5.8771,5.8684,5.8666,5.8771,5.8684,5.8578,5.8508,5.8455,5.8348,5.8189,5.8189,5.8277,5.8419,5.8472,5.8666,5.8927,5.8978,5.9237,5.9719,6.1047,6.1668,6.1737,6.3013,6.36,6.36,6.36,6.3738,6.3979,6.4738,6.5186,6.5531,6.6842,6.7325,6.7394,6.7911,6.8083,6.8083,6.8083,6.8083,6.8187,6.8793,6.9621,7.0415,7.0415,7.0553,7.0622,7.0104,6.938,6.9049,7.0118,7.0102,7.0,7.058,7.0837,7.1292,7.2478,7.312,7.3438,7.3429,7.3355,7.3156,7.2606,7.2496,7.2496,7.2496,7.2496,7.2539,7.2695,7.2927,7.3091,7.3185,7.3331,7.3385,7.3385,7.3162,7.2568,7.149,7.0314,6.9608,6.9348,6.8568,6.8271,6.8493,6.8271,6.8271,6.8493,6.8493,6.8493,3.2272,3.4137,3.6589,3.9048,4.2323,4.6085,5.0427,0.0,0.0,0.0,5.4772,5.4495,5.2953,5.3389,5.4159,5.4839,5.5839,5.6789,5.7547,5.7842,5.7964,5.7895,5.8015,5.8066,5.7895,5.8153,5.8359,5.8428,5.8359,5.8392,5.8474,5.8419,5.8294,5.8081,5.8135,5.8312,5.8508,5.8578,5.8753,5.8995,5.8995,5.8995,5.903,6.0289,6.0875,6.0944,6.2496,6.3342,6.36,6.36,6.36,6.3669,6.4393,6.4703,6.4841,6.6102,6.6551,6.6689,6.7394,6.7669,6.7704,6.8014,6.8083,6.8187,6.869,6.938,6.9966,6.9966,6.9966,6.9863,6.9414,6.8724,6.8345,6.9376,6.9599,6.9881,7.0965,7.1596,7.235,7.3795,7.4321,7.444,7.4031,7.3824,7.3413,7.2606,7.2496,7.2496,7.2496,7.2496,7.2524,7.261,7.2765,7.2955,7.3105,7.3252,7.332,7.3385,7.3385,7.3162,7.2679,7.1403,7.0536,7.0202,6.9719,6.9459,6.9459,6.9459,6.9274,6.8976,6.8976,6.8828,3.3587,3.5723,3.8293,4.0736,4.4572,4.8992,5.3866,5.526,5.566,5.5978,5.6341,5.6485,5.6079,5.539,5.5045,5.5511,5.5099,5.4961,5.572,5.6375,5.6757,5.6728,5.7175,5.7278,5.6746,5.7243,5.7689,5.7945,5.7809,5.7895,5.8456,5.8312,5.8099,5.79,5.8081,5.8312,5.8508,5.8684,5.8875,5.8995,5.8995,5.8995,5.903,5.984,6.022,6.0392,6.1772,6.279,6.3393,6.3462,6.3496,6.3565,6.4324,6.46,6.4703,6.5516,6.5792,6.593,6.6723,6.6999,6.7118,6.7842,6.8083,6.8118,6.8187,6.8724,6.9311,6.9311,6.9311,6.9276,6.9207,6.8655,6.8182,6.8397,6.901,6.9938,7.1495,7.2757,7.4011,7.5521,7.5676,7.5312,7.4714,7.4095,7.3413,7.2606,7.2496,7.2496,7.2496,7.2496,7.2496,7.2496,7.2624,7.2779,7.2982,7.3118,7.3265,7.3372,7.3385,7.3385,7.3385,7.2642,7.1825,7.1019,7.0945,7.0908,7.0908,7.0908,7.0536,6.9831,6.9831,6.9385,3.3733,3.653,0.0,4.2368,4.7862,5.3277,5.5555,5.6466,5.6845,5.6957,5.6855,5.6475,5.5564,5.5537,5.5652,5.5614,5.6012,5.6564,5.7306,5.6914,5.6985,5.817,5.7398,5.7089,5.7979,5.7792,5.7792,5.8323,5.8339,5.8302,5.826,5.8207,5.8099,5.79,5.8081,5.8312,5.8508,5.8684,5.8875,5.8995,5.8995,5.8995,5.903,5.984,6.053,6.1082,6.1392,6.1634,6.1841,6.2461,6.2756,6.2825,6.3531,6.3841,6.391,6.4669,6.4945,6.5152,6.6551,6.6999,6.7118,6.7842,6.8083,6.8221,6.8862,6.9173,6.9311,6.9311,6.9311,6.9138,6.8497,6.8359,6.8435,6.88,6.898,6.9519,7.0906,7.189,7.2921,7.4263,7.4733,7.4693,7.4037,7.3802,7.3413,7.2606,7.2496,7.2496,7.2496,7.2496,7.2496,7.2496,7.2624,7.2779,7.2982,7.3118,7.3265,7.3372,7.3385,7.3385,7.3385,7.2642,7.2122,7.1936,7.1242,7.0908,7.0908,7.0908,7.0834,7.0648,7.0648,7.0202,3.3807,3.7074,0.0,4.5883,0.0,5.508,5.6218,5.6916,5.7342,5.7603,5.7313,5.6908,5.6409,5.6152,5.5971,5.5665,5.5667,5.5839,5.6219,5.5862,5.5831,5.6656,5.6347,5.6177,5.6439,5.6507,5.6627,5.685,5.7192,5.748,5.7645,5.8001,5.8135,5.8027,5.8259,5.8437,5.8631,5.8806,5.8909,5.8995,5.8995,5.8995,5.8995,5.9426,6.0047,6.0771,6.0771,6.0978,6.1323,6.1737,6.2151,6.2549,6.2928,6.3289,6.3634,6.4014,6.4152,6.4324,6.5497,6.6152,6.6585,6.7325,6.7807,6.8187,6.8621,6.8724,6.8724,6.8724,6.8724,6.8621,6.8187,6.8241,6.8494,6.8914,6.9437,7.0176,7.1339,7.23,7.3264,7.4196,7.4616,7.4557,7.3854,7.3722,7.367,7.3656,7.3656,7.3523,7.312,7.3083,7.2936,7.2532,7.2553,7.2667,7.2821,7.3342,7.3566,7.3305,7.3718,7.3794,7.3423,7.3014,7.2754,7.2754,7.2332,7.2109,7.2109,7.2109,7.1886,7.1515,7.1515,7.1056,3.388,3.7764,4.3195,4.9297,5.293,0.0,5.6223,5.6731,5.7096,5.7402,5.7278,5.7083,5.709,5.6478,5.5826,5.5458,5.4892,5.4547,5.4651,5.4582,5.4598,5.4874,5.5187,5.5159,5.4603,5.5032,5.5309,5.5262,5.5809,5.6389,5.6897,5.7491,5.7815,5.7815,5.8164,5.8408,5.8599,5.8841,5.8995,5.8995,5.8995,5.8995,5.8995,5.8995,5.9357,5.9978,5.9978,6.0358,6.0909,6.1047,6.1496,6.2135,6.2411,6.2859,6.3446,6.3531,6.36,6.3703,6.4427,6.5117,6.5826,6.6585,6.729,6.7911,6.7911,6.798,6.8083,6.8083,6.8083,6.8103,6.8143,6.8319,6.8628,6.9064,7.0,7.1055,7.1833,7.2801,7.3659,7.4193,7.4535,7.4551,7.4001,7.3891,7.4147,7.4793,7.4903,7.461,7.378,7.3817,7.3597,7.2789,7.2826,7.2957,7.31,7.3867,7.4132,7.363,7.4208,7.4288,7.3645,7.346,7.3385,7.3385,7.3385,7.3385,7.3385,7.3385,7.3051,7.2419,7.2419,7.1961,3.427,0.0,4.5287,0.0,5.2139,5.389,0.0,5.5617,5.5435,5.5245,5.5766,5.6106,5.5599,5.5201,5.4903,5.4683,5.4547,5.472,5.5375,5.4892,5.5012,5.6322,5.5246,5.4792,5.5825,5.5466,5.5365,5.5843,5.5962,5.6046,5.6131,5.6233,5.6301,5.6301,5.7209,5.7741,5.7775,5.8565,5.8995,5.8995,5.8995,5.8995,5.8995,5.8995,5.9064,5.9168,5.9168,5.9202,5.934,6.0047,6.0392,6.0634,6.1997,6.2549,6.2721,6.3358,6.36,6.3703,6.4427,6.4772,6.4979,6.5792,6.6551,6.7172,6.7172,6.7566,6.8083,6.8083,6.8083,6.8123,6.8319,6.8647,6.9083,6.9634,7.0376,7.1024,7.1287,7.1806,7.2361,7.2724,7.3362,7.4037,7.4647,7.472,7.4793,7.4867,7.4903,7.461,7.378,7.4294,7.4441,7.3634,7.4147,7.4647,7.4771,7.491,7.509,7.5259,7.4731,7.4441,7.4463,7.3757,7.3385,7.3385,7.3385,7.3385,7.3385,7.3385,7.3348,7.3237,7.3237,7.2791,3.5385,4.012,4.4782,0.0,5.0315,5.226,5.3885,5.4396,5.4585,5.4774,5.4802,5.4674,5.4274,5.3867,5.3573,5.3422,5.3264,5.3306,5.3651,5.341,5.3585,5.4608,5.4047,5.3953,5.4885,5.4664,5.4596,5.4854,5.5162,5.5349,5.5349,5.5757,5.603,5.6099,5.6662,5.7019,5.7155,5.7548,5.7978,5.8375,5.8788,5.8995,5.8995,5.8995,5.8995,5.8995,5.8995,5.8995,5.903,5.9392,5.9806,6.0323,6.1392,6.2082,6.2583,6.3342,6.36,6.3634,6.3979,6.4358,6.4772,6.5117,6.6014,6.6999,6.6999,6.7497,6.8083,6.8083,6.8083,6.8143,6.8338,6.8705,6.9194,6.9831,7.0577,7.1187,7.1552,7.1912,7.2379,7.3039,7.3817,7.4625,7.5432,7.5579,7.5711,7.6188,7.6225,7.5931,7.5139,7.5359,7.5249,7.4478,7.4683,7.4933,7.497,7.5515,7.5734,7.5504,7.5232,7.5119,7.5267,7.4054,7.3608,7.4054,7.3645,7.3385,7.3385,7.3385,7.3385,7.3385,7.3385,7.32,0.0,0.0,4.2873,4.5287,4.7599,4.9728,0.0,5.2395,5.298,5.3575,5.3336,5.2957,5.2741,5.2699,5.2671,5.2567,5.2414,5.2309,5.2278,5.2263,5.2425,5.2807,5.3001,5.3281,5.3736,5.3943,5.3977,5.3788,5.4136,5.4292,5.4088,5.4667,5.5127,5.5397,5.5785,5.614,5.6495,5.6874,5.7357,5.7909,5.8651,5.8995,5.8995,5.8995,5.8995,5.8995,5.8995,5.8995,5.8995,5.8995,5.934,5.9978,6.0737,6.1496,6.2289,6.3048,6.3427,6.36,6.36,6.3945,6.4427,6.4427,6.5462,6.6723,6.6723,6.7359,6.8103,6.8143,6.8162,6.8241,6.8551,6.8932,6.9399,7.0148,7.0845,7.1546,7.2273,7.2541,7.2988,7.4096,7.4808,7.5454,7.6276,7.6423,7.6592,7.7215,7.7289,7.6995,7.6203,7.6276,7.6093,7.527,7.538,7.5527,7.5527,7.6198,7.6472,7.6033,7.5925,7.593,7.6121,7.476,7.4277,7.4909,7.4314,7.3794,7.3385,7.3385,7.3385,7.3385,7.3385,7.3385,0.0,3.6413,0.0,4.1956,4.3782,4.5654,4.8003,4.9125,4.9819,5.0497,5.0796,5.0904,5.0784,5.1823,5.2715,5.27,5.2685,5.2641,5.2508,5.2493,5.2418,5.2287,5.2754,5.3107,5.3141,5.3761,5.3898,5.321,5.3159,5.2885,5.2164,5.2199,5.2542,5.3244,5.4108,5.4927,5.5651,5.7099,5.7874,5.7909,5.8651,5.8995,5.8995,5.8995,5.8995,5.8995,5.8995,5.8995,5.8995,5.8995,5.903,5.9133,5.9944,6.0703,6.1461,6.2273,6.2997,6.36,6.36,6.3653,6.3669,6.3669,6.4703,6.5964,6.5964,6.6945,6.8123,6.8319,6.8377,6.8532,6.9101,6.9543,7.0026,7.0781,7.1388,7.2106,7.3333,7.3619,7.4111,7.5652,7.6019,7.6276,7.7105,7.7252,7.7252,7.7289,7.7289,7.6995,7.6203,7.6775,7.6922,7.613,7.6702,7.7179,7.7179,7.7215,7.7368,7.7643,7.6971,7.667,7.7013,7.6172,7.5689,7.5726,7.5689,7.4909,7.3385,7.3385,7.3385,7.3385,7.3385,7.3385,0.0,0.0,0.0,3.9643,4.1213,4.2902,4.4782,4.6158,4.7234,4.8045,4.843,4.8744,4.917,5.0458,5.1466,5.1466,5.1346,5.1176,5.1032,5.1017,5.1089,5.129,5.1489,5.1836,5.2332,5.2626,5.2707,5.2525,5.2448,5.2264,5.2023,5.1989,5.2126,5.2401,5.3313,5.4149,5.4892,5.5892,5.6409,5.6409,5.7219,5.784,5.8288,5.8288,5.8547,5.8995,5.8995,5.8995,5.8995,5.8995,5.8995,5.9064,5.9875,6.0634,6.1392,6.2204,6.2963,6.36,6.36,6.36,6.36,6.36,6.4653,6.5895,6.5895,6.7007,6.8299,6.8377,6.859,6.8895,6.9379,6.9849,7.0458,7.1431,7.2343,7.328,7.425,7.4882,7.5395,7.5983,7.6533,7.6959,7.7252,7.7289,7.7289,7.7289,7.7289,7.7215,7.6922,7.7142,7.7179,7.6885,7.7142,7.7289,7.7289,7.7289,7.7426,7.7791,7.7045,7.7003,7.783,7.6544,7.6061,7.6618,7.6098,7.554,7.4946,7.4946,7.4946,7.4946,7.4946,7.4946,3.2583,0.0,0.0,0.0,3.8498,3.9892,4.1515,4.307,4.44,4.526,4.6352,4.7315,4.7785,4.9245,5.0294,5.011,4.9958,4.9755,4.9521,4.9736,4.997,5.012,5.0607,5.1122,5.1653,5.1913,5.1993,5.1843,5.1733,5.1584,5.1344,5.1344,5.155,5.205,5.2915,5.377,5.4478,5.5237,5.5582,5.5616,5.6426,5.7047,5.7529,5.7805,5.8168,5.8651,5.8892,5.8995,5.8995,5.8995,5.8995,5.903,5.9599,6.0254,6.1013,6.1806,6.2583,6.3255,6.3496,6.36,6.36,6.36,6.4653,6.5914,6.5971,6.7123,6.8455,6.8724,6.901,6.938,6.992,7.0509,7.1119,7.1912,7.2907,7.3927,7.472,7.5542,7.6166,7.6445,7.6922,7.7289,7.7289,7.7289,7.7289,7.7289,7.7289,7.7289,7.7289,7.7289,7.7289,7.7289,7.7289,7.7289,7.7289,7.7289,7.7426,7.7791,7.7303,7.741,7.8276,7.725,7.6915,7.7473,7.6915,7.6655,7.6655,7.6061,7.5801,7.5801,7.554,7.5243,0.0,0.0,0.0,0.0,3.5635,3.667,3.8241,3.9856,4.125,4.2066,4.4602,4.6647,4.6527,4.8066,4.9186,4.8695,4.8665,4.8559,4.8167,4.8775,4.9153,4.8832,5.01,5.103,5.103,5.1686,5.1824,5.1134,5.1065,5.0755,5.0045,5.0011,5.0651,5.2134,5.2942,5.3736,5.4444,5.5203,5.5582,5.5582,5.6357,5.6736,5.6805,5.7529,5.7874,5.7943,5.8685,5.8995,5.8995,5.8995,5.8995,5.8995,5.8995,5.9495,6.0289,6.1013,6.1806,6.2618,6.3324,6.36,6.36,6.36,6.4653,6.5933,6.6142,6.7257,6.8609,6.9397,6.9706,7.0008,7.0831,7.1526,7.2048,7.2248,7.3018,7.3891,7.4698,7.5542,7.635,7.7142,7.7289,7.7289,7.7289,7.7289,7.7289,7.7289,7.7289,7.7289,7.7289,7.7289,7.7289,7.7289,7.7289,7.7289,7.7289,7.7289,7.7426,7.7791,7.782,7.7965,7.8276,7.829,7.829,7.829,7.829,7.829,7.829,7.6692,7.5875,7.5838,7.5057,7.4277,3.2583,0.0,0.0,0.0,0.0,0.0,3.5922,3.7756,3.9599,4.0385,4.2111,4.378,4.4799,4.5329,4.5831,4.6558,4.7793,4.8624,4.843,4.8487,4.8454,4.8176,4.8999,4.9545,4.9459,5.0134,5.0513,5.0321,5.0306,5.0218,4.9996,5.0011,5.041,5.1375,5.2134,5.2892,5.3701,5.446,5.4789,5.4789,5.503,5.5426,5.5961,5.6736,5.7391,5.7943,5.8685,5.8995,5.8995,5.8995,5.8995,5.8995,5.8995,5.9495,6.0289,6.1013,6.1806,6.2618,6.3324,6.36,6.36,6.36,6.4746,6.6123,6.6179,6.7652,6.9342,6.9653,7.02,7.0811,7.1557,7.1957,7.2248,7.2394,7.3091,7.3744,7.3964,7.5102,7.635,7.7142,7.7289,7.7289,7.7289,7.7289,7.7289,7.7289,7.7289,7.7289,7.7289,7.7289,7.7289,7.7289,7.7289,7.7289,7.7289,7.7289,7.7426,7.7791,7.782,7.7965,7.8276,7.829,7.829,7.829,7.829,7.829,7.829,7.7844,7.7621,7.7621,7.7398,7.6841,0.0,0.0,0.0,0.0,0.0,0.0,3.4491,3.6149,3.7845,3.8285,3.9897,4.17,4.3159,4.3559,4.4075,4.543,4.6678,4.7508,4.754,4.7742,4.7806,4.7496,4.81,4.8495,4.8355,4.8755,4.9031,4.9031,4.9341,4.9651,4.9976,5.0011,5.0355,5.1065,5.1513,5.2272,5.3391,5.3839,5.4218,5.4478,5.4478,5.4892,5.5616,5.6426,5.7219,5.7943,5.8685,5.8995,5.8995,5.8995,5.8995,5.8995,5.8995,5.9288,5.984,6.0909,6.1599,6.2151,6.322,6.36,6.3618,6.3692,6.4632,6.5769,6.6065,6.7585,6.9336,6.9753,7.0692,7.1635,7.2078,7.2292,7.238,7.2467,7.2863,7.3303,7.3634,7.4441,7.5432,7.6592,7.7069,7.7289,7.7289,7.7289,7.7289,7.7289,7.7289,7.7289,7.7289,7.7289,7.7289,7.7289,7.7289,7.7289,7.7289,7.7289,7.7433,7.7703,7.7776,7.79,7.8141,7.8248,7.829,7.829,7.829,7.829,7.829,7.829,7.8141,7.7807,7.7807,7.7361,0.0,0.0,0.0,0.0,3.399,0.0,3.391,3.5092,3.6193,3.6273,3.8072,4.006,4.1472,4.2139,4.2995,4.4541,4.5069,4.5519,4.608,4.6827,4.7143,4.6777,4.7357,4.7761,4.7624,4.7651,4.7686,4.7686,4.8376,4.91,4.9838,4.9927,5.0321,5.0962,5.1065,5.1804,5.3253,5.3356,5.377,5.4478,5.4478,5.4892,5.5616,5.6426,5.7219,5.7943,5.8685,5.8995,5.8995,5.8995,5.8995,5.8995,5.8995,5.8995,5.9168,6.0737,6.1289,6.153,6.3048,6.3618,6.3655,6.382,6.4449,6.5239,6.5934,6.732,6.8919,6.9849,7.1187,7.2358,7.2452,7.2496,7.2496,7.2496,7.2496,7.2716,7.3413,7.3648,7.4147,7.5652,7.6628,7.7215,7.7289,7.7289,7.7289,7.7289,7.7289,7.7289,7.7289,7.7289,7.7289,7.7289,7.7289,7.7289,7.7289,7.7289,7.7402,7.7605,7.7732,7.7856,7.8,7.8207,7.829,7.829,7.829,7.829,7.829,7.829,7.7919,7.7213,7.7213,7.6767,0.0,0.0,0.0,0.0,3.5268,0.0,3.4784,3.5004,3.5445,3.6156,3.7191,3.8256,3.9171,3.9329,3.9764,4.1279,4.1943,4.312,4.553,4.6271,4.6513,4.6327,4.6834,4.7111,4.6978,4.741,4.7686,4.7686,4.8376,4.8858,4.9031,4.9651,5.008,5.0218,5.0789,5.1513,5.2444,5.308,5.377,5.4478,5.4478,5.4892,5.5616,5.6426,5.7219,5.7943,5.8685,5.8995,5.8995,5.8995,5.8995,5.8995,5.8995,5.8995,5.9168,6.0737,6.1289,6.153,6.3048,6.371,6.3872,6.3909,6.4793,6.5952,6.6192,6.7434,6.9057,7.0489,7.1641,7.2452,7.2481,7.2496,7.2496,7.2496,7.2496,7.2532,7.2716,7.323,7.3964,7.4955,7.5784,7.6533,7.7179,7.7289,7.7289,7.7289,7.7289,7.7289,7.7289,7.7289,7.7289,7.7289,7.7289,7.7289,7.7289,7.7289,7.7402,7.7605,7.7732,7.7856,7.8,7.8207,7.829,7.829,7.829,7.829,7.829,7.829,7.8216,7.8067,7.8067,7.7621,0.0,0.0,0.0,3.631,3.5973,0.0,0.0,3.5635,3.5782,3.6193,3.6266,3.6633,3.7889,3.7628,3.7776,3.9316,4.0673,4.2075,4.355,4.4998,4.5823,4.5631,4.6095,4.6352,4.6221,4.6422,4.672,4.7134,4.7479,4.7858,4.8238,4.8996,4.941,4.941,5.0134,5.1065,5.2203,5.2582,5.3375,5.4478,5.4478,5.5099,5.6202,5.6633,5.7476,5.863,5.8994,5.9217,5.9302,5.9302,5.9302,5.9285,5.9064,5.8995,5.9168,6.0737,6.136,6.169,6.3228,6.3929,6.4163,6.4393,6.5055,6.5826,6.6251,6.7775,6.9601,7.0836,7.1837,7.2496,7.2496,7.2496,7.2496,7.2496,7.2496,7.2496,7.2496,7.312,7.3927,7.472,7.5542,7.635,7.7179,7.7289,7.7289,7.7289,7.7289,7.7289,7.7289,7.7289,7.7289,7.7289,7.7289,7.7289,7.7289,7.7289,7.7356,7.7448,7.7688,7.7813,7.79,7.8165,7.829,7.829,7.829,7.829,7.829,7.829,7.829,7.829,7.829,7.8067,0.0,0.0,0.0,0.0,0.0,3.6707,0.0,0.0,0.0,3.6083,3.5488,3.5371,3.6567,3.6157,3.612,3.7582,3.9352,4.0592,4.0764,4.2706,4.4314,4.48,4.5154,4.5392,4.5416,4.5295,4.5445,4.6113,4.6272,4.6617,4.7238,4.8238,4.881,4.881,4.9582,5.0651,5.1996,5.2134,5.2892,5.4272,5.441,5.5219,5.6564,5.6736,5.7629,5.9111,5.9283,5.9486,5.972,5.972,5.9701,5.9685,5.9251,5.9081,5.9271,6.0617,6.1397,6.1901,6.3307,6.413,6.4619,6.4979,6.5341,6.5819,6.6491,6.8211,7.0102,7.0875,7.1762,7.2496,7.2496,7.2496,7.2532,7.2679,7.2716,7.2789,7.2936,7.3487,7.4184,7.4977,7.5652,7.635,7.7179,7.7289,7.7289,7.7289,7.7289,7.7289,7.7289,7.7289,7.7289,7.7289,7.7289,7.7289,7.7289,7.7289,7.7289,7.7289,7.7592,7.782,7.782,7.8122,7.829,7.829,7.829,7.829,7.829,7.829,7.829,7.829,7.829,7.8304,0.0,0.0,0.0,0.0,3.8946,3.8248,3.7529,0.0,3.6083,3.5298,0.0,3.4857,3.4321,0.0,0.0,3.5147,3.5916,3.662,3.7344,3.8599,4.072,4.407,4.4062,4.4038,4.4722,4.4577,4.4471,4.4552,4.5182,4.5569,4.5638,4.7651,4.881,4.881,4.9582,5.0375,5.1203,5.1858,5.2651,5.3529,5.4184,5.4927,5.5754,5.646,5.7353,5.8349,5.919,5.9767,6.0059,6.0059,6.0104,6.0167,5.9501,5.9369,5.9642,6.0341,6.1206,6.2158,6.3049,6.4109,6.5162,6.5325,6.5976,6.6809,6.7238,6.866,7.0096,7.022,7.1321,7.2496,7.2496,7.2496,7.2679,7.3377,7.3575,7.3744,7.4463,7.4683,7.4992,7.5799,7.6056,7.635,7.7179,7.7289,7.7289,7.7289,7.7289,7.7289,7.7289,7.7289,7.7289,7.7289,7.7289,7.7289,7.7289,7.7289,7.7289,7.7289,7.7592,7.782,7.782,7.8122,7.829,7.829,7.829,7.829,7.829,7.829,7.829,7.829,7.829,7.8359,0.0,0.0,0.0,0.0,0.0,3.921,3.8395,3.7558,3.6898,3.6523,0.0,0.0,0.0,0.0,0.0,0.0,3.5199,3.6042,3.6399,3.7445,3.9032,4.14,4.1626,4.1824,4.2445,4.2405,4.2516,4.2918,4.3677,4.432,4.4734,4.6527,4.772,4.8169,4.8893,4.9893,5.1099,5.1824,5.2582,5.3425,5.4149,5.4892,5.5616,5.6524,5.7497,5.8553,5.958,6.0246,6.0615,6.0757,6.0848,6.0828,6.0446,6.0135,5.997,6.0573,6.1523,6.2709,6.3583,6.4702,6.5855,6.6319,6.6831,6.728,6.7538,6.8784,7.011,7.011,7.1248,7.2496,7.2496,7.2496,7.2716,7.3487,7.3722,7.3927,7.472,7.527,7.5689,7.6019,7.6497,7.6885,7.7252,7.7289,7.7289,7.7289,7.7289,7.7289,7.7289,7.7289,7.7289,7.7289,7.7289,7.7289,7.7289,7.7289,7.7289,7.7289,7.7592,7.7893,7.808,7.8221,7.829,7.829,7.829,7.829,7.829,7.8373,7.8414,7.8414,7.8414,7.8455,4.2424,4.2241,4.1874,4.1083,4.0569,4.001,3.9203,3.8403,3.7786,3.7566,3.6523,0.0,0.0,0.0,0.0,0.0,0.0,3.5689,3.5462,3.6117,3.7245,3.8937,3.9561,4.0027,4.0538,4.0596,4.0849,4.1331,4.237,4.3108,4.3345,4.5463,4.6865,4.7376,4.8307,4.9444,5.0789,5.18,5.2589,5.3192,5.4155,5.4916,5.5421,5.6323,5.7377,5.8463,5.9608,6.0494,6.1154,6.1372,6.1523,6.1501,6.1286,6.0962,6.066,6.0912,6.1773,6.2962,6.3917,6.5233,6.6544,6.7111,6.7414,6.7565,6.7674,6.8839,7.011,7.011,7.1248,7.2496,7.2496,7.2496,7.2753,7.378,7.4037,7.4294,7.5344,7.6004,7.6423,7.6423,7.6885,7.7289,7.7289,7.7289,7.7289,7.7289,7.7289,7.7289,7.7289,7.7289,7.7289,7.7289,7.7289,7.7289,7.7289,7.7289,7.732,7.7411,7.7872,7.8298,7.8611,7.8847,7.8847,7.8625,7.8625,7.8513,7.829,7.8441,7.8522,7.8562,7.8602,7.8655,4.5736,4.5177,4.4406,4.3579,4.2213,4.0846,4.0055,3.9239,3.8432,3.7676,3.7456,3.7191,3.6413,0.0,0.0,0.0,0.0,0.0,0.0,3.364,3.4581,3.7416,3.8476,3.915,3.9687,3.987,3.9893,3.9779,4.1418,4.2008,4.1079,4.469,4.6731,4.6631,4.8031,4.9203,5.0031,5.1657,5.2493,5.2528,5.422,5.4934,5.4849,5.5749,5.6687,5.7689,5.9036,6.0337,6.1501,6.1845,6.2037,6.2132,6.1795,6.1768,6.1859,6.1234,6.172,6.2853,6.3769,6.5467,6.721,6.7414,6.7579,6.7687,6.77,6.8839,7.011,7.011,7.1248,7.2496,7.2496,7.2496,7.2899,7.45,7.4867,7.5307,7.6885,7.7252,7.7252,7.7252,7.7289,7.7289,7.7289,7.7289,7.7289,7.7289,7.7289,7.7289,7.7289,7.7289,7.7289,7.7289,7.7289,7.7289,7.7289,7.7289,7.7426,7.774,7.8522,7.9113,7.9465,8.0208,8.0259,7.9479,7.9479,7.907,7.829,7.8441,7.8576,7.8695,7.8838,7.9041,4.5883,4.5296,4.4516,4.369,4.269,4.169,4.0883,4.0479,4.0223,3.9929,3.9467,3.8843,3.8028,0.0,0.0,0.0,0.0,0.0,0.0,3.4004,3.4661,3.5947,3.7026,3.7434,3.6964,3.7488,3.7777,3.7671,3.9225,4.0676,4.1704,4.3482,4.5369,4.7286,4.7824,4.8686,5.0011,5.1657,5.2508,5.2508,5.42,5.4915,5.483,5.5839,5.6849,5.7942,5.9313,6.0711,6.1996,6.2278,6.2423,6.2449,6.2357,6.2291,6.2199,6.1656,6.2175,6.3373,6.493,6.6395,6.7515,6.7606,6.766,6.7811,6.8311,6.9265,7.022,7.072,7.1674,7.2496,7.2496,7.2496,7.2789,7.3854,7.4515,7.5197,7.6261,7.6922,7.7289,7.7289,7.7289,7.7289,7.7289,7.7289,7.7289,7.7289,7.7289,7.7289,7.7289,7.7289,7.7289,7.7289,7.7289,7.7289,7.7289,7.7839,7.8287,7.8581,7.9335,7.9927,8.0282,8.0557,8.058,8.0282,8.0297,8.0228,8.0079,7.9738,7.9676,7.988,7.9689,7.96,4.6764,4.6168,4.5434,4.4929,4.3975,4.302,4.2498,4.2168,4.1956,4.1956,4.1295,4.0524,3.9709,0.0,0.0,0.0,0.0,0.0,0.0,3.5148,3.5602,3.5846,3.6372,3.6479,3.576,3.6513,3.682,3.6392,3.8162,3.9793,4.0943,4.225,4.4048,4.6424,4.6755,4.7893,4.9976,5.1439,5.2487,5.3103,5.4565,5.5174,5.5092,5.5864,5.6907,5.8183,5.9331,6.0738,6.2212,6.2539,6.2667,6.2667,6.2667,6.2616,6.2488,6.2135,6.2903,6.426,6.5457,6.669,6.77,6.77,6.77,6.7847,6.8678,6.9449,7.0257,7.1087,7.1857,7.2496,7.2496,7.2496,7.2716,7.3487,7.4331,7.5124,7.5946,7.6738,7.7289,7.7289,7.7289,7.7289,7.7289,7.7289,7.7289,7.7289,7.7289,7.7289,7.7289,7.7289,7.7289,7.7289,7.7289,7.7289,7.7289,7.8121,7.8753,7.8987,8.0096,8.0874,8.1137,8.1448,8.1448,8.1188,8.1194,8.1168,8.1005,8.0786,8.0656,8.0597,8.0591,8.0362]}]]